<?xml version="1.0" encoding="utf-8"?>
<gpx xmlns:xsi="http://www.w3.org/2001/XMLSchema-instance" xmlns:xsd="http://www.w3.org/2001/XMLSchema" version="1.1" creator="Shapelink.com" xmlns="http://www.topografix.com/GPX/1/1" xmlns:gpxtpx="http://www.garmin.com/xmlschemas/TrackPointExtension/v1">
  <metadata>
    <name>Inlines 18.07 km, 2013-04-16</name>
    <desc></desc>
    <author><name>Mattias Eriksson</name></author> 
    <time>1970-01-01T01:00:00Z</time>
  </metadata>
  <trk>
    <name>Inlines 18.07 km, 2013-04-16</name>
    <trkseg>
      <trkpt lat="55.601351" lon="12.980232">
        <ele>5</ele>
        <time>1970-01-01T01:00:00Z</time>
      </trkpt>
      <trkpt lat="55.601379" lon="12.980404">
        <ele>5</ele>
        <time>1970-01-01T01:00:00Z</time>
      </trkpt>
      <trkpt lat="55.601447" lon="12.980578">
        <ele>5</ele>
        <time>1970-01-01T01:00:00Z</time>
      </trkpt>
      <trkpt lat="55.601499" lon="12.980692">
        <ele>5</ele>
        <time>1970-01-01T01:00:00Z</time>
      </trkpt>
      <trkpt lat="55.601575" lon="12.9808">
        <ele>5</ele>
        <time>1970-01-01T01:00:00Z</time>
      </trkpt>
      <trkpt lat="55.601652" lon="12.980951">
        <ele>5</ele>
        <time>1970-01-01T01:00:00Z</time>
      </trkpt>
      <trkpt lat="55.601701" lon="12.981108">
        <ele>5</ele>
        <time>1970-01-01T01:00:00Z</time>
      </trkpt>
      <trkpt lat="55.601746" lon="12.981258">
        <ele>5.09091</ele>
        <time>1970-01-01T01:00:00Z</time>
      </trkpt>
      <trkpt lat="55.601798" lon="12.981418">
        <ele>5.18182</ele>
        <time>1970-01-01T01:00:00Z</time>
      </trkpt>
      <trkpt lat="55.601892" lon="12.981536">
        <ele>5.27273</ele>
        <time>1970-01-01T01:00:00Z</time>
      </trkpt>
      <trkpt lat="55.601985" lon="12.981647">
        <ele>5.36364</ele>
        <time>1970-01-01T01:00:00Z</time>
      </trkpt>
      <trkpt lat="55.602057" lon="12.981731">
        <ele>5.45455</ele>
        <time>1970-01-01T01:00:00Z</time>
      </trkpt>
      <trkpt lat="55.602132" lon="12.981824">
        <ele>5.54545</ele>
        <time>1970-01-01T01:00:00Z</time>
      </trkpt>
      <trkpt lat="55.602221" lon="12.981885">
        <ele>5.63636</ele>
        <time>1970-01-01T01:00:00Z</time>
      </trkpt>
      <trkpt lat="55.60231" lon="12.981998">
        <ele>5.72727</ele>
        <time>1970-01-01T01:00:00Z</time>
      </trkpt>
      <trkpt lat="55.602393" lon="12.982117">
        <ele>5.81818</ele>
        <time>1970-01-01T01:00:00Z</time>
      </trkpt>
      <trkpt lat="55.602485" lon="12.982162">
        <ele>5.63636</ele>
        <time>1970-01-01T01:00:00Z</time>
      </trkpt>
      <trkpt lat="55.602593" lon="12.982152">
        <ele>5.45455</ele>
        <time>1970-01-01T01:00:00Z</time>
      </trkpt>
      <trkpt lat="55.602691" lon="12.98213">
        <ele>5.18182</ele>
        <time>1970-01-01T01:00:00Z</time>
      </trkpt>
      <trkpt lat="55.602779" lon="12.982106">
        <ele>4.90909</ele>
        <time>1970-01-01T01:00:00Z</time>
      </trkpt>
      <trkpt lat="55.602862" lon="12.982071">
        <ele>4.63636</ele>
        <time>1970-01-01T01:00:00Z</time>
      </trkpt>
      <trkpt lat="55.602964" lon="12.982042">
        <ele>4.36364</ele>
        <time>1970-01-01T01:00:00Z</time>
      </trkpt>
      <trkpt lat="55.603044" lon="12.981999">
        <ele>4.09091</ele>
        <time>1970-01-01T01:00:00Z</time>
      </trkpt>
      <trkpt lat="55.60315" lon="12.981955">
        <ele>3.81818</ele>
        <time>1970-01-01T01:00:00Z</time>
      </trkpt>
      <trkpt lat="55.603257" lon="12.981953">
        <ele>3.54545</ele>
        <time>1970-01-01T01:00:00Z</time>
      </trkpt>
      <trkpt lat="55.603345" lon="12.982024">
        <ele>3.27273</ele>
        <time>1970-01-01T01:00:00Z</time>
      </trkpt>
      <trkpt lat="55.603413" lon="12.982124">
        <ele>3</ele>
        <time>1970-01-01T01:00:00Z</time>
      </trkpt>
      <trkpt lat="55.603383" lon="12.982269">
        <ele>3.09091</ele>
        <time>1970-01-01T01:00:00Z</time>
      </trkpt>
      <trkpt lat="55.603344" lon="12.982427">
        <ele>3.18182</ele>
        <time>1970-01-01T01:00:00Z</time>
      </trkpt>
      <trkpt lat="55.603288" lon="12.982584">
        <ele>3.27273</ele>
        <time>1970-01-01T01:00:00Z</time>
      </trkpt>
      <trkpt lat="55.603244" lon="12.982756">
        <ele>3.36364</ele>
        <time>1970-01-01T01:00:00Z</time>
      </trkpt>
      <trkpt lat="55.603202" lon="12.982892">
        <ele>3.72727</ele>
        <time>1970-01-01T01:00:00Z</time>
      </trkpt>
      <trkpt lat="55.603171" lon="12.983027">
        <ele>4.09091</ele>
        <time>1970-01-01T01:00:00Z</time>
      </trkpt>
      <trkpt lat="55.603132" lon="12.983171">
        <ele>4.45455</ele>
        <time>1970-01-01T01:00:00Z</time>
      </trkpt>
      <trkpt lat="55.603062" lon="12.983333">
        <ele>4.81818</ele>
        <time>1970-01-01T01:00:00Z</time>
      </trkpt>
      <trkpt lat="55.602978" lon="12.983474">
        <ele>5.09091</ele>
        <time>1970-01-01T01:00:00Z</time>
      </trkpt>
      <trkpt lat="55.602898" lon="12.98355">
        <ele>5.36364</ele>
        <time>1970-01-01T01:00:00Z</time>
      </trkpt>
      <trkpt lat="55.60281" lon="12.983608">
        <ele>5.63636</ele>
        <time>1970-01-01T01:00:00Z</time>
      </trkpt>
      <trkpt lat="55.60272" lon="12.983668">
        <ele>5.81818</ele>
        <time>1970-01-01T01:00:00Z</time>
      </trkpt>
      <trkpt lat="55.602639" lon="12.983725">
        <ele>6</ele>
        <time>1970-01-01T01:00:00Z</time>
      </trkpt>
      <trkpt lat="55.602568" lon="12.983802">
        <ele>6.09091</ele>
        <time>1970-01-01T01:00:00Z</time>
      </trkpt>
      <trkpt lat="55.602461" lon="12.98389">
        <ele>6.18182</ele>
        <time>1970-01-01T01:00:00Z</time>
      </trkpt>
      <trkpt lat="55.602372" lon="12.983913">
        <ele>6</ele>
        <time>1970-01-01T01:00:00Z</time>
      </trkpt>
      <trkpt lat="55.602277" lon="12.983935">
        <ele>5.81818</ele>
        <time>1970-01-01T01:00:00Z</time>
      </trkpt>
      <trkpt lat="55.602191" lon="12.983967">
        <ele>5.63636</ele>
        <time>1970-01-01T01:00:00Z</time>
      </trkpt>
      <trkpt lat="55.602099" lon="12.983997">
        <ele>5.45455</ele>
        <time>1970-01-01T01:00:00Z</time>
      </trkpt>
      <trkpt lat="55.602011" lon="12.984016">
        <ele>5.36364</ele>
        <time>1970-01-01T01:00:00Z</time>
      </trkpt>
      <trkpt lat="55.601921" lon="12.984023">
        <ele>5.27273</ele>
        <time>1970-01-01T01:00:00Z</time>
      </trkpt>
      <trkpt lat="55.60183" lon="12.984036">
        <ele>5.18182</ele>
        <time>1970-01-01T01:00:00Z</time>
      </trkpt>
      <trkpt lat="55.601734" lon="12.98405">
        <ele>5.27273</ele>
        <time>1970-01-01T01:00:00Z</time>
      </trkpt>
      <trkpt lat="55.601632" lon="12.984074">
        <ele>5.36364</ele>
        <time>1970-01-01T01:00:00Z</time>
      </trkpt>
      <trkpt lat="55.601532" lon="12.98411">
        <ele>5.54545</ele>
        <time>1970-01-01T01:00:00Z</time>
      </trkpt>
      <trkpt lat="55.601421" lon="12.984153">
        <ele>5.72727</ele>
        <time>1970-01-01T01:00:00Z</time>
      </trkpt>
      <trkpt lat="55.601326" lon="12.984199">
        <ele>5.90909</ele>
        <time>1970-01-01T01:00:00Z</time>
      </trkpt>
      <trkpt lat="55.601221" lon="12.984268">
        <ele>6.36364</ele>
        <time>1970-01-01T01:00:00Z</time>
      </trkpt>
      <trkpt lat="55.601128" lon="12.984327">
        <ele>6.81818</ele>
        <time>1970-01-01T01:00:00Z</time>
      </trkpt>
      <trkpt lat="55.600998" lon="12.98441">
        <ele>7.27273</ele>
        <time>1970-01-01T01:00:00Z</time>
      </trkpt>
      <trkpt lat="55.600885" lon="12.984522">
        <ele>7.72727</ele>
        <time>1970-01-01T01:00:00Z</time>
      </trkpt>
      <trkpt lat="55.600822" lon="12.984616">
        <ele>8</ele>
        <time>1970-01-01T01:00:00Z</time>
      </trkpt>
      <trkpt lat="55.60075" lon="12.984731">
        <ele>8.27273</ele>
        <time>1970-01-01T01:00:00Z</time>
      </trkpt>
      <trkpt lat="55.600657" lon="12.984873">
        <ele>8.54545</ele>
        <time>1970-01-01T01:00:00Z</time>
      </trkpt>
      <trkpt lat="55.600574" lon="12.984979">
        <ele>8.81818</ele>
        <time>1970-01-01T01:00:00Z</time>
      </trkpt>
      <trkpt lat="55.600507" lon="12.985102">
        <ele>9.09091</ele>
        <time>1970-01-01T01:00:00Z</time>
      </trkpt>
      <trkpt lat="55.600443" lon="12.985268">
        <ele>9.36364</ele>
        <time>1970-01-01T01:00:00Z</time>
      </trkpt>
      <trkpt lat="55.600405" lon="12.985407">
        <ele>9.63636</ele>
        <time>1970-01-01T01:00:00Z</time>
      </trkpt>
      <trkpt lat="55.600369" lon="12.985578">
        <ele>9.81818</ele>
        <time>1970-01-01T01:00:00Z</time>
      </trkpt>
      <trkpt lat="55.600346" lon="12.985728">
        <ele>10</ele>
        <time>1970-01-01T01:00:00Z</time>
      </trkpt>
      <trkpt lat="55.60033" lon="12.98588">
        <ele>10.1818</ele>
        <time>1970-01-01T01:00:00Z</time>
      </trkpt>
      <trkpt lat="55.600325" lon="12.986052">
        <ele>10.3636</ele>
        <time>1970-01-01T01:00:00Z</time>
      </trkpt>
      <trkpt lat="55.600306" lon="12.986207">
        <ele>10.6364</ele>
        <time>1970-01-01T01:00:00Z</time>
      </trkpt>
      <trkpt lat="55.600275" lon="12.986378">
        <ele>10.9091</ele>
        <time>1970-01-01T01:00:00Z</time>
      </trkpt>
      <trkpt lat="55.600232" lon="12.986601">
        <ele>11</ele>
        <time>1970-01-01T01:00:00Z</time>
      </trkpt>
      <trkpt lat="55.600198" lon="12.986832">
        <ele>11.0909</ele>
        <time>1970-01-01T01:00:00Z</time>
      </trkpt>
      <trkpt lat="55.600161" lon="12.987038">
        <ele>11.1818</ele>
        <time>1970-01-01T01:00:00Z</time>
      </trkpt>
      <trkpt lat="55.60012" lon="12.987197">
        <ele>11.1818</ele>
        <time>1970-01-01T01:00:00Z</time>
      </trkpt>
      <trkpt lat="55.600113" lon="12.987396">
        <ele>11.1818</ele>
        <time>1970-01-01T01:00:00Z</time>
      </trkpt>
      <trkpt lat="55.600117" lon="12.987593">
        <ele>11</ele>
        <time>1970-01-01T01:00:00Z</time>
      </trkpt>
      <trkpt lat="55.600123" lon="12.987793">
        <ele>10.8182</ele>
        <time>1970-01-01T01:00:00Z</time>
      </trkpt>
      <trkpt lat="55.600118" lon="12.987987">
        <ele>10.5455</ele>
        <time>1970-01-01T01:00:00Z</time>
      </trkpt>
      <trkpt lat="55.600126" lon="12.988161">
        <ele>10.2727</ele>
        <time>1970-01-01T01:00:00Z</time>
      </trkpt>
      <trkpt lat="55.600142" lon="12.988327">
        <ele>10.0909</ele>
        <time>1970-01-01T01:00:00Z</time>
      </trkpt>
      <trkpt lat="55.600152" lon="12.988505">
        <ele>9.90909</ele>
        <time>1970-01-01T01:00:00Z</time>
      </trkpt>
      <trkpt lat="55.600155" lon="12.988719">
        <ele>9.72727</ele>
        <time>1970-01-01T01:00:00Z</time>
      </trkpt>
      <trkpt lat="55.600173" lon="12.988882">
        <ele>9.45455</ele>
        <time>1970-01-01T01:00:00Z</time>
      </trkpt>
      <trkpt lat="55.600188" lon="12.989063">
        <ele>9.18182</ele>
        <time>1970-01-01T01:00:00Z</time>
      </trkpt>
      <trkpt lat="55.600203" lon="12.989248">
        <ele>9</ele>
        <time>1970-01-01T01:00:00Z</time>
      </trkpt>
      <trkpt lat="55.600223" lon="12.989416">
        <ele>8.81818</ele>
        <time>1970-01-01T01:00:00Z</time>
      </trkpt>
      <trkpt lat="55.600246" lon="12.989597">
        <ele>8.63636</ele>
        <time>1970-01-01T01:00:00Z</time>
      </trkpt>
      <trkpt lat="55.600269" lon="12.989783">
        <ele>8.45455</ele>
        <time>1970-01-01T01:00:00Z</time>
      </trkpt>
      <trkpt lat="55.600289" lon="12.989945">
        <ele>8.36364</ele>
        <time>1970-01-01T01:00:00Z</time>
      </trkpt>
      <trkpt lat="55.600338" lon="12.990123">
        <ele>8.27273</ele>
        <time>1970-01-01T01:00:00Z</time>
      </trkpt>
      <trkpt lat="55.60037" lon="12.990295">
        <ele>8.09091</ele>
        <time>1970-01-01T01:00:00Z</time>
      </trkpt>
      <trkpt lat="55.600372" lon="12.990516">
        <ele>7.90909</ele>
        <time>1970-01-01T01:00:00Z</time>
      </trkpt>
      <trkpt lat="55.600379" lon="12.990719">
        <ele>7.72727</ele>
        <time>1970-01-01T01:00:00Z</time>
      </trkpt>
      <trkpt lat="55.600402" lon="12.990914">
        <ele>7.63636</ele>
        <time>1970-01-01T01:00:00Z</time>
      </trkpt>
      <trkpt lat="55.600435" lon="12.991116">
        <ele>7.54545</ele>
        <time>1970-01-01T01:00:00Z</time>
      </trkpt>
      <trkpt lat="55.600463" lon="12.99131">
        <ele>7.36364</ele>
        <time>1970-01-01T01:00:00Z</time>
      </trkpt>
      <trkpt lat="55.600475" lon="12.991508">
        <ele>7.18182</ele>
        <time>1970-01-01T01:00:00Z</time>
      </trkpt>
      <trkpt lat="55.600478" lon="12.991696">
        <ele>7</ele>
        <time>1970-01-01T01:00:00Z</time>
      </trkpt>
      <trkpt lat="55.60047" lon="12.991913">
        <ele>6.81818</ele>
        <time>1970-01-01T01:00:00Z</time>
      </trkpt>
      <trkpt lat="55.600439" lon="12.992165">
        <ele>6.54545</ele>
        <time>1970-01-01T01:00:00Z</time>
      </trkpt>
      <trkpt lat="55.600472" lon="12.992427">
        <ele>6.27273</ele>
        <time>1970-01-01T01:00:00Z</time>
      </trkpt>
      <trkpt lat="55.600498" lon="12.99263">
        <ele>6.09091</ele>
        <time>1970-01-01T01:00:00Z</time>
      </trkpt>
      <trkpt lat="55.600515" lon="12.992773">
        <ele>5.90909</ele>
        <time>1970-01-01T01:00:00Z</time>
      </trkpt>
      <trkpt lat="55.600544" lon="12.99292">
        <ele>5.72727</ele>
        <time>1970-01-01T01:00:00Z</time>
      </trkpt>
      <trkpt lat="55.600589" lon="12.993087">
        <ele>5.54545</ele>
        <time>1970-01-01T01:00:00Z</time>
      </trkpt>
      <trkpt lat="55.600627" lon="12.993259">
        <ele>5.36364</ele>
        <time>1970-01-01T01:00:00Z</time>
      </trkpt>
      <trkpt lat="55.600662" lon="12.993445">
        <ele>5.27273</ele>
        <time>1970-01-01T01:00:00Z</time>
      </trkpt>
      <trkpt lat="55.600689" lon="12.993628">
        <ele>5.18182</ele>
        <time>1970-01-01T01:00:00Z</time>
      </trkpt>
      <trkpt lat="55.600725" lon="12.993813">
        <ele>5.09091</ele>
        <time>1970-01-01T01:00:00Z</time>
      </trkpt>
      <trkpt lat="55.600761" lon="12.993996">
        <ele>4.90909</ele>
        <time>1970-01-01T01:00:00Z</time>
      </trkpt>
      <trkpt lat="55.600792" lon="12.9942">
        <ele>4.81818</ele>
        <time>1970-01-01T01:00:00Z</time>
      </trkpt>
      <trkpt lat="55.600845" lon="12.994381">
        <ele>4.72727</ele>
        <time>1970-01-01T01:00:00Z</time>
      </trkpt>
      <trkpt lat="55.600878" lon="12.994563">
        <ele>4.63636</ele>
        <time>1970-01-01T01:00:00Z</time>
      </trkpt>
      <trkpt lat="55.600909" lon="12.994711">
        <ele>4.54545</ele>
        <time>1970-01-01T01:00:00Z</time>
      </trkpt>
      <trkpt lat="55.600938" lon="12.994848">
        <ele>4.45455</ele>
        <time>1970-01-01T01:00:00Z</time>
      </trkpt>
      <trkpt lat="55.60097" lon="12.995042">
        <ele>4.27273</ele>
        <time>1970-01-01T01:00:00Z</time>
      </trkpt>
      <trkpt lat="55.600994" lon="12.995202">
        <ele>4.09091</ele>
        <time>1970-01-01T01:00:00Z</time>
      </trkpt>
      <trkpt lat="55.601075" lon="12.995293">
        <ele>3.90909</ele>
        <time>1970-01-01T01:00:00Z</time>
      </trkpt>
      <trkpt lat="55.601159" lon="12.99534">
        <ele>3.72727</ele>
        <time>1970-01-01T01:00:00Z</time>
      </trkpt>
      <trkpt lat="55.601265" lon="12.995368">
        <ele>3.54545</ele>
        <time>1970-01-01T01:00:00Z</time>
      </trkpt>
      <trkpt lat="55.601374" lon="12.995355">
        <ele>3.45455</ele>
        <time>1970-01-01T01:00:00Z</time>
      </trkpt>
      <trkpt lat="55.601459" lon="12.995319">
        <ele>3.36364</ele>
        <time>1970-01-01T01:00:00Z</time>
      </trkpt>
      <trkpt lat="55.601553" lon="12.995286">
        <ele>3.27273</ele>
        <time>1970-01-01T01:00:00Z</time>
      </trkpt>
      <trkpt lat="55.601636" lon="12.995235">
        <ele>4.09091</ele>
        <time>1970-01-01T01:00:00Z</time>
      </trkpt>
      <trkpt lat="55.601725" lon="12.995167">
        <ele>4.90909</ele>
        <time>1970-01-01T01:00:00Z</time>
      </trkpt>
      <trkpt lat="55.601823" lon="12.995112">
        <ele>5.72727</ele>
        <time>1970-01-01T01:00:00Z</time>
      </trkpt>
      <trkpt lat="55.601921" lon="12.995044">
        <ele>6.63636</ele>
        <time>1970-01-01T01:00:00Z</time>
      </trkpt>
      <trkpt lat="55.602018" lon="12.994987">
        <ele>7.54545</ele>
        <time>1970-01-01T01:00:00Z</time>
      </trkpt>
      <trkpt lat="55.602111" lon="12.994937">
        <ele>8.45455</ele>
        <time>1970-01-01T01:00:00Z</time>
      </trkpt>
      <trkpt lat="55.602199" lon="12.994887">
        <ele>9.36364</ele>
        <time>1970-01-01T01:00:00Z</time>
      </trkpt>
      <trkpt lat="55.602308" lon="12.994824">
        <ele>10.2727</ele>
        <time>1970-01-01T01:00:00Z</time>
      </trkpt>
      <trkpt lat="55.602397" lon="12.994775">
        <ele>11.0909</ele>
        <time>1970-01-01T01:00:00Z</time>
      </trkpt>
      <trkpt lat="55.602457" lon="12.994912">
        <ele>11.9091</ele>
        <time>1970-01-01T01:00:00Z</time>
      </trkpt>
      <trkpt lat="55.602515" lon="12.995075">
        <ele>12.7273</ele>
        <time>1970-01-01T01:00:00Z</time>
      </trkpt>
      <trkpt lat="55.60255" lon="12.995247">
        <ele>12.6364</ele>
        <time>1970-01-01T01:00:00Z</time>
      </trkpt>
      <trkpt lat="55.602583" lon="12.995427">
        <ele>12.5455</ele>
        <time>1970-01-01T01:00:00Z</time>
      </trkpt>
      <trkpt lat="55.602622" lon="12.995612">
        <ele>12.3636</ele>
        <time>1970-01-01T01:00:00Z</time>
      </trkpt>
      <trkpt lat="55.602661" lon="12.995823">
        <ele>12.1818</ele>
        <time>1970-01-01T01:00:00Z</time>
      </trkpt>
      <trkpt lat="55.602691" lon="12.995975">
        <ele>12</ele>
        <time>1970-01-01T01:00:00Z</time>
      </trkpt>
      <trkpt lat="55.602722" lon="12.996112">
        <ele>11.8182</ele>
        <time>1970-01-01T01:00:00Z</time>
      </trkpt>
      <trkpt lat="55.602768" lon="12.996254">
        <ele>11.6364</ele>
        <time>1970-01-01T01:00:00Z</time>
      </trkpt>
      <trkpt lat="55.602807" lon="12.996385">
        <ele>11.4545</ele>
        <time>1970-01-01T01:00:00Z</time>
      </trkpt>
      <trkpt lat="55.602846" lon="12.996525">
        <ele>11.5455</ele>
        <time>1970-01-01T01:00:00Z</time>
      </trkpt>
      <trkpt lat="55.602876" lon="12.996682">
        <ele>11.6364</ele>
        <time>1970-01-01T01:00:00Z</time>
      </trkpt>
      <trkpt lat="55.602911" lon="12.996811">
        <ele>11.7273</ele>
        <time>1970-01-01T01:00:00Z</time>
      </trkpt>
      <trkpt lat="55.602954" lon="12.996979">
        <ele>11.8182</ele>
        <time>1970-01-01T01:00:00Z</time>
      </trkpt>
      <trkpt lat="55.602995" lon="12.99717">
        <ele>12.1818</ele>
        <time>1970-01-01T01:00:00Z</time>
      </trkpt>
      <trkpt lat="55.603018" lon="12.997313">
        <ele>12.6364</ele>
        <time>1970-01-01T01:00:00Z</time>
      </trkpt>
      <trkpt lat="55.603032" lon="12.997497">
        <ele>13.0909</ele>
        <time>1970-01-01T01:00:00Z</time>
      </trkpt>
      <trkpt lat="55.603024" lon="12.99773">
        <ele>13.5455</ele>
        <time>1970-01-01T01:00:00Z</time>
      </trkpt>
      <trkpt lat="55.603029" lon="12.997985">
        <ele>13.9091</ele>
        <time>1970-01-01T01:00:00Z</time>
      </trkpt>
      <trkpt lat="55.603024" lon="12.99819">
        <ele>14.2727</ele>
        <time>1970-01-01T01:00:00Z</time>
      </trkpt>
      <trkpt lat="55.603031" lon="12.998333">
        <ele>14.6364</ele>
        <time>1970-01-01T01:00:00Z</time>
      </trkpt>
      <trkpt lat="55.603056" lon="12.998485">
        <ele>14.8182</ele>
        <time>1970-01-01T01:00:00Z</time>
      </trkpt>
      <trkpt lat="55.603078" lon="12.998691">
        <ele>15</ele>
        <time>1970-01-01T01:00:00Z</time>
      </trkpt>
      <trkpt lat="55.603094" lon="12.998858">
        <ele>15</ele>
        <time>1970-01-01T01:00:00Z</time>
      </trkpt>
      <trkpt lat="55.603118" lon="12.999016">
        <ele>15</ele>
        <time>1970-01-01T01:00:00Z</time>
      </trkpt>
      <trkpt lat="55.603147" lon="12.999193">
        <ele>14.7273</ele>
        <time>1970-01-01T01:00:00Z</time>
      </trkpt>
      <trkpt lat="55.603168" lon="12.999352">
        <ele>14.4545</ele>
        <time>1970-01-01T01:00:00Z</time>
      </trkpt>
      <trkpt lat="55.603187" lon="12.999522">
        <ele>14.1818</ele>
        <time>1970-01-01T01:00:00Z</time>
      </trkpt>
      <trkpt lat="55.603198" lon="12.999704">
        <ele>13.9091</ele>
        <time>1970-01-01T01:00:00Z</time>
      </trkpt>
      <trkpt lat="55.603246" lon="12.999869">
        <ele>13.7273</ele>
        <time>1970-01-01T01:00:00Z</time>
      </trkpt>
      <trkpt lat="55.6033" lon="13.000045">
        <ele>13.5455</ele>
        <time>1970-01-01T01:00:00Z</time>
      </trkpt>
      <trkpt lat="55.60335" lon="13.000158">
        <ele>13.3636</ele>
        <time>1970-01-01T01:00:00Z</time>
      </trkpt>
      <trkpt lat="55.603418" lon="13.000314">
        <ele>13.0909</ele>
        <time>1970-01-01T01:00:00Z</time>
      </trkpt>
      <trkpt lat="55.60347" lon="13.000477">
        <ele>12.8182</ele>
        <time>1970-01-01T01:00:00Z</time>
      </trkpt>
      <trkpt lat="55.603471" lon="13.000718">
        <ele>12.7273</ele>
        <time>1970-01-01T01:00:00Z</time>
      </trkpt>
      <trkpt lat="55.603462" lon="13.000952">
        <ele>12.6364</ele>
        <time>1970-01-01T01:00:00Z</time>
      </trkpt>
      <trkpt lat="55.603487" lon="13.001092">
        <ele>12.5455</ele>
        <time>1970-01-01T01:00:00Z</time>
      </trkpt>
      <trkpt lat="55.603471" lon="13.001294">
        <ele>12.5455</ele>
        <time>1970-01-01T01:00:00Z</time>
      </trkpt>
      <trkpt lat="55.603498" lon="13.001494">
        <ele>12.5455</ele>
        <time>1970-01-01T01:00:00Z</time>
      </trkpt>
      <trkpt lat="55.603515" lon="13.001645">
        <ele>12.5455</ele>
        <time>1970-01-01T01:00:00Z</time>
      </trkpt>
      <trkpt lat="55.603511" lon="13.001847">
        <ele>12.5455</ele>
        <time>1970-01-01T01:00:00Z</time>
      </trkpt>
      <trkpt lat="55.603538" lon="13.002025">
        <ele>12.5455</ele>
        <time>1970-01-01T01:00:00Z</time>
      </trkpt>
      <trkpt lat="55.603566" lon="13.002177">
        <ele>12.7273</ele>
        <time>1970-01-01T01:00:00Z</time>
      </trkpt>
      <trkpt lat="55.603588" lon="13.002341">
        <ele>13</ele>
        <time>1970-01-01T01:00:00Z</time>
      </trkpt>
      <trkpt lat="55.603609" lon="13.002518">
        <ele>13.2727</ele>
        <time>1970-01-01T01:00:00Z</time>
      </trkpt>
      <trkpt lat="55.603647" lon="13.002713">
        <ele>13.5455</ele>
        <time>1970-01-01T01:00:00Z</time>
      </trkpt>
      <trkpt lat="55.603648" lon="13.0029">
        <ele>13.6364</ele>
        <time>1970-01-01T01:00:00Z</time>
      </trkpt>
      <trkpt lat="55.603586" lon="13.003083">
        <ele>13.7273</ele>
        <time>1970-01-01T01:00:00Z</time>
      </trkpt>
      <trkpt lat="55.603606" lon="13.003286">
        <ele>13.7273</ele>
        <time>1970-01-01T01:00:00Z</time>
      </trkpt>
      <trkpt lat="55.60365" lon="13.003436">
        <ele>13.7273</ele>
        <time>1970-01-01T01:00:00Z</time>
      </trkpt>
      <trkpt lat="55.60372" lon="13.00353">
        <ele>13.7273</ele>
        <time>1970-01-01T01:00:00Z</time>
      </trkpt>
      <trkpt lat="55.603812" lon="13.003607">
        <ele>13.7273</ele>
        <time>1970-01-01T01:00:00Z</time>
      </trkpt>
      <trkpt lat="55.60387" lon="13.003708">
        <ele>13.7273</ele>
        <time>1970-01-01T01:00:00Z</time>
      </trkpt>
      <trkpt lat="55.60393" lon="13.003824">
        <ele>13.5455</ele>
        <time>1970-01-01T01:00:00Z</time>
      </trkpt>
      <trkpt lat="55.60396" lon="13.003959">
        <ele>13.3636</ele>
        <time>1970-01-01T01:00:00Z</time>
      </trkpt>
      <trkpt lat="55.603972" lon="13.004114">
        <ele>13.1818</ele>
        <time>1970-01-01T01:00:00Z</time>
      </trkpt>
      <trkpt lat="55.603954" lon="13.004298">
        <ele>13</ele>
        <time>1970-01-01T01:00:00Z</time>
      </trkpt>
      <trkpt lat="55.603985" lon="13.004473">
        <ele>13</ele>
        <time>1970-01-01T01:00:00Z</time>
      </trkpt>
      <trkpt lat="55.604088" lon="13.004512">
        <ele>13</ele>
        <time>1970-01-01T01:00:00Z</time>
      </trkpt>
      <trkpt lat="55.604186" lon="13.004531">
        <ele>12.9091</ele>
        <time>1970-01-01T01:00:00Z</time>
      </trkpt>
      <trkpt lat="55.604286" lon="13.004523">
        <ele>12.8182</ele>
        <time>1970-01-01T01:00:00Z</time>
      </trkpt>
      <trkpt lat="55.604409" lon="13.004524">
        <ele>12.6364</ele>
        <time>1970-01-01T01:00:00Z</time>
      </trkpt>
      <trkpt lat="55.604516" lon="13.004494">
        <ele>12.4545</ele>
        <time>1970-01-01T01:00:00Z</time>
      </trkpt>
      <trkpt lat="55.604624" lon="13.004522">
        <ele>12.2727</ele>
        <time>1970-01-01T01:00:00Z</time>
      </trkpt>
      <trkpt lat="55.604711" lon="13.004582">
        <ele>12.0909</ele>
        <time>1970-01-01T01:00:00Z</time>
      </trkpt>
      <trkpt lat="55.604771" lon="13.004705">
        <ele>11.9091</ele>
        <time>1970-01-01T01:00:00Z</time>
      </trkpt>
      <trkpt lat="55.604851" lon="13.004813">
        <ele>11.7273</ele>
        <time>1970-01-01T01:00:00Z</time>
      </trkpt>
      <trkpt lat="55.604943" lon="13.004924">
        <ele>11.5455</ele>
        <time>1970-01-01T01:00:00Z</time>
      </trkpt>
      <trkpt lat="55.605029" lon="13.005069">
        <ele>11.3636</ele>
        <time>1970-01-01T01:00:00Z</time>
      </trkpt>
      <trkpt lat="55.605097" lon="13.005177">
        <ele>11.1818</ele>
        <time>1970-01-01T01:00:00Z</time>
      </trkpt>
      <trkpt lat="55.605153" lon="13.005284">
        <ele>11.0909</ele>
        <time>1970-01-01T01:00:00Z</time>
      </trkpt>
      <trkpt lat="55.605217" lon="13.005386">
        <ele>11</ele>
        <time>1970-01-01T01:00:00Z</time>
      </trkpt>
      <trkpt lat="55.605272" lon="13.005511">
        <ele>11</ele>
        <time>1970-01-01T01:00:00Z</time>
      </trkpt>
      <trkpt lat="55.605324" lon="13.00563">
        <ele>11</ele>
        <time>1970-01-01T01:00:00Z</time>
      </trkpt>
      <trkpt lat="55.605402" lon="13.00574">
        <ele>11</ele>
        <time>1970-01-01T01:00:00Z</time>
      </trkpt>
      <trkpt lat="55.605415" lon="13.005884">
        <ele>11</ele>
        <time>1970-01-01T01:00:00Z</time>
      </trkpt>
      <trkpt lat="55.605384" lon="13.006021">
        <ele>11</ele>
        <time>1970-01-01T01:00:00Z</time>
      </trkpt>
      <trkpt lat="55.60543" lon="13.006213">
        <ele>11</ele>
        <time>1970-01-01T01:00:00Z</time>
      </trkpt>
      <trkpt lat="55.605449" lon="13.006379">
        <ele>11</ele>
        <time>1970-01-01T01:00:00Z</time>
      </trkpt>
      <trkpt lat="55.605463" lon="13.006546">
        <ele>11</ele>
        <time>1970-01-01T01:00:00Z</time>
      </trkpt>
      <trkpt lat="55.605465" lon="13.006706">
        <ele>11</ele>
        <time>1970-01-01T01:00:00Z</time>
      </trkpt>
      <trkpt lat="55.605454" lon="13.006852">
        <ele>11</ele>
        <time>1970-01-01T01:00:00Z</time>
      </trkpt>
      <trkpt lat="55.605463" lon="13.007092">
        <ele>11</ele>
        <time>1970-01-01T01:00:00Z</time>
      </trkpt>
      <trkpt lat="55.605496" lon="13.007275">
        <ele>11</ele>
        <time>1970-01-01T01:00:00Z</time>
      </trkpt>
      <trkpt lat="55.605524" lon="13.00745">
        <ele>11</ele>
        <time>1970-01-01T01:00:00Z</time>
      </trkpt>
      <trkpt lat="55.605594" lon="13.007586">
        <ele>11</ele>
        <time>1970-01-01T01:00:00Z</time>
      </trkpt>
      <trkpt lat="55.605648" lon="13.007709">
        <ele>11</ele>
        <time>1970-01-01T01:00:00Z</time>
      </trkpt>
      <trkpt lat="55.605665" lon="13.007866">
        <ele>11</ele>
        <time>1970-01-01T01:00:00Z</time>
      </trkpt>
      <trkpt lat="55.605688" lon="13.008015">
        <ele>10.8182</ele>
        <time>1970-01-01T01:00:00Z</time>
      </trkpt>
      <trkpt lat="55.605753" lon="13.008121">
        <ele>10.6364</ele>
        <time>1970-01-01T01:00:00Z</time>
      </trkpt>
      <trkpt lat="55.605798" lon="13.008281">
        <ele>10.4545</ele>
        <time>1970-01-01T01:00:00Z</time>
      </trkpt>
      <trkpt lat="55.605729" lon="13.008373">
        <ele>10.2727</ele>
        <time>1970-01-01T01:00:00Z</time>
      </trkpt>
      <trkpt lat="55.605646" lon="13.008444">
        <ele>10.0909</ele>
        <time>1970-01-01T01:00:00Z</time>
      </trkpt>
      <trkpt lat="55.605697" lon="13.008855">
        <ele>9.90909</ele>
        <time>1970-01-01T01:00:00Z</time>
      </trkpt>
      <trkpt lat="55.605755" lon="13.008969">
        <ele>9.72727</ele>
        <time>1970-01-01T01:00:00Z</time>
      </trkpt>
      <trkpt lat="55.605784" lon="13.009115">
        <ele>9.54545</ele>
        <time>1970-01-01T01:00:00Z</time>
      </trkpt>
      <trkpt lat="55.605865" lon="13.009155">
        <ele>9.36364</ele>
        <time>1970-01-01T01:00:00Z</time>
      </trkpt>
      <trkpt lat="55.605964" lon="13.009202">
        <ele>9.27273</ele>
        <time>1970-01-01T01:00:00Z</time>
      </trkpt>
      <trkpt lat="55.606051" lon="13.009169">
        <ele>9.18182</ele>
        <time>1970-01-01T01:00:00Z</time>
      </trkpt>
      <trkpt lat="55.606142" lon="13.009053">
        <ele>9.27273</ele>
        <time>1970-01-01T01:00:00Z</time>
      </trkpt>
      <trkpt lat="55.606222" lon="13.008929">
        <ele>9.36364</ele>
        <time>1970-01-01T01:00:00Z</time>
      </trkpt>
      <trkpt lat="55.606285" lon="13.008832">
        <ele>9.45455</ele>
        <time>1970-01-01T01:00:00Z</time>
      </trkpt>
      <trkpt lat="55.606379" lon="13.008727">
        <ele>9.54545</ele>
        <time>1970-01-01T01:00:00Z</time>
      </trkpt>
      <trkpt lat="55.60647" lon="13.008626">
        <ele>9.6</ele>
        <time>1970-01-01T01:00:00Z</time>
      </trkpt>
      <trkpt lat="55.606583" lon="13.00859">
        <ele>9.66667</ele>
        <time>1970-01-01T01:00:00Z</time>
      </trkpt>
      <trkpt lat="55.606672" lon="13.008588">
        <ele>9.75</ele>
        <time>1970-01-01T01:00:00Z</time>
      </trkpt>
      <trkpt lat="55.606757" lon="13.00862">
        <ele>9.85714</ele>
        <time>1970-01-01T01:00:00Z</time>
      </trkpt>
      <trkpt lat="55.606821" lon="13.008597">
        <ele>10</ele>
        <time>1970-01-01T01:00:00Z</time>
      </trkpt>
      <trkpt lat="55.606737" lon="13.008639">
        <ele>9.85714</ele>
        <time>1970-01-01T01:00:00Z</time>
      </trkpt>
      <trkpt lat="55.606633" lon="13.008662">
        <ele>9.75</ele>
        <time>1970-01-01T01:00:00Z</time>
      </trkpt>
      <trkpt lat="55.606548" lon="13.008665">
        <ele>9.66667</ele>
        <time>1970-01-01T01:00:00Z</time>
      </trkpt>
      <trkpt lat="55.606466" lon="13.008655">
        <ele>9.6</ele>
        <time>1970-01-01T01:00:00Z</time>
      </trkpt>
      <trkpt lat="55.606373" lon="13.008691">
        <ele>9.54545</ele>
        <time>1970-01-01T01:00:00Z</time>
      </trkpt>
      <trkpt lat="55.60639" lon="13.008859">
        <ele>9.36364</ele>
        <time>1970-01-01T01:00:00Z</time>
      </trkpt>
      <trkpt lat="55.60641" lon="13.00901">
        <ele>9.18182</ele>
        <time>1970-01-01T01:00:00Z</time>
      </trkpt>
      <trkpt lat="55.606451" lon="13.009204">
        <ele>9</ele>
        <time>1970-01-01T01:00:00Z</time>
      </trkpt>
      <trkpt lat="55.606494" lon="13.009327">
        <ele>8.81818</ele>
        <time>1970-01-01T01:00:00Z</time>
      </trkpt>
      <trkpt lat="55.606546" lon="13.009502">
        <ele>8.63636</ele>
        <time>1970-01-01T01:00:00Z</time>
      </trkpt>
      <trkpt lat="55.606538" lon="13.009701">
        <ele>8.45455</ele>
        <time>1970-01-01T01:00:00Z</time>
      </trkpt>
      <trkpt lat="55.606515" lon="13.009897">
        <ele>8.36364</ele>
        <time>1970-01-01T01:00:00Z</time>
      </trkpt>
      <trkpt lat="55.606488" lon="13.010055">
        <ele>8.27273</ele>
        <time>1970-01-01T01:00:00Z</time>
      </trkpt>
      <trkpt lat="55.606519" lon="13.0102">
        <ele>8.18182</ele>
        <time>1970-01-01T01:00:00Z</time>
      </trkpt>
      <trkpt lat="55.606549" lon="13.010342">
        <ele>8.09091</ele>
        <time>1970-01-01T01:00:00Z</time>
      </trkpt>
      <trkpt lat="55.606528" lon="13.010495">
        <ele>8</ele>
        <time>1970-01-01T01:00:00Z</time>
      </trkpt>
      <trkpt lat="55.606616" lon="13.010557">
        <ele>8</ele>
        <time>1970-01-01T01:00:00Z</time>
      </trkpt>
      <trkpt lat="55.606699" lon="13.010577">
        <ele>8</ele>
        <time>1970-01-01T01:00:00Z</time>
      </trkpt>
      <trkpt lat="55.60678" lon="13.010629">
        <ele>8.09091</ele>
        <time>1970-01-01T01:00:00Z</time>
      </trkpt>
      <trkpt lat="55.606867" lon="13.010694">
        <ele>8.09091</ele>
        <time>1970-01-01T01:00:00Z</time>
      </trkpt>
      <trkpt lat="55.607236" lon="13.011403">
        <ele>8.09091</ele>
        <time>1970-01-01T01:00:00Z</time>
      </trkpt>
      <trkpt lat="55.607243" lon="13.011616">
        <ele>8.09091</ele>
        <time>1970-01-01T01:00:00Z</time>
      </trkpt>
      <trkpt lat="55.607172" lon="13.011765">
        <ele>8.09091</ele>
        <time>1970-01-01T01:00:00Z</time>
      </trkpt>
      <trkpt lat="55.6071" lon="13.011957">
        <ele>8.09091</ele>
        <time>1970-01-01T01:00:00Z</time>
      </trkpt>
      <trkpt lat="55.60704" lon="13.01211">
        <ele>8</ele>
        <time>1970-01-01T01:00:00Z</time>
      </trkpt>
      <trkpt lat="55.606958" lon="13.012278">
        <ele>7.90909</ele>
        <time>1970-01-01T01:00:00Z</time>
      </trkpt>
      <trkpt lat="55.606889" lon="13.01239">
        <ele>7.81818</ele>
        <time>1970-01-01T01:00:00Z</time>
      </trkpt>
      <trkpt lat="55.606806" lon="13.012503">
        <ele>7.72727</ele>
        <time>1970-01-01T01:00:00Z</time>
      </trkpt>
      <trkpt lat="55.606657" lon="13.012975">
        <ele>7.45455</ele>
        <time>1970-01-01T01:00:00Z</time>
      </trkpt>
      <trkpt lat="55.606543" lon="13.013113">
        <ele>7.36364</ele>
        <time>1970-01-01T01:00:00Z</time>
      </trkpt>
      <trkpt lat="55.606487" lon="13.013226">
        <ele>7.18182</ele>
        <time>1970-01-01T01:00:00Z</time>
      </trkpt>
      <trkpt lat="55.60641" lon="13.013291">
        <ele>7</ele>
        <time>1970-01-01T01:00:00Z</time>
      </trkpt>
      <trkpt lat="55.606317" lon="13.013354">
        <ele>6.81818</ele>
        <time>1970-01-01T01:00:00Z</time>
      </trkpt>
      <trkpt lat="55.606405" lon="13.013415">
        <ele>6.63636</ele>
        <time>1970-01-01T01:00:00Z</time>
      </trkpt>
      <trkpt lat="55.606457" lon="13.013545">
        <ele>6.54545</ele>
        <time>1970-01-01T01:00:00Z</time>
      </trkpt>
      <trkpt lat="55.606473" lon="13.013755">
        <ele>6.36364</ele>
        <time>1970-01-01T01:00:00Z</time>
      </trkpt>
      <trkpt lat="55.606483" lon="13.013915">
        <ele>6.09091</ele>
        <time>1970-01-01T01:00:00Z</time>
      </trkpt>
      <trkpt lat="55.60645" lon="13.014107">
        <ele>5.81818</ele>
        <time>1970-01-01T01:00:00Z</time>
      </trkpt>
      <trkpt lat="55.606415" lon="13.014254">
        <ele>5.54545</ele>
        <time>1970-01-01T01:00:00Z</time>
      </trkpt>
      <trkpt lat="55.606316" lon="13.01449">
        <ele>5.27273</ele>
        <time>1970-01-01T01:00:00Z</time>
      </trkpt>
      <trkpt lat="55.606127" lon="13.01474">
        <ele>4.81818</ele>
        <time>1970-01-01T01:00:00Z</time>
      </trkpt>
      <trkpt lat="55.606029" lon="13.014835">
        <ele>4.63636</ele>
        <time>1970-01-01T01:00:00Z</time>
      </trkpt>
      <trkpt lat="55.60594" lon="13.014923">
        <ele>4.45455</ele>
        <time>1970-01-01T01:00:00Z</time>
      </trkpt>
      <trkpt lat="55.605871" lon="13.015006">
        <ele>4.27273</ele>
        <time>1970-01-01T01:00:00Z</time>
      </trkpt>
      <trkpt lat="55.605803" lon="13.015116">
        <ele>4.09091</ele>
        <time>1970-01-01T01:00:00Z</time>
      </trkpt>
      <trkpt lat="55.605756" lon="13.015262">
        <ele>4</ele>
        <time>1970-01-01T01:00:00Z</time>
      </trkpt>
      <trkpt lat="55.605678" lon="13.015323">
        <ele>4.09091</ele>
        <time>1970-01-01T01:00:00Z</time>
      </trkpt>
      <trkpt lat="55.605594" lon="13.015377">
        <ele>4.18182</ele>
        <time>1970-01-01T01:00:00Z</time>
      </trkpt>
      <trkpt lat="55.605494" lon="13.015416">
        <ele>4.27273</ele>
        <time>1970-01-01T01:00:00Z</time>
      </trkpt>
      <trkpt lat="55.605378" lon="13.015465">
        <ele>4.36364</ele>
        <time>1970-01-01T01:00:00Z</time>
      </trkpt>
      <trkpt lat="55.605267" lon="13.015509">
        <ele>4.45455</ele>
        <time>1970-01-01T01:00:00Z</time>
      </trkpt>
      <trkpt lat="55.605176" lon="13.015588">
        <ele>4.54545</ele>
        <time>1970-01-01T01:00:00Z</time>
      </trkpt>
      <trkpt lat="55.605098" lon="13.015652">
        <ele>4.63636</ele>
        <time>1970-01-01T01:00:00Z</time>
      </trkpt>
      <trkpt lat="55.605003" lon="13.015739">
        <ele>4.72727</ele>
        <time>1970-01-01T01:00:00Z</time>
      </trkpt>
      <trkpt lat="55.604906" lon="13.015837">
        <ele>4.81818</ele>
        <time>1970-01-01T01:00:00Z</time>
      </trkpt>
      <trkpt lat="55.604817" lon="13.01592">
        <ele>4.90909</ele>
        <time>1970-01-01T01:00:00Z</time>
      </trkpt>
      <trkpt lat="55.604722" lon="13.016003">
        <ele>4.90909</ele>
        <time>1970-01-01T01:00:00Z</time>
      </trkpt>
      <trkpt lat="55.604642" lon="13.016088">
        <ele>4.81818</ele>
        <time>1970-01-01T01:00:00Z</time>
      </trkpt>
      <trkpt lat="55.604561" lon="13.016156">
        <ele>4.72727</ele>
        <time>1970-01-01T01:00:00Z</time>
      </trkpt>
      <trkpt lat="55.604483" lon="13.016216">
        <ele>4.63636</ele>
        <time>1970-01-01T01:00:00Z</time>
      </trkpt>
      <trkpt lat="55.604385" lon="13.016322">
        <ele>4.54545</ele>
        <time>1970-01-01T01:00:00Z</time>
      </trkpt>
      <trkpt lat="55.604284" lon="13.016403">
        <ele>4.45455</ele>
        <time>1970-01-01T01:00:00Z</time>
      </trkpt>
      <trkpt lat="55.604199" lon="13.016497">
        <ele>4.36364</ele>
        <time>1970-01-01T01:00:00Z</time>
      </trkpt>
      <trkpt lat="55.604107" lon="13.016607">
        <ele>4.45455</ele>
        <time>1970-01-01T01:00:00Z</time>
      </trkpt>
      <trkpt lat="55.604028" lon="13.016679">
        <ele>4.54545</ele>
        <time>1970-01-01T01:00:00Z</time>
      </trkpt>
      <trkpt lat="55.60395" lon="13.016778">
        <ele>4.72727</ele>
        <time>1970-01-01T01:00:00Z</time>
      </trkpt>
      <trkpt lat="55.603877" lon="13.016869">
        <ele>4.90909</ele>
        <time>1970-01-01T01:00:00Z</time>
      </trkpt>
      <trkpt lat="55.603783" lon="13.016943">
        <ele>5.18182</ele>
        <time>1970-01-01T01:00:00Z</time>
      </trkpt>
      <trkpt lat="55.603702" lon="13.017041">
        <ele>5.45455</ele>
        <time>1970-01-01T01:00:00Z</time>
      </trkpt>
      <trkpt lat="55.60363" lon="13.01711">
        <ele>5.72727</ele>
        <time>1970-01-01T01:00:00Z</time>
      </trkpt>
      <trkpt lat="55.603561" lon="13.017189">
        <ele>6</ele>
        <time>1970-01-01T01:00:00Z</time>
      </trkpt>
      <trkpt lat="55.603505" lon="13.017322">
        <ele>6.27273</ele>
        <time>1970-01-01T01:00:00Z</time>
      </trkpt>
      <trkpt lat="55.603438" lon="13.017434">
        <ele>6.54545</ele>
        <time>1970-01-01T01:00:00Z</time>
      </trkpt>
      <trkpt lat="55.603351" lon="13.017498">
        <ele>6.81818</ele>
        <time>1970-01-01T01:00:00Z</time>
      </trkpt>
      <trkpt lat="55.603274" lon="13.017571">
        <ele>7.09091</ele>
        <time>1970-01-01T01:00:00Z</time>
      </trkpt>
      <trkpt lat="55.603212" lon="13.017698">
        <ele>7.27273</ele>
        <time>1970-01-01T01:00:00Z</time>
      </trkpt>
      <trkpt lat="55.603148" lon="13.017813">
        <ele>7.36364</ele>
        <time>1970-01-01T01:00:00Z</time>
      </trkpt>
      <trkpt lat="55.603069" lon="13.017904">
        <ele>7.45455</ele>
        <time>1970-01-01T01:00:00Z</time>
      </trkpt>
      <trkpt lat="55.602986" lon="13.017961">
        <ele>7.54545</ele>
        <time>1970-01-01T01:00:00Z</time>
      </trkpt>
      <trkpt lat="55.602903" lon="13.017982">
        <ele>7.63636</ele>
        <time>1970-01-01T01:00:00Z</time>
      </trkpt>
      <trkpt lat="55.602814" lon="13.018083">
        <ele>7.63636</ele>
        <time>1970-01-01T01:00:00Z</time>
      </trkpt>
      <trkpt lat="55.60278" lon="13.018217">
        <ele>7.63636</ele>
        <time>1970-01-01T01:00:00Z</time>
      </trkpt>
      <trkpt lat="55.602781" lon="13.01836">
        <ele>7.63636</ele>
        <time>1970-01-01T01:00:00Z</time>
      </trkpt>
      <trkpt lat="55.602743" lon="13.018492">
        <ele>7.63636</ele>
        <time>1970-01-01T01:00:00Z</time>
      </trkpt>
      <trkpt lat="55.602681" lon="13.018695">
        <ele>7.63636</ele>
        <time>1970-01-01T01:00:00Z</time>
      </trkpt>
      <trkpt lat="55.602614" lon="13.018832">
        <ele>7.45455</ele>
        <time>1970-01-01T01:00:00Z</time>
      </trkpt>
      <trkpt lat="55.602531" lon="13.018914">
        <ele>7.27273</ele>
        <time>1970-01-01T01:00:00Z</time>
      </trkpt>
      <trkpt lat="55.602432" lon="13.018955">
        <ele>7.09091</ele>
        <time>1970-01-01T01:00:00Z</time>
      </trkpt>
      <trkpt lat="55.602356" lon="13.019022">
        <ele>6.90909</ele>
        <time>1970-01-01T01:00:00Z</time>
      </trkpt>
      <trkpt lat="55.602251" lon="13.019115">
        <ele>6.72727</ele>
        <time>1970-01-01T01:00:00Z</time>
      </trkpt>
      <trkpt lat="55.60218" lon="13.019189">
        <ele>6.54545</ele>
        <time>1970-01-01T01:00:00Z</time>
      </trkpt>
      <trkpt lat="55.602092" lon="13.019249">
        <ele>6.45455</ele>
        <time>1970-01-01T01:00:00Z</time>
      </trkpt>
      <trkpt lat="55.602019" lon="13.019354">
        <ele>6.36364</ele>
        <time>1970-01-01T01:00:00Z</time>
      </trkpt>
      <trkpt lat="55.601939" lon="13.019463">
        <ele>6.27273</ele>
        <time>1970-01-01T01:00:00Z</time>
      </trkpt>
      <trkpt lat="55.60187" lon="13.019567">
        <ele>6.18182</ele>
        <time>1970-01-01T01:00:00Z</time>
      </trkpt>
      <trkpt lat="55.601784" lon="13.019681">
        <ele>6.09091</ele>
        <time>1970-01-01T01:00:00Z</time>
      </trkpt>
      <trkpt lat="55.601711" lon="13.019747">
        <ele>5.72727</ele>
        <time>1970-01-01T01:00:00Z</time>
      </trkpt>
      <trkpt lat="55.601617" lon="13.019839">
        <ele>5.45455</ele>
        <time>1970-01-01T01:00:00Z</time>
      </trkpt>
      <trkpt lat="55.601513" lon="13.019949">
        <ele>5.18182</ele>
        <time>1970-01-01T01:00:00Z</time>
      </trkpt>
      <trkpt lat="55.601444" lon="13.020026">
        <ele>4.90909</ele>
        <time>1970-01-01T01:00:00Z</time>
      </trkpt>
      <trkpt lat="55.601332" lon="13.020122">
        <ele>4.63636</ele>
        <time>1970-01-01T01:00:00Z</time>
      </trkpt>
      <trkpt lat="55.601254" lon="13.020182">
        <ele>4.36364</ele>
        <time>1970-01-01T01:00:00Z</time>
      </trkpt>
      <trkpt lat="55.601157" lon="13.020262">
        <ele>4.09091</ele>
        <time>1970-01-01T01:00:00Z</time>
      </trkpt>
      <trkpt lat="55.60106" lon="13.02035">
        <ele>3.81818</ele>
        <time>1970-01-01T01:00:00Z</time>
      </trkpt>
      <trkpt lat="55.600972" lon="13.020454">
        <ele>3.54545</ele>
        <time>1970-01-01T01:00:00Z</time>
      </trkpt>
      <trkpt lat="55.600888" lon="13.02055">
        <ele>3.27273</ele>
        <time>1970-01-01T01:00:00Z</time>
      </trkpt>
      <trkpt lat="55.600797" lon="13.020655">
        <ele>3.09091</ele>
        <time>1970-01-01T01:00:00Z</time>
      </trkpt>
      <trkpt lat="55.600712" lon="13.020782">
        <ele>3.18182</ele>
        <time>1970-01-01T01:00:00Z</time>
      </trkpt>
      <trkpt lat="55.600639" lon="13.020919">
        <ele>3.27273</ele>
        <time>1970-01-01T01:00:00Z</time>
      </trkpt>
      <trkpt lat="55.600575" lon="13.021046">
        <ele>3.36364</ele>
        <time>1970-01-01T01:00:00Z</time>
      </trkpt>
      <trkpt lat="55.600506" lon="13.021176">
        <ele>3.45455</ele>
        <time>1970-01-01T01:00:00Z</time>
      </trkpt>
      <trkpt lat="55.600444" lon="13.021315">
        <ele>3.54545</ele>
        <time>1970-01-01T01:00:00Z</time>
      </trkpt>
      <trkpt lat="55.600395" lon="13.021477">
        <ele>3.63636</ele>
        <time>1970-01-01T01:00:00Z</time>
      </trkpt>
      <trkpt lat="55.600348" lon="13.021644">
        <ele>3.72727</ele>
        <time>1970-01-01T01:00:00Z</time>
      </trkpt>
      <trkpt lat="55.600304" lon="13.021811">
        <ele>3.81818</ele>
        <time>1970-01-01T01:00:00Z</time>
      </trkpt>
      <trkpt lat="55.600258" lon="13.021973">
        <ele>3.90909</ele>
        <time>1970-01-01T01:00:00Z</time>
      </trkpt>
      <trkpt lat="55.600204" lon="13.022152">
        <ele>4</ele>
        <time>1970-01-01T01:00:00Z</time>
      </trkpt>
      <trkpt lat="55.600162" lon="13.022304">
        <ele>4</ele>
        <time>1970-01-01T01:00:00Z</time>
      </trkpt>
      <trkpt lat="55.600137" lon="13.022453">
        <ele>4</ele>
        <time>1970-01-01T01:00:00Z</time>
      </trkpt>
      <trkpt lat="55.600095" lon="13.022626">
        <ele>4</ele>
        <time>1970-01-01T01:00:00Z</time>
      </trkpt>
      <trkpt lat="55.600056" lon="13.022791">
        <ele>4</ele>
        <time>1970-01-01T01:00:00Z</time>
      </trkpt>
      <trkpt lat="55.600007" lon="13.022963">
        <ele>4.09091</ele>
        <time>1970-01-01T01:00:00Z</time>
      </trkpt>
      <trkpt lat="55.599966" lon="13.023124">
        <ele>4.18182</ele>
        <time>1970-01-01T01:00:00Z</time>
      </trkpt>
      <trkpt lat="55.59993" lon="13.023287">
        <ele>4.27273</ele>
        <time>1970-01-01T01:00:00Z</time>
      </trkpt>
      <trkpt lat="55.599902" lon="13.023447">
        <ele>4.36364</ele>
        <time>1970-01-01T01:00:00Z</time>
      </trkpt>
      <trkpt lat="55.599859" lon="13.023616">
        <ele>4.45455</ele>
        <time>1970-01-01T01:00:00Z</time>
      </trkpt>
      <trkpt lat="55.59982" lon="13.023791">
        <ele>4.63636</ele>
        <time>1970-01-01T01:00:00Z</time>
      </trkpt>
      <trkpt lat="55.599782" lon="13.023967">
        <ele>4.90909</ele>
        <time>1970-01-01T01:00:00Z</time>
      </trkpt>
      <trkpt lat="55.59974" lon="13.024137">
        <ele>5.18182</ele>
        <time>1970-01-01T01:00:00Z</time>
      </trkpt>
      <trkpt lat="55.599696" lon="13.024283">
        <ele>5.45455</ele>
        <time>1970-01-01T01:00:00Z</time>
      </trkpt>
      <trkpt lat="55.599656" lon="13.024429">
        <ele>5.72727</ele>
        <time>1970-01-01T01:00:00Z</time>
      </trkpt>
      <trkpt lat="55.599622" lon="13.024582">
        <ele>6</ele>
        <time>1970-01-01T01:00:00Z</time>
      </trkpt>
      <trkpt lat="55.599583" lon="13.024758">
        <ele>6.18182</ele>
        <time>1970-01-01T01:00:00Z</time>
      </trkpt>
      <trkpt lat="55.599556" lon="13.024911">
        <ele>6.36364</ele>
        <time>1970-01-01T01:00:00Z</time>
      </trkpt>
      <trkpt lat="55.599563" lon="13.025055">
        <ele>6.54545</ele>
        <time>1970-01-01T01:00:00Z</time>
      </trkpt>
      <trkpt lat="55.599527" lon="13.025193">
        <ele>6.72727</ele>
        <time>1970-01-01T01:00:00Z</time>
      </trkpt>
      <trkpt lat="55.59947" lon="13.025341">
        <ele>6.90909</ele>
        <time>1970-01-01T01:00:00Z</time>
      </trkpt>
      <trkpt lat="55.599422" lon="13.02547">
        <ele>7</ele>
        <time>1970-01-01T01:00:00Z</time>
      </trkpt>
      <trkpt lat="55.599375" lon="13.0256">
        <ele>7</ele>
        <time>1970-01-01T01:00:00Z</time>
      </trkpt>
      <trkpt lat="55.599335" lon="13.02575">
        <ele>6.90909</ele>
        <time>1970-01-01T01:00:00Z</time>
      </trkpt>
      <trkpt lat="55.599295" lon="13.025897">
        <ele>6.81818</ele>
        <time>1970-01-01T01:00:00Z</time>
      </trkpt>
      <trkpt lat="55.599261" lon="13.02605">
        <ele>6.72727</ele>
        <time>1970-01-01T01:00:00Z</time>
      </trkpt>
      <trkpt lat="55.599226" lon="13.026206">
        <ele>6.63636</ele>
        <time>1970-01-01T01:00:00Z</time>
      </trkpt>
      <trkpt lat="55.599194" lon="13.026354">
        <ele>6.54545</ele>
        <time>1970-01-01T01:00:00Z</time>
      </trkpt>
      <trkpt lat="55.599153" lon="13.026522">
        <ele>6.45455</ele>
        <time>1970-01-01T01:00:00Z</time>
      </trkpt>
      <trkpt lat="55.599109" lon="13.026695">
        <ele>6.36364</ele>
        <time>1970-01-01T01:00:00Z</time>
      </trkpt>
      <trkpt lat="55.599069" lon="13.026869">
        <ele>6.27273</ele>
        <time>1970-01-01T01:00:00Z</time>
      </trkpt>
      <trkpt lat="55.599031" lon="13.027044">
        <ele>6.18182</ele>
        <time>1970-01-01T01:00:00Z</time>
      </trkpt>
      <trkpt lat="55.598998" lon="13.027191">
        <ele>6.09091</ele>
        <time>1970-01-01T01:00:00Z</time>
      </trkpt>
      <trkpt lat="55.598964" lon="13.02733">
        <ele>6</ele>
        <time>1970-01-01T01:00:00Z</time>
      </trkpt>
      <trkpt lat="55.598929" lon="13.027477">
        <ele>6</ele>
        <time>1970-01-01T01:00:00Z</time>
      </trkpt>
      <trkpt lat="55.598894" lon="13.02761">
        <ele>6.18182</ele>
        <time>1970-01-01T01:00:00Z</time>
      </trkpt>
      <trkpt lat="55.598852" lon="13.027786">
        <ele>6.36364</ele>
        <time>1970-01-01T01:00:00Z</time>
      </trkpt>
      <trkpt lat="55.598818" lon="13.027926">
        <ele>6.54545</ele>
        <time>1970-01-01T01:00:00Z</time>
      </trkpt>
      <trkpt lat="55.598788" lon="13.02806">
        <ele>6.72727</ele>
        <time>1970-01-01T01:00:00Z</time>
      </trkpt>
      <trkpt lat="55.598762" lon="13.028197">
        <ele>6.90909</ele>
        <time>1970-01-01T01:00:00Z</time>
      </trkpt>
      <trkpt lat="55.598717" lon="13.028358">
        <ele>7.09091</ele>
        <time>1970-01-01T01:00:00Z</time>
      </trkpt>
      <trkpt lat="55.598672" lon="13.028525">
        <ele>7.27273</ele>
        <time>1970-01-01T01:00:00Z</time>
      </trkpt>
      <trkpt lat="55.598623" lon="13.028712">
        <ele>7.45455</ele>
        <time>1970-01-01T01:00:00Z</time>
      </trkpt>
      <trkpt lat="55.598571" lon="13.028899">
        <ele>7.54545</ele>
        <time>1970-01-01T01:00:00Z</time>
      </trkpt>
      <trkpt lat="55.598537" lon="13.029037">
        <ele>7.63636</ele>
        <time>1970-01-01T01:00:00Z</time>
      </trkpt>
      <trkpt lat="55.598494" lon="13.029165">
        <ele>7.72727</ele>
        <time>1970-01-01T01:00:00Z</time>
      </trkpt>
      <trkpt lat="55.598456" lon="13.029362">
        <ele>7.63636</ele>
        <time>1970-01-01T01:00:00Z</time>
      </trkpt>
      <trkpt lat="55.598423" lon="13.029548">
        <ele>7.54545</ele>
        <time>1970-01-01T01:00:00Z</time>
      </trkpt>
      <trkpt lat="55.598401" lon="13.029688">
        <ele>7.45455</ele>
        <time>1970-01-01T01:00:00Z</time>
      </trkpt>
      <trkpt lat="55.598367" lon="13.029827">
        <ele>7.36364</ele>
        <time>1970-01-01T01:00:00Z</time>
      </trkpt>
      <trkpt lat="55.598356" lon="13.02998">
        <ele>7.27273</ele>
        <time>1970-01-01T01:00:00Z</time>
      </trkpt>
      <trkpt lat="55.59838" lon="13.030121">
        <ele>7.18182</ele>
        <time>1970-01-01T01:00:00Z</time>
      </trkpt>
      <trkpt lat="55.598334" lon="13.030242">
        <ele>7.09091</ele>
        <time>1970-01-01T01:00:00Z</time>
      </trkpt>
      <trkpt lat="55.598271" lon="13.030356">
        <ele>7</ele>
        <time>1970-01-01T01:00:00Z</time>
      </trkpt>
      <trkpt lat="55.598211" lon="13.030459">
        <ele>7</ele>
        <time>1970-01-01T01:00:00Z</time>
      </trkpt>
      <trkpt lat="55.598177" lon="13.030607">
        <ele>7.09091</ele>
        <time>1970-01-01T01:00:00Z</time>
      </trkpt>
      <trkpt lat="55.598151" lon="13.030787">
        <ele>7.18182</ele>
        <time>1970-01-01T01:00:00Z</time>
      </trkpt>
      <trkpt lat="55.598117" lon="13.030918">
        <ele>7.36364</ele>
        <time>1970-01-01T01:00:00Z</time>
      </trkpt>
      <trkpt lat="55.598077" lon="13.031083">
        <ele>7.54545</ele>
        <time>1970-01-01T01:00:00Z</time>
      </trkpt>
      <trkpt lat="55.598" lon="13.031215">
        <ele>7.72727</ele>
        <time>1970-01-01T01:00:00Z</time>
      </trkpt>
      <trkpt lat="55.597954" lon="13.031386">
        <ele>7.90909</ele>
        <time>1970-01-01T01:00:00Z</time>
      </trkpt>
      <trkpt lat="55.597945" lon="13.031568">
        <ele>8.09091</ele>
        <time>1970-01-01T01:00:00Z</time>
      </trkpt>
      <trkpt lat="55.597917" lon="13.031765">
        <ele>8.27273</ele>
        <time>1970-01-01T01:00:00Z</time>
      </trkpt>
      <trkpt lat="55.597892" lon="13.031925">
        <ele>8.45455</ele>
        <time>1970-01-01T01:00:00Z</time>
      </trkpt>
      <trkpt lat="55.597852" lon="13.032107">
        <ele>8.54545</ele>
        <time>1970-01-01T01:00:00Z</time>
      </trkpt>
      <trkpt lat="55.597819" lon="13.032241">
        <ele>8.63636</ele>
        <time>1970-01-01T01:00:00Z</time>
      </trkpt>
      <trkpt lat="55.597767" lon="13.032428">
        <ele>8.63636</ele>
        <time>1970-01-01T01:00:00Z</time>
      </trkpt>
      <trkpt lat="55.59772" lon="13.032613">
        <ele>8.63636</ele>
        <time>1970-01-01T01:00:00Z</time>
      </trkpt>
      <trkpt lat="55.597684" lon="13.032808">
        <ele>8.54545</ele>
        <time>1970-01-01T01:00:00Z</time>
      </trkpt>
      <trkpt lat="55.597637" lon="13.032995">
        <ele>8.45455</ele>
        <time>1970-01-01T01:00:00Z</time>
      </trkpt>
      <trkpt lat="55.59759" lon="13.033165">
        <ele>8.36364</ele>
        <time>1970-01-01T01:00:00Z</time>
      </trkpt>
      <trkpt lat="55.597546" lon="13.033319">
        <ele>8.27273</ele>
        <time>1970-01-01T01:00:00Z</time>
      </trkpt>
      <trkpt lat="55.597511" lon="13.033476">
        <ele>8.18182</ele>
        <time>1970-01-01T01:00:00Z</time>
      </trkpt>
      <trkpt lat="55.597476" lon="13.033621">
        <ele>8.18182</ele>
        <time>1970-01-01T01:00:00Z</time>
      </trkpt>
      <trkpt lat="55.597448" lon="13.033825">
        <ele>8.18182</ele>
        <time>1970-01-01T01:00:00Z</time>
      </trkpt>
      <trkpt lat="55.597404" lon="13.034044">
        <ele>8.27273</ele>
        <time>1970-01-01T01:00:00Z</time>
      </trkpt>
      <trkpt lat="55.597355" lon="13.034279">
        <ele>8.36364</ele>
        <time>1970-01-01T01:00:00Z</time>
      </trkpt>
      <trkpt lat="55.5973" lon="13.034515">
        <ele>8.45455</ele>
        <time>1970-01-01T01:00:00Z</time>
      </trkpt>
      <trkpt lat="55.59724" lon="13.034733">
        <ele>8.54545</ele>
        <time>1970-01-01T01:00:00Z</time>
      </trkpt>
      <trkpt lat="55.597184" lon="13.034931">
        <ele>8.63636</ele>
        <time>1970-01-01T01:00:00Z</time>
      </trkpt>
      <trkpt lat="55.597138" lon="13.035114">
        <ele>8.72727</ele>
        <time>1970-01-01T01:00:00Z</time>
      </trkpt>
      <trkpt lat="55.597103" lon="13.035284">
        <ele>8.81818</ele>
        <time>1970-01-01T01:00:00Z</time>
      </trkpt>
      <trkpt lat="55.597072" lon="13.035476">
        <ele>8.90909</ele>
        <time>1970-01-01T01:00:00Z</time>
      </trkpt>
      <trkpt lat="55.597034" lon="13.035606">
        <ele>9</ele>
        <time>1970-01-01T01:00:00Z</time>
      </trkpt>
      <trkpt lat="55.597004" lon="13.035739">
        <ele>9.09091</ele>
        <time>1970-01-01T01:00:00Z</time>
      </trkpt>
      <trkpt lat="55.596967" lon="13.035877">
        <ele>9.18182</ele>
        <time>1970-01-01T01:00:00Z</time>
      </trkpt>
      <trkpt lat="55.596928" lon="13.03603">
        <ele>9.27273</ele>
        <time>1970-01-01T01:00:00Z</time>
      </trkpt>
      <trkpt lat="55.596891" lon="13.036168">
        <ele>9.36364</ele>
        <time>1970-01-01T01:00:00Z</time>
      </trkpt>
      <trkpt lat="55.596844" lon="13.036348">
        <ele>9.45455</ele>
        <time>1970-01-01T01:00:00Z</time>
      </trkpt>
      <trkpt lat="55.596807" lon="13.036499">
        <ele>9.54545</ele>
        <time>1970-01-01T01:00:00Z</time>
      </trkpt>
      <trkpt lat="55.596777" lon="13.036635">
        <ele>9.63636</ele>
        <time>1970-01-01T01:00:00Z</time>
      </trkpt>
      <trkpt lat="55.596745" lon="13.036805">
        <ele>9.72727</ele>
        <time>1970-01-01T01:00:00Z</time>
      </trkpt>
      <trkpt lat="55.596731" lon="13.03696">
        <ele>9.81818</ele>
        <time>1970-01-01T01:00:00Z</time>
      </trkpt>
      <trkpt lat="55.59672" lon="13.037112">
        <ele>9.90909</ele>
        <time>1970-01-01T01:00:00Z</time>
      </trkpt>
      <trkpt lat="55.59669" lon="13.037247">
        <ele>10</ele>
        <time>1970-01-01T01:00:00Z</time>
      </trkpt>
      <trkpt lat="55.596621" lon="13.037358">
        <ele>10.0909</ele>
        <time>1970-01-01T01:00:00Z</time>
      </trkpt>
      <trkpt lat="55.596546" lon="13.037486">
        <ele>10.1818</ele>
        <time>1970-01-01T01:00:00Z</time>
      </trkpt>
      <trkpt lat="55.596453" lon="13.037636">
        <ele>10.2727</ele>
        <time>1970-01-01T01:00:00Z</time>
      </trkpt>
      <trkpt lat="55.596399" lon="13.037782">
        <ele>10.3636</ele>
        <time>1970-01-01T01:00:00Z</time>
      </trkpt>
      <trkpt lat="55.596357" lon="13.037973">
        <ele>10.4545</ele>
        <time>1970-01-01T01:00:00Z</time>
      </trkpt>
      <trkpt lat="55.596324" lon="13.038155">
        <ele>10.4545</ele>
        <time>1970-01-01T01:00:00Z</time>
      </trkpt>
      <trkpt lat="55.596277" lon="13.038339">
        <ele>10.4545</ele>
        <time>1970-01-01T01:00:00Z</time>
      </trkpt>
      <trkpt lat="55.596229" lon="13.038532">
        <ele>10.4545</ele>
        <time>1970-01-01T01:00:00Z</time>
      </trkpt>
      <trkpt lat="55.596187" lon="13.03867">
        <ele>10.4545</ele>
        <time>1970-01-01T01:00:00Z</time>
      </trkpt>
      <trkpt lat="55.59614" lon="13.038819">
        <ele>10.4545</ele>
        <time>1970-01-01T01:00:00Z</time>
      </trkpt>
      <trkpt lat="55.596086" lon="13.038969">
        <ele>10.3636</ele>
        <time>1970-01-01T01:00:00Z</time>
      </trkpt>
      <trkpt lat="55.59603" lon="13.039125">
        <ele>10.1818</ele>
        <time>1970-01-01T01:00:00Z</time>
      </trkpt>
      <trkpt lat="55.595969" lon="13.039276">
        <ele>10</ele>
        <time>1970-01-01T01:00:00Z</time>
      </trkpt>
      <trkpt lat="55.595903" lon="13.039428">
        <ele>9.81818</ele>
        <time>1970-01-01T01:00:00Z</time>
      </trkpt>
      <trkpt lat="55.595838" lon="13.039577">
        <ele>9.63636</ele>
        <time>1970-01-01T01:00:00Z</time>
      </trkpt>
      <trkpt lat="55.59578" lon="13.03972">
        <ele>9.45455</ele>
        <time>1970-01-01T01:00:00Z</time>
      </trkpt>
      <trkpt lat="55.595722" lon="13.039858">
        <ele>9.27273</ele>
        <time>1970-01-01T01:00:00Z</time>
      </trkpt>
      <trkpt lat="55.595672" lon="13.039985">
        <ele>9.09091</ele>
        <time>1970-01-01T01:00:00Z</time>
      </trkpt>
      <trkpt lat="55.595618" lon="13.040101">
        <ele>8.90909</ele>
        <time>1970-01-01T01:00:00Z</time>
      </trkpt>
      <trkpt lat="55.595573" lon="13.040226">
        <ele>8.72727</ele>
        <time>1970-01-01T01:00:00Z</time>
      </trkpt>
      <trkpt lat="55.595517" lon="13.0404">
        <ele>8.54545</ele>
        <time>1970-01-01T01:00:00Z</time>
      </trkpt>
      <trkpt lat="55.595446" lon="13.040561">
        <ele>8.45455</ele>
        <time>1970-01-01T01:00:00Z</time>
      </trkpt>
      <trkpt lat="55.595366" lon="13.040713">
        <ele>8.36364</ele>
        <time>1970-01-01T01:00:00Z</time>
      </trkpt>
      <trkpt lat="55.595301" lon="13.040863">
        <ele>8.27273</ele>
        <time>1970-01-01T01:00:00Z</time>
      </trkpt>
      <trkpt lat="55.595259" lon="13.041006">
        <ele>8.18182</ele>
        <time>1970-01-01T01:00:00Z</time>
      </trkpt>
      <trkpt lat="55.595211" lon="13.041168">
        <ele>8.09091</ele>
        <time>1970-01-01T01:00:00Z</time>
      </trkpt>
      <trkpt lat="55.595167" lon="13.041333">
        <ele>8</ele>
        <time>1970-01-01T01:00:00Z</time>
      </trkpt>
      <trkpt lat="55.595131" lon="13.041486">
        <ele>8.09091</ele>
        <time>1970-01-01T01:00:00Z</time>
      </trkpt>
      <trkpt lat="55.595117" lon="13.04164">
        <ele>8.18182</ele>
        <time>1970-01-01T01:00:00Z</time>
      </trkpt>
      <trkpt lat="55.595133" lon="13.041783">
        <ele>8.27273</ele>
        <time>1970-01-01T01:00:00Z</time>
      </trkpt>
      <trkpt lat="55.595183" lon="13.041952">
        <ele>8.45455</ele>
        <time>1970-01-01T01:00:00Z</time>
      </trkpt>
      <trkpt lat="55.595235" lon="13.042072">
        <ele>8.63636</ele>
        <time>1970-01-01T01:00:00Z</time>
      </trkpt>
      <trkpt lat="55.595306" lon="13.042214">
        <ele>8.81818</ele>
        <time>1970-01-01T01:00:00Z</time>
      </trkpt>
      <trkpt lat="55.595354" lon="13.042348">
        <ele>8.81818</ele>
        <time>1970-01-01T01:00:00Z</time>
      </trkpt>
      <trkpt lat="55.595405" lon="13.042504">
        <ele>8.81818</ele>
        <time>1970-01-01T01:00:00Z</time>
      </trkpt>
      <trkpt lat="55.59547" lon="13.04265">
        <ele>8.81818</ele>
        <time>1970-01-01T01:00:00Z</time>
      </trkpt>
      <trkpt lat="55.59555" lon="13.042767">
        <ele>8.81818</ele>
        <time>1970-01-01T01:00:00Z</time>
      </trkpt>
      <trkpt lat="55.595617" lon="13.042883">
        <ele>8.81818</ele>
        <time>1970-01-01T01:00:00Z</time>
      </trkpt>
      <trkpt lat="55.595704" lon="13.043041">
        <ele>8.72727</ele>
        <time>1970-01-01T01:00:00Z</time>
      </trkpt>
      <trkpt lat="55.595771" lon="13.043219">
        <ele>8.63636</ele>
        <time>1970-01-01T01:00:00Z</time>
      </trkpt>
      <trkpt lat="55.595837" lon="13.043354">
        <ele>8.54545</ele>
        <time>1970-01-01T01:00:00Z</time>
      </trkpt>
      <trkpt lat="55.595889" lon="13.043481">
        <ele>8.36364</ele>
        <time>1970-01-01T01:00:00Z</time>
      </trkpt>
      <trkpt lat="55.595953" lon="13.043593">
        <ele>8.18182</ele>
        <time>1970-01-01T01:00:00Z</time>
      </trkpt>
      <trkpt lat="55.596031" lon="13.043718">
        <ele>8</ele>
        <time>1970-01-01T01:00:00Z</time>
      </trkpt>
      <trkpt lat="55.59609" lon="13.043833">
        <ele>8</ele>
        <time>1970-01-01T01:00:00Z</time>
      </trkpt>
      <trkpt lat="55.596158" lon="13.043963">
        <ele>8</ele>
        <time>1970-01-01T01:00:00Z</time>
      </trkpt>
      <trkpt lat="55.596231" lon="13.044101">
        <ele>7.90909</ele>
        <time>1970-01-01T01:00:00Z</time>
      </trkpt>
      <trkpt lat="55.596296" lon="13.044237">
        <ele>7.81818</ele>
        <time>1970-01-01T01:00:00Z</time>
      </trkpt>
      <trkpt lat="55.596355" lon="13.044367">
        <ele>7.72727</ele>
        <time>1970-01-01T01:00:00Z</time>
      </trkpt>
      <trkpt lat="55.59641" lon="13.044509">
        <ele>7.63636</ele>
        <time>1970-01-01T01:00:00Z</time>
      </trkpt>
      <trkpt lat="55.596472" lon="13.044652">
        <ele>7.54545</ele>
        <time>1970-01-01T01:00:00Z</time>
      </trkpt>
      <trkpt lat="55.596548" lon="13.044795">
        <ele>7.45455</ele>
        <time>1970-01-01T01:00:00Z</time>
      </trkpt>
      <trkpt lat="55.59661" lon="13.044937">
        <ele>7.36364</ele>
        <time>1970-01-01T01:00:00Z</time>
      </trkpt>
      <trkpt lat="55.596668" lon="13.045072">
        <ele>7.27273</ele>
        <time>1970-01-01T01:00:00Z</time>
      </trkpt>
      <trkpt lat="55.596727" lon="13.045187">
        <ele>7.18182</ele>
        <time>1970-01-01T01:00:00Z</time>
      </trkpt>
      <trkpt lat="55.596799" lon="13.045338">
        <ele>7.27273</ele>
        <time>1970-01-01T01:00:00Z</time>
      </trkpt>
      <trkpt lat="55.59688" lon="13.045471">
        <ele>7.36364</ele>
        <time>1970-01-01T01:00:00Z</time>
      </trkpt>
      <trkpt lat="55.596961" lon="13.045625">
        <ele>7.45455</ele>
        <time>1970-01-01T01:00:00Z</time>
      </trkpt>
      <trkpt lat="55.597025" lon="13.045806">
        <ele>7.54545</ele>
        <time>1970-01-01T01:00:00Z</time>
      </trkpt>
      <trkpt lat="55.597085" lon="13.04595">
        <ele>7.63636</ele>
        <time>1970-01-01T01:00:00Z</time>
      </trkpt>
      <trkpt lat="55.597148" lon="13.046093">
        <ele>7.72727</ele>
        <time>1970-01-01T01:00:00Z</time>
      </trkpt>
      <trkpt lat="55.597207" lon="13.046228">
        <ele>7.81818</ele>
        <time>1970-01-01T01:00:00Z</time>
      </trkpt>
      <trkpt lat="55.597266" lon="13.046376">
        <ele>7.90909</ele>
        <time>1970-01-01T01:00:00Z</time>
      </trkpt>
      <trkpt lat="55.59732" lon="13.046529">
        <ele>8</ele>
        <time>1970-01-01T01:00:00Z</time>
      </trkpt>
      <trkpt lat="55.597375" lon="13.046656">
        <ele>8.09091</ele>
        <time>1970-01-01T01:00:00Z</time>
      </trkpt>
      <trkpt lat="55.597443" lon="13.046792">
        <ele>8.18182</ele>
        <time>1970-01-01T01:00:00Z</time>
      </trkpt>
      <trkpt lat="55.59751" lon="13.04692">
        <ele>8.09091</ele>
        <time>1970-01-01T01:00:00Z</time>
      </trkpt>
      <trkpt lat="55.597574" lon="13.047054">
        <ele>8</ele>
        <time>1970-01-01T01:00:00Z</time>
      </trkpt>
      <trkpt lat="55.59763" lon="13.047202">
        <ele>8</ele>
        <time>1970-01-01T01:00:00Z</time>
      </trkpt>
      <trkpt lat="55.597685" lon="13.04736">
        <ele>7.90909</ele>
        <time>1970-01-01T01:00:00Z</time>
      </trkpt>
      <trkpt lat="55.597736" lon="13.047495">
        <ele>7.81818</ele>
        <time>1970-01-01T01:00:00Z</time>
      </trkpt>
      <trkpt lat="55.597792" lon="13.047677">
        <ele>7.72727</ele>
        <time>1970-01-01T01:00:00Z</time>
      </trkpt>
      <trkpt lat="55.597845" lon="13.047811">
        <ele>7.63636</ele>
        <time>1970-01-01T01:00:00Z</time>
      </trkpt>
      <trkpt lat="55.597882" lon="13.047956">
        <ele>7.54545</ele>
        <time>1970-01-01T01:00:00Z</time>
      </trkpt>
      <trkpt lat="55.597824" lon="13.048111">
        <ele>7.45455</ele>
        <time>1970-01-01T01:00:00Z</time>
      </trkpt>
      <trkpt lat="55.597772" lon="13.048269">
        <ele>7.36364</ele>
        <time>1970-01-01T01:00:00Z</time>
      </trkpt>
      <trkpt lat="55.597712" lon="13.048456">
        <ele>7.27273</ele>
        <time>1970-01-01T01:00:00Z</time>
      </trkpt>
      <trkpt lat="55.597664" lon="13.048602">
        <ele>7.18182</ele>
        <time>1970-01-01T01:00:00Z</time>
      </trkpt>
      <trkpt lat="55.597597" lon="13.048774">
        <ele>7.09091</ele>
        <time>1970-01-01T01:00:00Z</time>
      </trkpt>
      <trkpt lat="55.597533" lon="13.048928">
        <ele>7</ele>
        <time>1970-01-01T01:00:00Z</time>
      </trkpt>
      <trkpt lat="55.597469" lon="13.049077">
        <ele>7</ele>
        <time>1970-01-01T01:00:00Z</time>
      </trkpt>
      <trkpt lat="55.597406" lon="13.049237">
        <ele>7</ele>
        <time>1970-01-01T01:00:00Z</time>
      </trkpt>
      <trkpt lat="55.597345" lon="13.049376">
        <ele>7.27273</ele>
        <time>1970-01-01T01:00:00Z</time>
      </trkpt>
      <trkpt lat="55.597288" lon="13.049501">
        <ele>7.54545</ele>
        <time>1970-01-01T01:00:00Z</time>
      </trkpt>
      <trkpt lat="55.597243" lon="13.049633">
        <ele>7.81818</ele>
        <time>1970-01-01T01:00:00Z</time>
      </trkpt>
      <trkpt lat="55.597176" lon="13.04979">
        <ele>8.09091</ele>
        <time>1970-01-01T01:00:00Z</time>
      </trkpt>
      <trkpt lat="55.597111" lon="13.049933">
        <ele>8.36364</ele>
        <time>1970-01-01T01:00:00Z</time>
      </trkpt>
      <trkpt lat="55.597048" lon="13.05008">
        <ele>8.63636</ele>
        <time>1970-01-01T01:00:00Z</time>
      </trkpt>
      <trkpt lat="55.596986" lon="13.050238">
        <ele>8.90909</ele>
        <time>1970-01-01T01:00:00Z</time>
      </trkpt>
      <trkpt lat="55.596904" lon="13.050361">
        <ele>9.18182</ele>
        <time>1970-01-01T01:00:00Z</time>
      </trkpt>
      <trkpt lat="55.596855" lon="13.050481">
        <ele>9.45455</ele>
        <time>1970-01-01T01:00:00Z</time>
      </trkpt>
      <trkpt lat="55.596801" lon="13.050713">
        <ele>9.72727</ele>
        <time>1970-01-01T01:00:00Z</time>
      </trkpt>
      <trkpt lat="55.596757" lon="13.050874">
        <ele>10</ele>
        <time>1970-01-01T01:00:00Z</time>
      </trkpt>
      <trkpt lat="55.596758" lon="13.05103">
        <ele>10</ele>
        <time>1970-01-01T01:00:00Z</time>
      </trkpt>
      <trkpt lat="55.596724" lon="13.051164">
        <ele>10</ele>
        <time>1970-01-01T01:00:00Z</time>
      </trkpt>
      <trkpt lat="55.596803" lon="13.051135">
        <ele>9.72727</ele>
        <time>1970-01-01T01:00:00Z</time>
      </trkpt>
      <trkpt lat="55.596886" lon="13.051081">
        <ele>9.45455</ele>
        <time>1970-01-01T01:00:00Z</time>
      </trkpt>
      <trkpt lat="55.596943" lon="13.050963">
        <ele>9.18182</ele>
        <time>1970-01-01T01:00:00Z</time>
      </trkpt>
      <trkpt lat="55.596999" lon="13.050818">
        <ele>8.90909</ele>
        <time>1970-01-01T01:00:00Z</time>
      </trkpt>
      <trkpt lat="55.597068" lon="13.05065">
        <ele>8.63636</ele>
        <time>1970-01-01T01:00:00Z</time>
      </trkpt>
      <trkpt lat="55.597137" lon="13.050562">
        <ele>8.36364</ele>
        <time>1970-01-01T01:00:00Z</time>
      </trkpt>
      <trkpt lat="55.597278" lon="13.050399">
        <ele>8.09091</ele>
        <time>1970-01-01T01:00:00Z</time>
      </trkpt>
      <trkpt lat="55.597366" lon="13.050426">
        <ele>7.81818</ele>
        <time>1970-01-01T01:00:00Z</time>
      </trkpt>
      <trkpt lat="55.597487" lon="13.050563">
        <ele>7.54545</ele>
        <time>1970-01-01T01:00:00Z</time>
      </trkpt>
      <trkpt lat="55.597557" lon="13.05068">
        <ele>7.27273</ele>
        <time>1970-01-01T01:00:00Z</time>
      </trkpt>
      <trkpt lat="55.597627" lon="13.050757">
        <ele>6.81818</ele>
        <time>1970-01-01T01:00:00Z</time>
      </trkpt>
      <trkpt lat="55.597721" lon="13.050854">
        <ele>6.63636</ele>
        <time>1970-01-01T01:00:00Z</time>
      </trkpt>
      <trkpt lat="55.597783" lon="13.050954">
        <ele>6.45455</ele>
        <time>1970-01-01T01:00:00Z</time>
      </trkpt>
      <trkpt lat="55.597837" lon="13.051066">
        <ele>6.27273</ele>
        <time>1970-01-01T01:00:00Z</time>
      </trkpt>
      <trkpt lat="55.597889" lon="13.051236">
        <ele>6.09091</ele>
        <time>1970-01-01T01:00:00Z</time>
      </trkpt>
      <trkpt lat="55.597933" lon="13.051387">
        <ele>5.90909</ele>
        <time>1970-01-01T01:00:00Z</time>
      </trkpt>
      <trkpt lat="55.597983" lon="13.051525">
        <ele>5.81818</ele>
        <time>1970-01-01T01:00:00Z</time>
      </trkpt>
      <trkpt lat="55.598037" lon="13.051657">
        <ele>5.72727</ele>
        <time>1970-01-01T01:00:00Z</time>
      </trkpt>
      <trkpt lat="55.598105" lon="13.05177">
        <ele>5.63636</ele>
        <time>1970-01-01T01:00:00Z</time>
      </trkpt>
      <trkpt lat="55.598147" lon="13.051939">
        <ele>5.54545</ele>
        <time>1970-01-01T01:00:00Z</time>
      </trkpt>
      <trkpt lat="55.598174" lon="13.052088">
        <ele>5.45455</ele>
        <time>1970-01-01T01:00:00Z</time>
      </trkpt>
      <trkpt lat="55.598149" lon="13.052254">
        <ele>5.63636</ele>
        <time>1970-01-01T01:00:00Z</time>
      </trkpt>
      <trkpt lat="55.598098" lon="13.052388">
        <ele>5.81818</ele>
        <time>1970-01-01T01:00:00Z</time>
      </trkpt>
      <trkpt lat="55.598059" lon="13.052556">
        <ele>6</ele>
        <time>1970-01-01T01:00:00Z</time>
      </trkpt>
      <trkpt lat="55.598044" lon="13.052734">
        <ele>6.18182</ele>
        <time>1970-01-01T01:00:00Z</time>
      </trkpt>
      <trkpt lat="55.598062" lon="13.052902">
        <ele>6.36364</ele>
        <time>1970-01-01T01:00:00Z</time>
      </trkpt>
      <trkpt lat="55.598074" lon="13.053076">
        <ele>6.54545</ele>
        <time>1970-01-01T01:00:00Z</time>
      </trkpt>
      <trkpt lat="55.598087" lon="13.05327">
        <ele>6.63636</ele>
        <time>1970-01-01T01:00:00Z</time>
      </trkpt>
      <trkpt lat="55.598106" lon="13.053483">
        <ele>6.72727</ele>
        <time>1970-01-01T01:00:00Z</time>
      </trkpt>
      <trkpt lat="55.598129" lon="13.053648">
        <ele>6.81818</ele>
        <time>1970-01-01T01:00:00Z</time>
      </trkpt>
      <trkpt lat="55.598171" lon="13.053795">
        <ele>6.90909</ele>
        <time>1970-01-01T01:00:00Z</time>
      </trkpt>
      <trkpt lat="55.598221" lon="13.053942">
        <ele>7</ele>
        <time>1970-01-01T01:00:00Z</time>
      </trkpt>
      <trkpt lat="55.598287" lon="13.054062">
        <ele>7</ele>
        <time>1970-01-01T01:00:00Z</time>
      </trkpt>
      <trkpt lat="55.598324" lon="13.054196">
        <ele>7</ele>
        <time>1970-01-01T01:00:00Z</time>
      </trkpt>
      <trkpt lat="55.598329" lon="13.054396">
        <ele>7</ele>
        <time>1970-01-01T01:00:00Z</time>
      </trkpt>
      <trkpt lat="55.598344" lon="13.054631">
        <ele>7</ele>
        <time>1970-01-01T01:00:00Z</time>
      </trkpt>
      <trkpt lat="55.598336" lon="13.054837">
        <ele>7</ele>
        <time>1970-01-01T01:00:00Z</time>
      </trkpt>
      <trkpt lat="55.598326" lon="13.055046">
        <ele>7</ele>
        <time>1970-01-01T01:00:00Z</time>
      </trkpt>
      <trkpt lat="55.598318" lon="13.055259">
        <ele>7</ele>
        <time>1970-01-01T01:00:00Z</time>
      </trkpt>
      <trkpt lat="55.598309" lon="13.055448">
        <ele>7</ele>
        <time>1970-01-01T01:00:00Z</time>
      </trkpt>
      <trkpt lat="55.598296" lon="13.055614">
        <ele>6.90909</ele>
        <time>1970-01-01T01:00:00Z</time>
      </trkpt>
      <trkpt lat="55.598284" lon="13.055793">
        <ele>6.81818</ele>
        <time>1970-01-01T01:00:00Z</time>
      </trkpt>
      <trkpt lat="55.598252" lon="13.055968">
        <ele>6.72727</ele>
        <time>1970-01-01T01:00:00Z</time>
      </trkpt>
      <trkpt lat="55.598219" lon="13.05615">
        <ele>6.63636</ele>
        <time>1970-01-01T01:00:00Z</time>
      </trkpt>
      <trkpt lat="55.598197" lon="13.056334">
        <ele>6.54545</ele>
        <time>1970-01-01T01:00:00Z</time>
      </trkpt>
      <trkpt lat="55.598174" lon="13.056499">
        <ele>6.45455</ele>
        <time>1970-01-01T01:00:00Z</time>
      </trkpt>
      <trkpt lat="55.598144" lon="13.056689">
        <ele>6.36364</ele>
        <time>1970-01-01T01:00:00Z</time>
      </trkpt>
      <trkpt lat="55.598106" lon="13.056844">
        <ele>6.27273</ele>
        <time>1970-01-01T01:00:00Z</time>
      </trkpt>
      <trkpt lat="55.598075" lon="13.057007">
        <ele>6.54545</ele>
        <time>1970-01-01T01:00:00Z</time>
      </trkpt>
      <trkpt lat="55.598044" lon="13.057147">
        <ele>6.81818</ele>
        <time>1970-01-01T01:00:00Z</time>
      </trkpt>
      <trkpt lat="55.59801" lon="13.057331">
        <ele>7</ele>
        <time>1970-01-01T01:00:00Z</time>
      </trkpt>
      <trkpt lat="55.597975" lon="13.057537">
        <ele>7.27273</ele>
        <time>1970-01-01T01:00:00Z</time>
      </trkpt>
      <trkpt lat="55.597935" lon="13.05768">
        <ele>7.54545</ele>
        <time>1970-01-01T01:00:00Z</time>
      </trkpt>
      <trkpt lat="55.5979" lon="13.057864">
        <ele>7.81818</ele>
        <time>1970-01-01T01:00:00Z</time>
      </trkpt>
      <trkpt lat="55.597869" lon="13.057996">
        <ele>8.09091</ele>
        <time>1970-01-01T01:00:00Z</time>
      </trkpt>
      <trkpt lat="55.597839" lon="13.058155">
        <ele>8.36364</ele>
        <time>1970-01-01T01:00:00Z</time>
      </trkpt>
      <trkpt lat="55.597796" lon="13.058292">
        <ele>8.63636</ele>
        <time>1970-01-01T01:00:00Z</time>
      </trkpt>
      <trkpt lat="55.597749" lon="13.058457">
        <ele>8.90909</ele>
        <time>1970-01-01T01:00:00Z</time>
      </trkpt>
      <trkpt lat="55.597687" lon="13.058584">
        <ele>9.18182</ele>
        <time>1970-01-01T01:00:00Z</time>
      </trkpt>
      <trkpt lat="55.597604" lon="13.058706">
        <ele>9.09091</ele>
        <time>1970-01-01T01:00:00Z</time>
      </trkpt>
      <trkpt lat="55.597525" lon="13.058861">
        <ele>9</ele>
        <time>1970-01-01T01:00:00Z</time>
      </trkpt>
      <trkpt lat="55.597447" lon="13.059002">
        <ele>9</ele>
        <time>1970-01-01T01:00:00Z</time>
      </trkpt>
      <trkpt lat="55.597386" lon="13.059119">
        <ele>8.90909</ele>
        <time>1970-01-01T01:00:00Z</time>
      </trkpt>
      <trkpt lat="55.597318" lon="13.059242">
        <ele>8.81818</ele>
        <time>1970-01-01T01:00:00Z</time>
      </trkpt>
      <trkpt lat="55.597248" lon="13.059372">
        <ele>8.72727</ele>
        <time>1970-01-01T01:00:00Z</time>
      </trkpt>
      <trkpt lat="55.597197" lon="13.059495">
        <ele>8.63636</ele>
        <time>1970-01-01T01:00:00Z</time>
      </trkpt>
      <trkpt lat="55.597142" lon="13.059618">
        <ele>8.54545</ele>
        <time>1970-01-01T01:00:00Z</time>
      </trkpt>
      <trkpt lat="55.597083" lon="13.059715">
        <ele>8.45455</ele>
        <time>1970-01-01T01:00:00Z</time>
      </trkpt>
      <trkpt lat="55.597001" lon="13.059867">
        <ele>8.36364</ele>
        <time>1970-01-01T01:00:00Z</time>
      </trkpt>
      <trkpt lat="55.596926" lon="13.059996">
        <ele>8.27273</ele>
        <time>1970-01-01T01:00:00Z</time>
      </trkpt>
      <trkpt lat="55.596854" lon="13.060108">
        <ele>8.18182</ele>
        <time>1970-01-01T01:00:00Z</time>
      </trkpt>
      <trkpt lat="55.596777" lon="13.060202">
        <ele>8.09091</ele>
        <time>1970-01-01T01:00:00Z</time>
      </trkpt>
      <trkpt lat="55.596683" lon="13.06027">
        <ele>8.18182</ele>
        <time>1970-01-01T01:00:00Z</time>
      </trkpt>
      <trkpt lat="55.59657" lon="13.060338">
        <ele>8.36364</ele>
        <time>1970-01-01T01:00:00Z</time>
      </trkpt>
      <trkpt lat="55.596482" lon="13.060419">
        <ele>8.54545</ele>
        <time>1970-01-01T01:00:00Z</time>
      </trkpt>
      <trkpt lat="55.596401" lon="13.060488">
        <ele>8.72727</ele>
        <time>1970-01-01T01:00:00Z</time>
      </trkpt>
      <trkpt lat="55.596321" lon="13.060521">
        <ele>8.90909</ele>
        <time>1970-01-01T01:00:00Z</time>
      </trkpt>
      <trkpt lat="55.596243" lon="13.060639">
        <ele>9.18182</ele>
        <time>1970-01-01T01:00:00Z</time>
      </trkpt>
      <trkpt lat="55.596195" lon="13.060777">
        <ele>9.45455</ele>
        <time>1970-01-01T01:00:00Z</time>
      </trkpt>
      <trkpt lat="55.59614" lon="13.060913">
        <ele>9.72727</ele>
        <time>1970-01-01T01:00:00Z</time>
      </trkpt>
      <trkpt lat="55.596113" lon="13.06107">
        <ele>10</ele>
        <time>1970-01-01T01:00:00Z</time>
      </trkpt>
      <trkpt lat="55.59608" lon="13.061218">
        <ele>10.2727</ele>
        <time>1970-01-01T01:00:00Z</time>
      </trkpt>
      <trkpt lat="55.596039" lon="13.061366">
        <ele>10.5455</ele>
        <time>1970-01-01T01:00:00Z</time>
      </trkpt>
      <trkpt lat="55.596006" lon="13.061513">
        <ele>10.6364</ele>
        <time>1970-01-01T01:00:00Z</time>
      </trkpt>
      <trkpt lat="55.595966" lon="13.061684">
        <ele>10.7273</ele>
        <time>1970-01-01T01:00:00Z</time>
      </trkpt>
      <trkpt lat="55.595932" lon="13.06182">
        <ele>10.8182</ele>
        <time>1970-01-01T01:00:00Z</time>
      </trkpt>
      <trkpt lat="55.595901" lon="13.061986">
        <ele>10.9091</ele>
        <time>1970-01-01T01:00:00Z</time>
      </trkpt>
      <trkpt lat="55.595869" lon="13.062172">
        <ele>11</ele>
        <time>1970-01-01T01:00:00Z</time>
      </trkpt>
      <trkpt lat="55.595841" lon="13.062362">
        <ele>11</ele>
        <time>1970-01-01T01:00:00Z</time>
      </trkpt>
      <trkpt lat="55.595813" lon="13.06254">
        <ele>11</ele>
        <time>1970-01-01T01:00:00Z</time>
      </trkpt>
      <trkpt lat="55.595782" lon="13.062718">
        <ele>11</ele>
        <time>1970-01-01T01:00:00Z</time>
      </trkpt>
      <trkpt lat="55.59575" lon="13.062901">
        <ele>11</ele>
        <time>1970-01-01T01:00:00Z</time>
      </trkpt>
      <trkpt lat="55.595719" lon="13.06308">
        <ele>11</ele>
        <time>1970-01-01T01:00:00Z</time>
      </trkpt>
      <trkpt lat="55.595687" lon="13.063255">
        <ele>11</ele>
        <time>1970-01-01T01:00:00Z</time>
      </trkpt>
      <trkpt lat="55.595656" lon="13.063421">
        <ele>11</ele>
        <time>1970-01-01T01:00:00Z</time>
      </trkpt>
      <trkpt lat="55.595649" lon="13.063587">
        <ele>11</ele>
        <time>1970-01-01T01:00:00Z</time>
      </trkpt>
      <trkpt lat="55.595672" lon="13.063728">
        <ele>11</ele>
        <time>1970-01-01T01:00:00Z</time>
      </trkpt>
      <trkpt lat="55.595637" lon="13.063862">
        <ele>11.0909</ele>
        <time>1970-01-01T01:00:00Z</time>
      </trkpt>
      <trkpt lat="55.595594" lon="13.064034">
        <ele>11.2727</ele>
        <time>1970-01-01T01:00:00Z</time>
      </trkpt>
      <trkpt lat="55.595549" lon="13.064179">
        <ele>11.4545</ele>
        <time>1970-01-01T01:00:00Z</time>
      </trkpt>
      <trkpt lat="55.595512" lon="13.064326">
        <ele>11.6364</ele>
        <time>1970-01-01T01:00:00Z</time>
      </trkpt>
      <trkpt lat="55.595474" lon="13.064515">
        <ele>11.8182</ele>
        <time>1970-01-01T01:00:00Z</time>
      </trkpt>
      <trkpt lat="55.595437" lon="13.064674">
        <ele>12</ele>
        <time>1970-01-01T01:00:00Z</time>
      </trkpt>
      <trkpt lat="55.595403" lon="13.064827">
        <ele>12.1818</ele>
        <time>1970-01-01T01:00:00Z</time>
      </trkpt>
      <trkpt lat="55.595372" lon="13.064994">
        <ele>12.3636</ele>
        <time>1970-01-01T01:00:00Z</time>
      </trkpt>
      <trkpt lat="55.595345" lon="13.065152">
        <ele>12.5455</ele>
        <time>1970-01-01T01:00:00Z</time>
      </trkpt>
      <trkpt lat="55.595329" lon="13.065315">
        <ele>12.7273</ele>
        <time>1970-01-01T01:00:00Z</time>
      </trkpt>
      <trkpt lat="55.595306" lon="13.065482">
        <ele>13</ele>
        <time>1970-01-01T01:00:00Z</time>
      </trkpt>
      <trkpt lat="55.595277" lon="13.065647">
        <ele>13.1818</ele>
        <time>1970-01-01T01:00:00Z</time>
      </trkpt>
      <trkpt lat="55.595245" lon="13.065842">
        <ele>13.2727</ele>
        <time>1970-01-01T01:00:00Z</time>
      </trkpt>
      <trkpt lat="55.595222" lon="13.06602">
        <ele>13.3636</ele>
        <time>1970-01-01T01:00:00Z</time>
      </trkpt>
      <trkpt lat="55.595205" lon="13.066209">
        <ele>13.4545</ele>
        <time>1970-01-01T01:00:00Z</time>
      </trkpt>
      <trkpt lat="55.595199" lon="13.066418">
        <ele>13.4545</ele>
        <time>1970-01-01T01:00:00Z</time>
      </trkpt>
      <trkpt lat="55.595205" lon="13.066608">
        <ele>13.4545</ele>
        <time>1970-01-01T01:00:00Z</time>
      </trkpt>
      <trkpt lat="55.595201" lon="13.066777">
        <ele>13.4545</ele>
        <time>1970-01-01T01:00:00Z</time>
      </trkpt>
      <trkpt lat="55.595182" lon="13.066973">
        <ele>13.4545</ele>
        <time>1970-01-01T01:00:00Z</time>
      </trkpt>
      <trkpt lat="55.595152" lon="13.067173">
        <ele>13.2727</ele>
        <time>1970-01-01T01:00:00Z</time>
      </trkpt>
      <trkpt lat="55.595129" lon="13.067351">
        <ele>13.0909</ele>
        <time>1970-01-01T01:00:00Z</time>
      </trkpt>
      <trkpt lat="55.595111" lon="13.067531">
        <ele>12.8182</ele>
        <time>1970-01-01T01:00:00Z</time>
      </trkpt>
      <trkpt lat="55.595106" lon="13.067725">
        <ele>12.5455</ele>
        <time>1970-01-01T01:00:00Z</time>
      </trkpt>
      <trkpt lat="55.595095" lon="13.067869">
        <ele>12.2727</ele>
        <time>1970-01-01T01:00:00Z</time>
      </trkpt>
      <trkpt lat="55.595057" lon="13.068069">
        <ele>12</ele>
        <time>1970-01-01T01:00:00Z</time>
      </trkpt>
      <trkpt lat="55.595035" lon="13.068246">
        <ele>11.7273</ele>
        <time>1970-01-01T01:00:00Z</time>
      </trkpt>
      <trkpt lat="55.595014" lon="13.068436">
        <ele>11.5455</ele>
        <time>1970-01-01T01:00:00Z</time>
      </trkpt>
      <trkpt lat="55.595007" lon="13.068646">
        <ele>11.3636</ele>
        <time>1970-01-01T01:00:00Z</time>
      </trkpt>
      <trkpt lat="55.594997" lon="13.068796">
        <ele>11.2727</ele>
        <time>1970-01-01T01:00:00Z</time>
      </trkpt>
      <trkpt lat="55.594988" lon="13.068959">
        <ele>11.1818</ele>
        <time>1970-01-01T01:00:00Z</time>
      </trkpt>
      <trkpt lat="55.594978" lon="13.069133">
        <ele>11.2727</ele>
        <time>1970-01-01T01:00:00Z</time>
      </trkpt>
      <trkpt lat="55.594964" lon="13.069326">
        <ele>11.3636</ele>
        <time>1970-01-01T01:00:00Z</time>
      </trkpt>
      <trkpt lat="55.594958" lon="13.069503">
        <ele>11.3636</ele>
        <time>1970-01-01T01:00:00Z</time>
      </trkpt>
      <trkpt lat="55.594945" lon="13.069676">
        <ele>11.3636</ele>
        <time>1970-01-01T01:00:00Z</time>
      </trkpt>
      <trkpt lat="55.594932" lon="13.06985">
        <ele>11.3636</ele>
        <time>1970-01-01T01:00:00Z</time>
      </trkpt>
      <trkpt lat="55.594924" lon="13.070051">
        <ele>11.3636</ele>
        <time>1970-01-01T01:00:00Z</time>
      </trkpt>
      <trkpt lat="55.59491" lon="13.070265">
        <ele>11.3636</ele>
        <time>1970-01-01T01:00:00Z</time>
      </trkpt>
      <trkpt lat="55.594893" lon="13.070469">
        <ele>11.2727</ele>
        <time>1970-01-01T01:00:00Z</time>
      </trkpt>
      <trkpt lat="55.594877" lon="13.070656">
        <ele>11.1818</ele>
        <time>1970-01-01T01:00:00Z</time>
      </trkpt>
      <trkpt lat="55.594864" lon="13.070832">
        <ele>11</ele>
        <time>1970-01-01T01:00:00Z</time>
      </trkpt>
      <trkpt lat="55.594844" lon="13.070978">
        <ele>10.8182</ele>
        <time>1970-01-01T01:00:00Z</time>
      </trkpt>
      <trkpt lat="55.594829" lon="13.071138">
        <ele>10.6364</ele>
        <time>1970-01-01T01:00:00Z</time>
      </trkpt>
      <trkpt lat="55.594821" lon="13.071299">
        <ele>10.3636</ele>
        <time>1970-01-01T01:00:00Z</time>
      </trkpt>
      <trkpt lat="55.594817" lon="13.071484">
        <ele>10.1818</ele>
        <time>1970-01-01T01:00:00Z</time>
      </trkpt>
      <trkpt lat="55.594813" lon="13.071656">
        <ele>10</ele>
        <time>1970-01-01T01:00:00Z</time>
      </trkpt>
      <trkpt lat="55.594799" lon="13.071853">
        <ele>9.81818</ele>
        <time>1970-01-01T01:00:00Z</time>
      </trkpt>
      <trkpt lat="55.594774" lon="13.072059">
        <ele>9.63636</ele>
        <time>1970-01-01T01:00:00Z</time>
      </trkpt>
      <trkpt lat="55.594762" lon="13.072232">
        <ele>9.36364</ele>
        <time>1970-01-01T01:00:00Z</time>
      </trkpt>
      <trkpt lat="55.594755" lon="13.072385">
        <ele>9.18182</ele>
        <time>1970-01-01T01:00:00Z</time>
      </trkpt>
      <trkpt lat="55.594766" lon="13.072559">
        <ele>9</ele>
        <time>1970-01-01T01:00:00Z</time>
      </trkpt>
      <trkpt lat="55.594779" lon="13.072731">
        <ele>8.81818</ele>
        <time>1970-01-01T01:00:00Z</time>
      </trkpt>
      <trkpt lat="55.594799" lon="13.072891">
        <ele>8.63636</ele>
        <time>1970-01-01T01:00:00Z</time>
      </trkpt>
      <trkpt lat="55.594796" lon="13.073036">
        <ele>8.45455</ele>
        <time>1970-01-01T01:00:00Z</time>
      </trkpt>
      <trkpt lat="55.594768" lon="13.073179">
        <ele>8.36364</ele>
        <time>1970-01-01T01:00:00Z</time>
      </trkpt>
      <trkpt lat="55.594732" lon="13.073326">
        <ele>8.27273</ele>
        <time>1970-01-01T01:00:00Z</time>
      </trkpt>
      <trkpt lat="55.594706" lon="13.073475">
        <ele>8.18182</ele>
        <time>1970-01-01T01:00:00Z</time>
      </trkpt>
      <trkpt lat="55.594707" lon="13.073641">
        <ele>8.18182</ele>
        <time>1970-01-01T01:00:00Z</time>
      </trkpt>
      <trkpt lat="55.594727" lon="13.073781">
        <ele>8.18182</ele>
        <time>1970-01-01T01:00:00Z</time>
      </trkpt>
      <trkpt lat="55.594748" lon="13.073928">
        <ele>8.27273</ele>
        <time>1970-01-01T01:00:00Z</time>
      </trkpt>
      <trkpt lat="55.594729" lon="13.074093">
        <ele>8.36364</ele>
        <time>1970-01-01T01:00:00Z</time>
      </trkpt>
      <trkpt lat="55.594701" lon="13.074249">
        <ele>8.45455</ele>
        <time>1970-01-01T01:00:00Z</time>
      </trkpt>
      <trkpt lat="55.594617" lon="13.074318">
        <ele>8.54545</ele>
        <time>1970-01-01T01:00:00Z</time>
      </trkpt>
      <trkpt lat="55.594522" lon="13.074293">
        <ele>8.63636</ele>
        <time>1970-01-01T01:00:00Z</time>
      </trkpt>
      <trkpt lat="55.594425" lon="13.074271">
        <ele>8.72727</ele>
        <time>1970-01-01T01:00:00Z</time>
      </trkpt>
      <trkpt lat="55.594333" lon="13.074216">
        <ele>8.81818</ele>
        <time>1970-01-01T01:00:00Z</time>
      </trkpt>
      <trkpt lat="55.594247" lon="13.074159">
        <ele>8.90909</ele>
        <time>1970-01-01T01:00:00Z</time>
      </trkpt>
      <trkpt lat="55.594155" lon="13.074113">
        <ele>9.36364</ele>
        <time>1970-01-01T01:00:00Z</time>
      </trkpt>
      <trkpt lat="55.594054" lon="13.074072">
        <ele>9.72727</ele>
        <time>1970-01-01T01:00:00Z</time>
      </trkpt>
      <trkpt lat="55.593968" lon="13.074042">
        <ele>10.0909</ele>
        <time>1970-01-01T01:00:00Z</time>
      </trkpt>
      <trkpt lat="55.593872" lon="13.074">
        <ele>10.4545</ele>
        <time>1970-01-01T01:00:00Z</time>
      </trkpt>
      <trkpt lat="55.593781" lon="13.073961">
        <ele>10.8182</ele>
        <time>1970-01-01T01:00:00Z</time>
      </trkpt>
      <trkpt lat="55.593702" lon="13.073909">
        <ele>11.1818</ele>
        <time>1970-01-01T01:00:00Z</time>
      </trkpt>
      <trkpt lat="55.59361" lon="13.073862">
        <ele>11.5455</ele>
        <time>1970-01-01T01:00:00Z</time>
      </trkpt>
      <trkpt lat="55.593514" lon="13.073858">
        <ele>11.9091</ele>
        <time>1970-01-01T01:00:00Z</time>
      </trkpt>
      <trkpt lat="55.59343" lon="13.073803">
        <ele>12.2727</ele>
        <time>1970-01-01T01:00:00Z</time>
      </trkpt>
      <trkpt lat="55.593341" lon="13.073724">
        <ele>12.6364</ele>
        <time>1970-01-01T01:00:00Z</time>
      </trkpt>
      <trkpt lat="55.593269" lon="13.073648">
        <ele>12.9091</ele>
        <time>1970-01-01T01:00:00Z</time>
      </trkpt>
      <trkpt lat="55.593184" lon="13.073573">
        <ele>12.8182</ele>
        <time>1970-01-01T01:00:00Z</time>
      </trkpt>
      <trkpt lat="55.593111" lon="13.073469">
        <ele>12.7273</ele>
        <time>1970-01-01T01:00:00Z</time>
      </trkpt>
      <trkpt lat="55.593026" lon="13.073391">
        <ele>12.6364</ele>
        <time>1970-01-01T01:00:00Z</time>
      </trkpt>
      <trkpt lat="55.592945" lon="13.073345">
        <ele>12.4545</ele>
        <time>1970-01-01T01:00:00Z</time>
      </trkpt>
      <trkpt lat="55.592834" lon="13.073269">
        <ele>12.2727</ele>
        <time>1970-01-01T01:00:00Z</time>
      </trkpt>
      <trkpt lat="55.592734" lon="13.073173">
        <ele>12.0909</ele>
        <time>1970-01-01T01:00:00Z</time>
      </trkpt>
      <trkpt lat="55.592638" lon="13.073077">
        <ele>11.9091</ele>
        <time>1970-01-01T01:00:00Z</time>
      </trkpt>
      <trkpt lat="55.592557" lon="13.072995">
        <ele>11.7273</ele>
        <time>1970-01-01T01:00:00Z</time>
      </trkpt>
      <trkpt lat="55.592473" lon="13.072919">
        <ele>11.5455</ele>
        <time>1970-01-01T01:00:00Z</time>
      </trkpt>
      <trkpt lat="55.592389" lon="13.072846">
        <ele>11.3636</ele>
        <time>1970-01-01T01:00:00Z</time>
      </trkpt>
      <trkpt lat="55.59231" lon="13.072781">
        <ele>11.2727</ele>
        <time>1970-01-01T01:00:00Z</time>
      </trkpt>
      <trkpt lat="55.592221" lon="13.072713">
        <ele>11.1818</ele>
        <time>1970-01-01T01:00:00Z</time>
      </trkpt>
      <trkpt lat="55.592135" lon="13.072657">
        <ele>11.0909</ele>
        <time>1970-01-01T01:00:00Z</time>
      </trkpt>
      <trkpt lat="55.592047" lon="13.072615">
        <ele>11</ele>
        <time>1970-01-01T01:00:00Z</time>
      </trkpt>
      <trkpt lat="55.591962" lon="13.072563">
        <ele>11</ele>
        <time>1970-01-01T01:00:00Z</time>
      </trkpt>
      <trkpt lat="55.591858" lon="13.072542">
        <ele>11</ele>
        <time>1970-01-01T01:00:00Z</time>
      </trkpt>
      <trkpt lat="55.591755" lon="13.072439">
        <ele>11</ele>
        <time>1970-01-01T01:00:00Z</time>
      </trkpt>
      <trkpt lat="55.591642" lon="13.072337">
        <ele>11</ele>
        <time>1970-01-01T01:00:00Z</time>
      </trkpt>
      <trkpt lat="55.591563" lon="13.072269">
        <ele>11</ele>
        <time>1970-01-01T01:00:00Z</time>
      </trkpt>
      <trkpt lat="55.591476" lon="13.072201">
        <ele>11</ele>
        <time>1970-01-01T01:00:00Z</time>
      </trkpt>
      <trkpt lat="55.591387" lon="13.072126">
        <ele>11</ele>
        <time>1970-01-01T01:00:00Z</time>
      </trkpt>
      <trkpt lat="55.591284" lon="13.072076">
        <ele>11</ele>
        <time>1970-01-01T01:00:00Z</time>
      </trkpt>
      <trkpt lat="55.591155" lon="13.072059">
        <ele>11</ele>
        <time>1970-01-01T01:00:00Z</time>
      </trkpt>
      <trkpt lat="55.591057" lon="13.072015">
        <ele>11</ele>
        <time>1970-01-01T01:00:00Z</time>
      </trkpt>
      <trkpt lat="55.590983" lon="13.07188">
        <ele>11</ele>
        <time>1970-01-01T01:00:00Z</time>
      </trkpt>
      <trkpt lat="55.590898" lon="13.071759">
        <ele>11</ele>
        <time>1970-01-01T01:00:00Z</time>
      </trkpt>
      <trkpt lat="55.590796" lon="13.071683">
        <ele>11</ele>
        <time>1970-01-01T01:00:00Z</time>
      </trkpt>
      <trkpt lat="55.590716" lon="13.071608">
        <ele>11</ele>
        <time>1970-01-01T01:00:00Z</time>
      </trkpt>
      <trkpt lat="55.590615" lon="13.07151">
        <ele>11</ele>
        <time>1970-01-01T01:00:00Z</time>
      </trkpt>
      <trkpt lat="55.590525" lon="13.071434">
        <ele>11</ele>
        <time>1970-01-01T01:00:00Z</time>
      </trkpt>
      <trkpt lat="55.590442" lon="13.071374">
        <ele>11</ele>
        <time>1970-01-01T01:00:00Z</time>
      </trkpt>
      <trkpt lat="55.590356" lon="13.071298">
        <ele>11</ele>
        <time>1970-01-01T01:00:00Z</time>
      </trkpt>
      <trkpt lat="55.590268" lon="13.071234">
        <ele>11</ele>
        <time>1970-01-01T01:00:00Z</time>
      </trkpt>
      <trkpt lat="55.590184" lon="13.071159">
        <ele>11</ele>
        <time>1970-01-01T01:00:00Z</time>
      </trkpt>
      <trkpt lat="55.59009" lon="13.071087">
        <ele>11</ele>
        <time>1970-01-01T01:00:00Z</time>
      </trkpt>
      <trkpt lat="55.590003" lon="13.071017">
        <ele>11</ele>
        <time>1970-01-01T01:00:00Z</time>
      </trkpt>
      <trkpt lat="55.589907" lon="13.070939">
        <ele>11</ele>
        <time>1970-01-01T01:00:00Z</time>
      </trkpt>
      <trkpt lat="55.589827" lon="13.070858">
        <ele>11</ele>
        <time>1970-01-01T01:00:00Z</time>
      </trkpt>
      <trkpt lat="55.589738" lon="13.070786">
        <ele>11</ele>
        <time>1970-01-01T01:00:00Z</time>
      </trkpt>
      <trkpt lat="55.589637" lon="13.070709">
        <ele>11</ele>
        <time>1970-01-01T01:00:00Z</time>
      </trkpt>
      <trkpt lat="55.589537" lon="13.070635">
        <ele>11</ele>
        <time>1970-01-01T01:00:00Z</time>
      </trkpt>
      <trkpt lat="55.589434" lon="13.070559">
        <ele>11</ele>
        <time>1970-01-01T01:00:00Z</time>
      </trkpt>
      <trkpt lat="55.589336" lon="13.070497">
        <ele>11</ele>
        <time>1970-01-01T01:00:00Z</time>
      </trkpt>
      <trkpt lat="55.589228" lon="13.070476">
        <ele>11</ele>
        <time>1970-01-01T01:00:00Z</time>
      </trkpt>
      <trkpt lat="55.589113" lon="13.070444">
        <ele>11</ele>
        <time>1970-01-01T01:00:00Z</time>
      </trkpt>
      <trkpt lat="55.589029" lon="13.070401">
        <ele>11</ele>
        <time>1970-01-01T01:00:00Z</time>
      </trkpt>
      <trkpt lat="55.588926" lon="13.070356">
        <ele>11</ele>
        <time>1970-01-01T01:00:00Z</time>
      </trkpt>
      <trkpt lat="55.588837" lon="13.070309">
        <ele>11</ele>
        <time>1970-01-01T01:00:00Z</time>
      </trkpt>
      <trkpt lat="55.588747" lon="13.070257">
        <ele>11</ele>
        <time>1970-01-01T01:00:00Z</time>
      </trkpt>
      <trkpt lat="55.588658" lon="13.070206">
        <ele>11</ele>
        <time>1970-01-01T01:00:00Z</time>
      </trkpt>
      <trkpt lat="55.588572" lon="13.070149">
        <ele>11</ele>
        <time>1970-01-01T01:00:00Z</time>
      </trkpt>
      <trkpt lat="55.588464" lon="13.070111">
        <ele>11</ele>
        <time>1970-01-01T01:00:00Z</time>
      </trkpt>
      <trkpt lat="55.588379" lon="13.070082">
        <ele>11.0909</ele>
        <time>1970-01-01T01:00:00Z</time>
      </trkpt>
      <trkpt lat="55.588255" lon="13.070008">
        <ele>11.1818</ele>
        <time>1970-01-01T01:00:00Z</time>
      </trkpt>
      <trkpt lat="55.588164" lon="13.069947">
        <ele>11.2727</ele>
        <time>1970-01-01T01:00:00Z</time>
      </trkpt>
      <trkpt lat="55.588063" lon="13.069901">
        <ele>11.3636</ele>
        <time>1970-01-01T01:00:00Z</time>
      </trkpt>
      <trkpt lat="55.587973" lon="13.069856">
        <ele>11.4545</ele>
        <time>1970-01-01T01:00:00Z</time>
      </trkpt>
      <trkpt lat="55.587894" lon="13.06982">
        <ele>11.5455</ele>
        <time>1970-01-01T01:00:00Z</time>
      </trkpt>
      <trkpt lat="55.58781" lon="13.069782">
        <ele>11.6364</ele>
        <time>1970-01-01T01:00:00Z</time>
      </trkpt>
      <trkpt lat="55.587729" lon="13.06973">
        <ele>11.7273</ele>
        <time>1970-01-01T01:00:00Z</time>
      </trkpt>
      <trkpt lat="55.587647" lon="13.069663">
        <ele>11.8182</ele>
        <time>1970-01-01T01:00:00Z</time>
      </trkpt>
      <trkpt lat="55.587553" lon="13.069603">
        <ele>12.1818</ele>
        <time>1970-01-01T01:00:00Z</time>
      </trkpt>
      <trkpt lat="55.587454" lon="13.069561">
        <ele>12.5455</ele>
        <time>1970-01-01T01:00:00Z</time>
      </trkpt>
      <trkpt lat="55.587349" lon="13.069523">
        <ele>12.8182</ele>
        <time>1970-01-01T01:00:00Z</time>
      </trkpt>
      <trkpt lat="55.587233" lon="13.069467">
        <ele>13.0909</ele>
        <time>1970-01-01T01:00:00Z</time>
      </trkpt>
      <trkpt lat="55.587132" lon="13.069413">
        <ele>13.3636</ele>
        <time>1970-01-01T01:00:00Z</time>
      </trkpt>
      <trkpt lat="55.58703" lon="13.069353">
        <ele>13.6364</ele>
        <time>1970-01-01T01:00:00Z</time>
      </trkpt>
      <trkpt lat="55.586937" lon="13.069297">
        <ele>13.9091</ele>
        <time>1970-01-01T01:00:00Z</time>
      </trkpt>
      <trkpt lat="55.586852" lon="13.06926">
        <ele>14.1818</ele>
        <time>1970-01-01T01:00:00Z</time>
      </trkpt>
      <trkpt lat="55.586732" lon="13.069201">
        <ele>14.6364</ele>
        <time>1970-01-01T01:00:00Z</time>
      </trkpt>
      <trkpt lat="55.58665" lon="13.069158">
        <ele>15.0909</ele>
        <time>1970-01-01T01:00:00Z</time>
      </trkpt>
      <trkpt lat="55.586561" lon="13.069116">
        <ele>15.5455</ele>
        <time>1970-01-01T01:00:00Z</time>
      </trkpt>
      <trkpt lat="55.586457" lon="13.069097">
        <ele>15.7273</ele>
        <time>1970-01-01T01:00:00Z</time>
      </trkpt>
      <trkpt lat="55.586358" lon="13.069063">
        <ele>15.9091</ele>
        <time>1970-01-01T01:00:00Z</time>
      </trkpt>
      <trkpt lat="55.586272" lon="13.069007">
        <ele>16.0909</ele>
        <time>1970-01-01T01:00:00Z</time>
      </trkpt>
      <trkpt lat="55.586168" lon="13.068968">
        <ele>16.2727</ele>
        <time>1970-01-01T01:00:00Z</time>
      </trkpt>
      <trkpt lat="55.586085" lon="13.068959">
        <ele>16.4545</ele>
        <time>1970-01-01T01:00:00Z</time>
      </trkpt>
      <trkpt lat="55.585993" lon="13.068902">
        <ele>16.6364</ele>
        <time>1970-01-01T01:00:00Z</time>
      </trkpt>
      <trkpt lat="55.585902" lon="13.068821">
        <ele>17</ele>
        <time>1970-01-01T01:00:00Z</time>
      </trkpt>
      <trkpt lat="55.585806" lon="13.068748">
        <ele>17.3636</ele>
        <time>1970-01-01T01:00:00Z</time>
      </trkpt>
      <trkpt lat="55.58572" lon="13.068711">
        <ele>17.5455</ele>
        <time>1970-01-01T01:00:00Z</time>
      </trkpt>
      <trkpt lat="55.585641" lon="13.068609">
        <ele>17.7273</ele>
        <time>1970-01-01T01:00:00Z</time>
      </trkpt>
      <trkpt lat="55.585533" lon="13.068535">
        <ele>17.9091</ele>
        <time>1970-01-01T01:00:00Z</time>
      </trkpt>
      <trkpt lat="55.585434" lon="13.06849">
        <ele>18.0909</ele>
        <time>1970-01-01T01:00:00Z</time>
      </trkpt>
      <trkpt lat="55.585323" lon="13.068453">
        <ele>18.2727</ele>
        <time>1970-01-01T01:00:00Z</time>
      </trkpt>
      <trkpt lat="55.585236" lon="13.068393">
        <ele>18.4545</ele>
        <time>1970-01-01T01:00:00Z</time>
      </trkpt>
      <trkpt lat="55.585146" lon="13.068324">
        <ele>18.6364</ele>
        <time>1970-01-01T01:00:00Z</time>
      </trkpt>
      <trkpt lat="55.585061" lon="13.068269">
        <ele>19</ele>
        <time>1970-01-01T01:00:00Z</time>
      </trkpt>
      <trkpt lat="55.584979" lon="13.068231">
        <ele>19.3636</ele>
        <time>1970-01-01T01:00:00Z</time>
      </trkpt>
      <trkpt lat="55.584893" lon="13.068182">
        <ele>19.6364</ele>
        <time>1970-01-01T01:00:00Z</time>
      </trkpt>
      <trkpt lat="55.5848" lon="13.068124">
        <ele>19.9091</ele>
        <time>1970-01-01T01:00:00Z</time>
      </trkpt>
      <trkpt lat="55.584692" lon="13.068074">
        <ele>20.1818</ele>
        <time>1970-01-01T01:00:00Z</time>
      </trkpt>
      <trkpt lat="55.584594" lon="13.068032">
        <ele>20.4545</ele>
        <time>1970-01-01T01:00:00Z</time>
      </trkpt>
      <trkpt lat="55.584492" lon="13.06801">
        <ele>20.7273</ele>
        <time>1970-01-01T01:00:00Z</time>
      </trkpt>
      <trkpt lat="55.584393" lon="13.067976">
        <ele>21</ele>
        <time>1970-01-01T01:00:00Z</time>
      </trkpt>
      <trkpt lat="55.584291" lon="13.06791">
        <ele>21.2727</ele>
        <time>1970-01-01T01:00:00Z</time>
      </trkpt>
      <trkpt lat="55.584195" lon="13.067864">
        <ele>21.7273</ele>
        <time>1970-01-01T01:00:00Z</time>
      </trkpt>
      <trkpt lat="55.584089" lon="13.067819">
        <ele>22.1818</ele>
        <time>1970-01-01T01:00:00Z</time>
      </trkpt>
      <trkpt lat="55.583996" lon="13.067778">
        <ele>22.4545</ele>
        <time>1970-01-01T01:00:00Z</time>
      </trkpt>
      <trkpt lat="55.583909" lon="13.067718">
        <ele>22.7273</ele>
        <time>1970-01-01T01:00:00Z</time>
      </trkpt>
      <trkpt lat="55.583813" lon="13.067678">
        <ele>22.9091</ele>
        <time>1970-01-01T01:00:00Z</time>
      </trkpt>
      <trkpt lat="55.583729" lon="13.067636">
        <ele>23.0909</ele>
        <time>1970-01-01T01:00:00Z</time>
      </trkpt>
      <trkpt lat="55.583647" lon="13.067596">
        <ele>23.2727</ele>
        <time>1970-01-01T01:00:00Z</time>
      </trkpt>
      <trkpt lat="55.583563" lon="13.067538">
        <ele>23.4545</ele>
        <time>1970-01-01T01:00:00Z</time>
      </trkpt>
      <trkpt lat="55.583463" lon="13.06749">
        <ele>23.6364</ele>
        <time>1970-01-01T01:00:00Z</time>
      </trkpt>
      <trkpt lat="55.583372" lon="13.067439">
        <ele>23.8182</ele>
        <time>1970-01-01T01:00:00Z</time>
      </trkpt>
      <trkpt lat="55.583277" lon="13.067375">
        <ele>24</ele>
        <time>1970-01-01T01:00:00Z</time>
      </trkpt>
      <trkpt lat="55.583186" lon="13.06731">
        <ele>24</ele>
        <time>1970-01-01T01:00:00Z</time>
      </trkpt>
      <trkpt lat="55.583087" lon="13.067239">
        <ele>24</ele>
        <time>1970-01-01T01:00:00Z</time>
      </trkpt>
      <trkpt lat="55.582995" lon="13.067185">
        <ele>24</ele>
        <time>1970-01-01T01:00:00Z</time>
      </trkpt>
      <trkpt lat="55.582915" lon="13.06713">
        <ele>24</ele>
        <time>1970-01-01T01:00:00Z</time>
      </trkpt>
      <trkpt lat="55.582831" lon="13.067062">
        <ele>24</ele>
        <time>1970-01-01T01:00:00Z</time>
      </trkpt>
      <trkpt lat="55.582737" lon="13.066989">
        <ele>24</ele>
        <time>1970-01-01T01:00:00Z</time>
      </trkpt>
      <trkpt lat="55.58265" lon="13.066925">
        <ele>24</ele>
        <time>1970-01-01T01:00:00Z</time>
      </trkpt>
      <trkpt lat="55.582571" lon="13.066817">
        <ele>24</ele>
        <time>1970-01-01T01:00:00Z</time>
      </trkpt>
      <trkpt lat="55.582494" lon="13.066739">
        <ele>24.1818</ele>
        <time>1970-01-01T01:00:00Z</time>
      </trkpt>
      <trkpt lat="55.582419" lon="13.066649">
        <ele>24.3636</ele>
        <time>1970-01-01T01:00:00Z</time>
      </trkpt>
      <trkpt lat="55.582333" lon="13.066582">
        <ele>24.5455</ele>
        <time>1970-01-01T01:00:00Z</time>
      </trkpt>
      <trkpt lat="55.582255" lon="13.066501">
        <ele>24.7273</ele>
        <time>1970-01-01T01:00:00Z</time>
      </trkpt>
      <trkpt lat="55.582183" lon="13.066395">
        <ele>24.9091</ele>
        <time>1970-01-01T01:00:00Z</time>
      </trkpt>
      <trkpt lat="55.582104" lon="13.06629">
        <ele>25.0909</ele>
        <time>1970-01-01T01:00:00Z</time>
      </trkpt>
      <trkpt lat="55.582033" lon="13.066186">
        <ele>25.2727</ele>
        <time>1970-01-01T01:00:00Z</time>
      </trkpt>
      <trkpt lat="55.581952" lon="13.066095">
        <ele>25.4545</ele>
        <time>1970-01-01T01:00:00Z</time>
      </trkpt>
      <trkpt lat="55.581852" lon="13.065997">
        <ele>25.7273</ele>
        <time>1970-01-01T01:00:00Z</time>
      </trkpt>
      <trkpt lat="55.581764" lon="13.065895">
        <ele>26</ele>
        <time>1970-01-01T01:00:00Z</time>
      </trkpt>
      <trkpt lat="55.581682" lon="13.065785">
        <ele>26.2727</ele>
        <time>1970-01-01T01:00:00Z</time>
      </trkpt>
      <trkpt lat="55.581603" lon="13.065699">
        <ele>26.3636</ele>
        <time>1970-01-01T01:00:00Z</time>
      </trkpt>
      <trkpt lat="55.581514" lon="13.065588">
        <ele>26.4545</ele>
        <time>1970-01-01T01:00:00Z</time>
      </trkpt>
      <trkpt lat="55.581434" lon="13.065474">
        <ele>26.5455</ele>
        <time>1970-01-01T01:00:00Z</time>
      </trkpt>
      <trkpt lat="55.581333" lon="13.065376">
        <ele>26.6364</ele>
        <time>1970-01-01T01:00:00Z</time>
      </trkpt>
      <trkpt lat="55.581256" lon="13.06529">
        <ele>26.7273</ele>
        <time>1970-01-01T01:00:00Z</time>
      </trkpt>
      <trkpt lat="55.581181" lon="13.065201">
        <ele>26.8182</ele>
        <time>1970-01-01T01:00:00Z</time>
      </trkpt>
      <trkpt lat="55.581112" lon="13.065117">
        <ele>27.1818</ele>
        <time>1970-01-01T01:00:00Z</time>
      </trkpt>
      <trkpt lat="55.581053" lon="13.064985">
        <ele>27.5455</ele>
        <time>1970-01-01T01:00:00Z</time>
      </trkpt>
      <trkpt lat="55.580986" lon="13.064902">
        <ele>27.8182</ele>
        <time>1970-01-01T01:00:00Z</time>
      </trkpt>
      <trkpt lat="55.580907" lon="13.064789">
        <ele>28.0909</ele>
        <time>1970-01-01T01:00:00Z</time>
      </trkpt>
      <trkpt lat="55.58083" lon="13.064727">
        <ele>28.0909</ele>
        <time>1970-01-01T01:00:00Z</time>
      </trkpt>
      <trkpt lat="55.58073" lon="13.064626">
        <ele>28.0909</ele>
        <time>1970-01-01T01:00:00Z</time>
      </trkpt>
      <trkpt lat="55.580656" lon="13.064531">
        <ele>28.0909</ele>
        <time>1970-01-01T01:00:00Z</time>
      </trkpt>
      <trkpt lat="55.580589" lon="13.064449">
        <ele>28.0909</ele>
        <time>1970-01-01T01:00:00Z</time>
      </trkpt>
      <trkpt lat="55.580509" lon="13.064379">
        <ele>28.0909</ele>
        <time>1970-01-01T01:00:00Z</time>
      </trkpt>
      <trkpt lat="55.580434" lon="13.064303">
        <ele>28.0909</ele>
        <time>1970-01-01T01:00:00Z</time>
      </trkpt>
      <trkpt lat="55.580355" lon="13.064215">
        <ele>28.0909</ele>
        <time>1970-01-01T01:00:00Z</time>
      </trkpt>
      <trkpt lat="55.580287" lon="13.064117">
        <ele>27.9091</ele>
        <time>1970-01-01T01:00:00Z</time>
      </trkpt>
      <trkpt lat="55.580204" lon="13.06402">
        <ele>27.7273</ele>
        <time>1970-01-01T01:00:00Z</time>
      </trkpt>
      <trkpt lat="55.580121" lon="13.063905">
        <ele>27.5455</ele>
        <time>1970-01-01T01:00:00Z</time>
      </trkpt>
      <trkpt lat="55.580048" lon="13.063829">
        <ele>27.3636</ele>
        <time>1970-01-01T01:00:00Z</time>
      </trkpt>
      <trkpt lat="55.579967" lon="13.063772">
        <ele>27.3636</ele>
        <time>1970-01-01T01:00:00Z</time>
      </trkpt>
      <trkpt lat="55.579906" lon="13.063674">
        <ele>27.3636</ele>
        <time>1970-01-01T01:00:00Z</time>
      </trkpt>
      <trkpt lat="55.57983" lon="13.063605">
        <ele>27.3636</ele>
        <time>1970-01-01T01:00:00Z</time>
      </trkpt>
      <trkpt lat="55.579753" lon="13.063498">
        <ele>27.3636</ele>
        <time>1970-01-01T01:00:00Z</time>
      </trkpt>
      <trkpt lat="55.579676" lon="13.063382">
        <ele>27.2727</ele>
        <time>1970-01-01T01:00:00Z</time>
      </trkpt>
      <trkpt lat="55.579619" lon="13.063264">
        <ele>27.1818</ele>
        <time>1970-01-01T01:00:00Z</time>
      </trkpt>
      <trkpt lat="55.579535" lon="13.063144">
        <ele>27.0909</ele>
        <time>1970-01-01T01:00:00Z</time>
      </trkpt>
      <trkpt lat="55.579443" lon="13.063048">
        <ele>26.9091</ele>
        <time>1970-01-01T01:00:00Z</time>
      </trkpt>
      <trkpt lat="55.579341" lon="13.062951">
        <ele>26.7273</ele>
        <time>1970-01-01T01:00:00Z</time>
      </trkpt>
      <trkpt lat="55.579246" lon="13.062837">
        <ele>26.5455</ele>
        <time>1970-01-01T01:00:00Z</time>
      </trkpt>
      <trkpt lat="55.579173" lon="13.062739">
        <ele>26.3636</ele>
        <time>1970-01-01T01:00:00Z</time>
      </trkpt>
      <trkpt lat="55.579076" lon="13.062635">
        <ele>26.2727</ele>
        <time>1970-01-01T01:00:00Z</time>
      </trkpt>
      <trkpt lat="55.578988" lon="13.062541">
        <ele>26.0909</ele>
        <time>1970-01-01T01:00:00Z</time>
      </trkpt>
      <trkpt lat="55.578907" lon="13.062448">
        <ele>25.9091</ele>
        <time>1970-01-01T01:00:00Z</time>
      </trkpt>
      <trkpt lat="55.578841" lon="13.062363">
        <ele>25.7273</ele>
        <time>1970-01-01T01:00:00Z</time>
      </trkpt>
      <trkpt lat="55.578793" lon="13.062233">
        <ele>25.6364</ele>
        <time>1970-01-01T01:00:00Z</time>
      </trkpt>
      <trkpt lat="55.578756" lon="13.062092">
        <ele>25.5455</ele>
        <time>1970-01-01T01:00:00Z</time>
      </trkpt>
      <trkpt lat="55.578673" lon="13.062047">
        <ele>25.4545</ele>
        <time>1970-01-01T01:00:00Z</time>
      </trkpt>
      <trkpt lat="55.578579" lon="13.062042">
        <ele>25.3636</ele>
        <time>1970-01-01T01:00:00Z</time>
      </trkpt>
      <trkpt lat="55.578495" lon="13.061961">
        <ele>25.2727</ele>
        <time>1970-01-01T01:00:00Z</time>
      </trkpt>
      <trkpt lat="55.578407" lon="13.061889">
        <ele>25.1818</ele>
        <time>1970-01-01T01:00:00Z</time>
      </trkpt>
      <trkpt lat="55.578314" lon="13.061817">
        <ele>25.1818</ele>
        <time>1970-01-01T01:00:00Z</time>
      </trkpt>
      <trkpt lat="55.578233" lon="13.061742">
        <ele>25.0909</ele>
        <time>1970-01-01T01:00:00Z</time>
      </trkpt>
      <trkpt lat="55.578134" lon="13.061672">
        <ele>25.0909</ele>
        <time>1970-01-01T01:00:00Z</time>
      </trkpt>
      <trkpt lat="55.57806" lon="13.061595">
        <ele>25.0909</ele>
        <time>1970-01-01T01:00:00Z</time>
      </trkpt>
      <trkpt lat="55.577985" lon="13.061527">
        <ele>25.0909</ele>
        <time>1970-01-01T01:00:00Z</time>
      </trkpt>
      <trkpt lat="55.577899" lon="13.061486">
        <ele>25.0909</ele>
        <time>1970-01-01T01:00:00Z</time>
      </trkpt>
      <trkpt lat="55.577993" lon="13.061446">
        <ele>25.0909</ele>
        <time>1970-01-01T01:00:00Z</time>
      </trkpt>
      <trkpt lat="55.578063" lon="13.061337">
        <ele>25.0909</ele>
        <time>1970-01-01T01:00:00Z</time>
      </trkpt>
      <trkpt lat="55.578134" lon="13.061252">
        <ele>25.0909</ele>
        <time>1970-01-01T01:00:00Z</time>
      </trkpt>
      <trkpt lat="55.578191" lon="13.06114">
        <ele>25.0909</ele>
        <time>1970-01-01T01:00:00Z</time>
      </trkpt>
      <trkpt lat="55.578187" lon="13.060977">
        <ele>25.0909</ele>
        <time>1970-01-01T01:00:00Z</time>
      </trkpt>
      <trkpt lat="55.57819" lon="13.060763">
        <ele>25</ele>
        <time>1970-01-01T01:00:00Z</time>
      </trkpt>
      <trkpt lat="55.578192" lon="13.060602">
        <ele>24.8182</ele>
        <time>1970-01-01T01:00:00Z</time>
      </trkpt>
      <trkpt lat="55.578195" lon="13.060417">
        <ele>24.6364</ele>
        <time>1970-01-01T01:00:00Z</time>
      </trkpt>
      <trkpt lat="55.578207" lon="13.060217">
        <ele>24.4545</ele>
        <time>1970-01-01T01:00:00Z</time>
      </trkpt>
      <trkpt lat="55.57823" lon="13.059977">
        <ele>24.2727</ele>
        <time>1970-01-01T01:00:00Z</time>
      </trkpt>
      <trkpt lat="55.578246" lon="13.05972">
        <ele>24</ele>
        <time>1970-01-01T01:00:00Z</time>
      </trkpt>
      <trkpt lat="55.578259" lon="13.059459">
        <ele>23.7273</ele>
        <time>1970-01-01T01:00:00Z</time>
      </trkpt>
      <trkpt lat="55.578288" lon="13.059277">
        <ele>23.4545</ele>
        <time>1970-01-01T01:00:00Z</time>
      </trkpt>
      <trkpt lat="55.578348" lon="13.059105">
        <ele>23.1818</ele>
        <time>1970-01-01T01:00:00Z</time>
      </trkpt>
      <trkpt lat="55.578399" lon="13.058945">
        <ele>22.9091</ele>
        <time>1970-01-01T01:00:00Z</time>
      </trkpt>
      <trkpt lat="55.578407" lon="13.058793">
        <ele>22.6364</ele>
        <time>1970-01-01T01:00:00Z</time>
      </trkpt>
      <trkpt lat="55.578397" lon="13.058637">
        <ele>22.3636</ele>
        <time>1970-01-01T01:00:00Z</time>
      </trkpt>
      <trkpt lat="55.578388" lon="13.058473">
        <ele>22.2727</ele>
        <time>1970-01-01T01:00:00Z</time>
      </trkpt>
      <trkpt lat="55.57839" lon="13.058249">
        <ele>22.1818</ele>
        <time>1970-01-01T01:00:00Z</time>
      </trkpt>
      <trkpt lat="55.578395" lon="13.058105">
        <ele>22.0909</ele>
        <time>1970-01-01T01:00:00Z</time>
      </trkpt>
      <trkpt lat="55.578394" lon="13.057929">
        <ele>22</ele>
        <time>1970-01-01T01:00:00Z</time>
      </trkpt>
      <trkpt lat="55.578382" lon="13.057782">
        <ele>22</ele>
        <time>1970-01-01T01:00:00Z</time>
      </trkpt>
      <trkpt lat="55.578395" lon="13.05761">
        <ele>21.7273</ele>
        <time>1970-01-01T01:00:00Z</time>
      </trkpt>
      <trkpt lat="55.578314" lon="13.057569">
        <ele>21.4545</ele>
        <time>1970-01-01T01:00:00Z</time>
      </trkpt>
      <trkpt lat="55.578231" lon="13.057521">
        <ele>21.1818</ele>
        <time>1970-01-01T01:00:00Z</time>
      </trkpt>
      <trkpt lat="55.578145" lon="13.057503">
        <ele>20.9091</ele>
        <time>1970-01-01T01:00:00Z</time>
      </trkpt>
      <trkpt lat="55.57803" lon="13.057491">
        <ele>20.6364</ele>
        <time>1970-01-01T01:00:00Z</time>
      </trkpt>
      <trkpt lat="55.577923" lon="13.057485">
        <ele>20.3636</ele>
        <time>1970-01-01T01:00:00Z</time>
      </trkpt>
      <trkpt lat="55.577826" lon="13.057513">
        <ele>20.0909</ele>
        <time>1970-01-01T01:00:00Z</time>
      </trkpt>
      <trkpt lat="55.577734" lon="13.057524">
        <ele>19.8182</ele>
        <time>1970-01-01T01:00:00Z</time>
      </trkpt>
      <trkpt lat="55.577642" lon="13.057522">
        <ele>19.5455</ele>
        <time>1970-01-01T01:00:00Z</time>
      </trkpt>
      <trkpt lat="55.577529" lon="13.057508">
        <ele>19.2727</ele>
        <time>1970-01-01T01:00:00Z</time>
      </trkpt>
      <trkpt lat="55.577429" lon="13.05749">
        <ele>19</ele>
        <time>1970-01-01T01:00:00Z</time>
      </trkpt>
      <trkpt lat="55.577347" lon="13.057483">
        <ele>19</ele>
        <time>1970-01-01T01:00:00Z</time>
      </trkpt>
      <trkpt lat="55.577234" lon="13.05748">
        <ele>19</ele>
        <time>1970-01-01T01:00:00Z</time>
      </trkpt>
      <trkpt lat="55.577125" lon="13.057565">
        <ele>19</ele>
        <time>1970-01-01T01:00:00Z</time>
      </trkpt>
      <trkpt lat="55.577009" lon="13.057576">
        <ele>19</ele>
        <time>1970-01-01T01:00:00Z</time>
      </trkpt>
      <trkpt lat="55.576923" lon="13.057574">
        <ele>19</ele>
        <time>1970-01-01T01:00:00Z</time>
      </trkpt>
      <trkpt lat="55.57683" lon="13.057579">
        <ele>19</ele>
        <time>1970-01-01T01:00:00Z</time>
      </trkpt>
      <trkpt lat="55.576734" lon="13.057562">
        <ele>19.1818</ele>
        <time>1970-01-01T01:00:00Z</time>
      </trkpt>
      <trkpt lat="55.576643" lon="13.057524">
        <ele>19.3636</ele>
        <time>1970-01-01T01:00:00Z</time>
      </trkpt>
      <trkpt lat="55.576542" lon="13.057489">
        <ele>19.5455</ele>
        <time>1970-01-01T01:00:00Z</time>
      </trkpt>
      <trkpt lat="55.576461" lon="13.057451">
        <ele>19.7273</ele>
        <time>1970-01-01T01:00:00Z</time>
      </trkpt>
      <trkpt lat="55.576362" lon="13.05744">
        <ele>19.9091</ele>
        <time>1970-01-01T01:00:00Z</time>
      </trkpt>
      <trkpt lat="55.576279" lon="13.057423">
        <ele>20.0909</ele>
        <time>1970-01-01T01:00:00Z</time>
      </trkpt>
      <trkpt lat="55.576201" lon="13.057381">
        <ele>20.2727</ele>
        <time>1970-01-01T01:00:00Z</time>
      </trkpt>
      <trkpt lat="55.57612" lon="13.05736">
        <ele>20.3636</ele>
        <time>1970-01-01T01:00:00Z</time>
      </trkpt>
      <trkpt lat="55.576026" lon="13.057335">
        <ele>20.4545</ele>
        <time>1970-01-01T01:00:00Z</time>
      </trkpt>
      <trkpt lat="55.575941" lon="13.057304">
        <ele>20.5455</ele>
        <time>1970-01-01T01:00:00Z</time>
      </trkpt>
      <trkpt lat="55.575818" lon="13.057242">
        <ele>20.6364</ele>
        <time>1970-01-01T01:00:00Z</time>
      </trkpt>
      <trkpt lat="55.575711" lon="13.057183">
        <ele>20.5455</ele>
        <time>1970-01-01T01:00:00Z</time>
      </trkpt>
      <trkpt lat="55.575624" lon="13.057129">
        <ele>20.4545</ele>
        <time>1970-01-01T01:00:00Z</time>
      </trkpt>
      <trkpt lat="55.575547" lon="13.057078">
        <ele>20.3636</ele>
        <time>1970-01-01T01:00:00Z</time>
      </trkpt>
      <trkpt lat="55.575436" lon="13.057002">
        <ele>20.2727</ele>
        <time>1970-01-01T01:00:00Z</time>
      </trkpt>
      <trkpt lat="55.575355" lon="13.056949">
        <ele>20.1818</ele>
        <time>1970-01-01T01:00:00Z</time>
      </trkpt>
      <trkpt lat="55.575272" lon="13.056902">
        <ele>20.0909</ele>
        <time>1970-01-01T01:00:00Z</time>
      </trkpt>
      <trkpt lat="55.575174" lon="13.056805">
        <ele>20</ele>
        <time>1970-01-01T01:00:00Z</time>
      </trkpt>
      <trkpt lat="55.575106" lon="13.056719">
        <ele>20</ele>
        <time>1970-01-01T01:00:00Z</time>
      </trkpt>
      <trkpt lat="55.575027" lon="13.056674">
        <ele>19.9091</ele>
        <time>1970-01-01T01:00:00Z</time>
      </trkpt>
      <trkpt lat="55.574919" lon="13.056628">
        <ele>19.9091</ele>
        <time>1970-01-01T01:00:00Z</time>
      </trkpt>
      <trkpt lat="55.57483" lon="13.056579">
        <ele>19.9091</ele>
        <time>1970-01-01T01:00:00Z</time>
      </trkpt>
      <trkpt lat="55.574744" lon="13.056511">
        <ele>19.9091</ele>
        <time>1970-01-01T01:00:00Z</time>
      </trkpt>
      <trkpt lat="55.574653" lon="13.05645">
        <ele>19.9091</ele>
        <time>1970-01-01T01:00:00Z</time>
      </trkpt>
      <trkpt lat="55.574563" lon="13.056393">
        <ele>19.9091</ele>
        <time>1970-01-01T01:00:00Z</time>
      </trkpt>
      <trkpt lat="55.574463" lon="13.056322">
        <ele>19.9091</ele>
        <time>1970-01-01T01:00:00Z</time>
      </trkpt>
      <trkpt lat="55.57438" lon="13.05628">
        <ele>19.9091</ele>
        <time>1970-01-01T01:00:00Z</time>
      </trkpt>
      <trkpt lat="55.574276" lon="13.056218">
        <ele>19.9091</ele>
        <time>1970-01-01T01:00:00Z</time>
      </trkpt>
      <trkpt lat="55.574196" lon="13.056158">
        <ele>20.0909</ele>
        <time>1970-01-01T01:00:00Z</time>
      </trkpt>
      <trkpt lat="55.57411" lon="13.056098">
        <ele>20.2727</ele>
        <time>1970-01-01T01:00:00Z</time>
      </trkpt>
      <trkpt lat="55.574017" lon="13.056042">
        <ele>20.5455</ele>
        <time>1970-01-01T01:00:00Z</time>
      </trkpt>
      <trkpt lat="55.573912" lon="13.055984">
        <ele>20.7273</ele>
        <time>1970-01-01T01:00:00Z</time>
      </trkpt>
      <trkpt lat="55.573807" lon="13.055933">
        <ele>20.9091</ele>
        <time>1970-01-01T01:00:00Z</time>
      </trkpt>
      <trkpt lat="55.573711" lon="13.055863">
        <ele>20.9091</ele>
        <time>1970-01-01T01:00:00Z</time>
      </trkpt>
      <trkpt lat="55.57363" lon="13.0558">
        <ele>20.9091</ele>
        <time>1970-01-01T01:00:00Z</time>
      </trkpt>
      <trkpt lat="55.573557" lon="13.055712">
        <ele>20.9091</ele>
        <time>1970-01-01T01:00:00Z</time>
      </trkpt>
      <trkpt lat="55.573477" lon="13.055642">
        <ele>20.9091</ele>
        <time>1970-01-01T01:00:00Z</time>
      </trkpt>
      <trkpt lat="55.573375" lon="13.055579">
        <ele>20.9091</ele>
        <time>1970-01-01T01:00:00Z</time>
      </trkpt>
      <trkpt lat="55.573282" lon="13.055472">
        <ele>21</ele>
        <time>1970-01-01T01:00:00Z</time>
      </trkpt>
      <trkpt lat="55.573216" lon="13.055388">
        <ele>20.9091</ele>
        <time>1970-01-01T01:00:00Z</time>
      </trkpt>
      <trkpt lat="55.573134" lon="13.055309">
        <ele>20.8182</ele>
        <time>1970-01-01T01:00:00Z</time>
      </trkpt>
      <trkpt lat="55.573032" lon="13.055229">
        <ele>20.7273</ele>
        <time>1970-01-01T01:00:00Z</time>
      </trkpt>
      <trkpt lat="55.572943" lon="13.055198">
        <ele>20.6364</ele>
        <time>1970-01-01T01:00:00Z</time>
      </trkpt>
      <trkpt lat="55.572844" lon="13.055176">
        <ele>20.5455</ele>
        <time>1970-01-01T01:00:00Z</time>
      </trkpt>
      <trkpt lat="55.572745" lon="13.055097">
        <ele>20.6364</ele>
        <time>1970-01-01T01:00:00Z</time>
      </trkpt>
      <trkpt lat="55.572678" lon="13.055006">
        <ele>20.7273</ele>
        <time>1970-01-01T01:00:00Z</time>
      </trkpt>
      <trkpt lat="55.57263" lon="13.054873">
        <ele>20.8182</ele>
        <time>1970-01-01T01:00:00Z</time>
      </trkpt>
      <trkpt lat="55.572528" lon="13.054853">
        <ele>21</ele>
        <time>1970-01-01T01:00:00Z</time>
      </trkpt>
      <trkpt lat="55.572361" lon="13.05473">
        <ele>21.1818</ele>
        <time>1970-01-01T01:00:00Z</time>
      </trkpt>
      <trkpt lat="55.572277" lon="13.054639">
        <ele>21.2727</ele>
        <time>1970-01-01T01:00:00Z</time>
      </trkpt>
      <trkpt lat="55.572202" lon="13.05458">
        <ele>21.3636</ele>
        <time>1970-01-01T01:00:00Z</time>
      </trkpt>
      <trkpt lat="55.572132" lon="13.054484">
        <ele>21.4545</ele>
        <time>1970-01-01T01:00:00Z</time>
      </trkpt>
      <trkpt lat="55.572049" lon="13.054373">
        <ele>21.5455</ele>
        <time>1970-01-01T01:00:00Z</time>
      </trkpt>
      <trkpt lat="55.571978" lon="13.054271">
        <ele>21.6364</ele>
        <time>1970-01-01T01:00:00Z</time>
      </trkpt>
      <trkpt lat="55.571909" lon="13.054174">
        <ele>21.7273</ele>
        <time>1970-01-01T01:00:00Z</time>
      </trkpt>
      <trkpt lat="55.5718" lon="13.054066">
        <ele>21.8182</ele>
        <time>1970-01-01T01:00:00Z</time>
      </trkpt>
      <trkpt lat="55.571701" lon="13.053957">
        <ele>21.9091</ele>
        <time>1970-01-01T01:00:00Z</time>
      </trkpt>
      <trkpt lat="55.571607" lon="13.053872">
        <ele>22</ele>
        <time>1970-01-01T01:00:00Z</time>
      </trkpt>
      <trkpt lat="55.571529" lon="13.053795">
        <ele>22</ele>
        <time>1970-01-01T01:00:00Z</time>
      </trkpt>
      <trkpt lat="55.571453" lon="13.05373">
        <ele>22</ele>
        <time>1970-01-01T01:00:00Z</time>
      </trkpt>
      <trkpt lat="55.571366" lon="13.053639">
        <ele>22</ele>
        <time>1970-01-01T01:00:00Z</time>
      </trkpt>
      <trkpt lat="55.571293" lon="13.05356">
        <ele>22</ele>
        <time>1970-01-01T01:00:00Z</time>
      </trkpt>
      <trkpt lat="55.571201" lon="13.053475">
        <ele>22</ele>
        <time>1970-01-01T01:00:00Z</time>
      </trkpt>
      <trkpt lat="55.571121" lon="13.053371">
        <ele>22</ele>
        <time>1970-01-01T01:00:00Z</time>
      </trkpt>
      <trkpt lat="55.571022" lon="13.053274">
        <ele>22.0909</ele>
        <time>1970-01-01T01:00:00Z</time>
      </trkpt>
      <trkpt lat="55.570929" lon="13.053196">
        <ele>22.1818</ele>
        <time>1970-01-01T01:00:00Z</time>
      </trkpt>
      <trkpt lat="55.570845" lon="13.053122">
        <ele>22.2727</ele>
        <time>1970-01-01T01:00:00Z</time>
      </trkpt>
      <trkpt lat="55.570766" lon="13.053045">
        <ele>22.5455</ele>
        <time>1970-01-01T01:00:00Z</time>
      </trkpt>
      <trkpt lat="55.570696" lon="13.052972">
        <ele>22.8182</ele>
        <time>1970-01-01T01:00:00Z</time>
      </trkpt>
      <trkpt lat="55.570617" lon="13.0529">
        <ele>23.0909</ele>
        <time>1970-01-01T01:00:00Z</time>
      </trkpt>
      <trkpt lat="55.570539" lon="13.052838">
        <ele>23.3636</ele>
        <time>1970-01-01T01:00:00Z</time>
      </trkpt>
      <trkpt lat="55.570467" lon="13.052719">
        <ele>23.6364</ele>
        <time>1970-01-01T01:00:00Z</time>
      </trkpt>
      <trkpt lat="55.570376" lon="13.052614">
        <ele>23.9091</ele>
        <time>1970-01-01T01:00:00Z</time>
      </trkpt>
      <trkpt lat="55.570287" lon="13.052498">
        <ele>24.1818</ele>
        <time>1970-01-01T01:00:00Z</time>
      </trkpt>
      <trkpt lat="55.570199" lon="13.052401">
        <ele>24.4545</ele>
        <time>1970-01-01T01:00:00Z</time>
      </trkpt>
      <trkpt lat="55.570129" lon="13.052326">
        <ele>24.6364</ele>
        <time>1970-01-01T01:00:00Z</time>
      </trkpt>
      <trkpt lat="55.570047" lon="13.052237">
        <ele>24.8182</ele>
        <time>1970-01-01T01:00:00Z</time>
      </trkpt>
      <trkpt lat="55.569959" lon="13.052147">
        <ele>25</ele>
        <time>1970-01-01T01:00:00Z</time>
      </trkpt>
      <trkpt lat="55.569883" lon="13.052058">
        <ele>25</ele>
        <time>1970-01-01T01:00:00Z</time>
      </trkpt>
      <trkpt lat="55.569787" lon="13.052115">
        <ele>25</ele>
        <time>1970-01-01T01:00:00Z</time>
      </trkpt>
      <trkpt lat="55.569719" lon="13.052247">
        <ele>25.0909</ele>
        <time>1970-01-01T01:00:00Z</time>
      </trkpt>
      <trkpt lat="55.569662" lon="13.052353">
        <ele>25.1818</ele>
        <time>1970-01-01T01:00:00Z</time>
      </trkpt>
      <trkpt lat="55.569586" lon="13.052502">
        <ele>25.2727</ele>
        <time>1970-01-01T01:00:00Z</time>
      </trkpt>
      <trkpt lat="55.569516" lon="13.052646">
        <ele>25.3636</ele>
        <time>1970-01-01T01:00:00Z</time>
      </trkpt>
      <trkpt lat="55.569446" lon="13.052809">
        <ele>25.4545</ele>
        <time>1970-01-01T01:00:00Z</time>
      </trkpt>
      <trkpt lat="55.569384" lon="13.052962">
        <ele>25.4545</ele>
        <time>1970-01-01T01:00:00Z</time>
      </trkpt>
      <trkpt lat="55.569314" lon="13.05304">
        <ele>25.4545</ele>
        <time>1970-01-01T01:00:00Z</time>
      </trkpt>
      <trkpt lat="55.569255" lon="13.053166">
        <ele>25.4545</ele>
        <time>1970-01-01T01:00:00Z</time>
      </trkpt>
      <trkpt lat="55.569329" lon="13.053092">
        <ele>25.4545</ele>
        <time>1970-01-01T01:00:00Z</time>
      </trkpt>
      <trkpt lat="55.5694" lon="13.05296">
        <ele>25.4545</ele>
        <time>1970-01-01T01:00:00Z</time>
      </trkpt>
      <trkpt lat="55.569455" lon="13.052846">
        <ele>25.4545</ele>
        <time>1970-01-01T01:00:00Z</time>
      </trkpt>
      <trkpt lat="55.569522" lon="13.052698">
        <ele>25.3636</ele>
        <time>1970-01-01T01:00:00Z</time>
      </trkpt>
      <trkpt lat="55.569586" lon="13.05254">
        <ele>25.2727</ele>
        <time>1970-01-01T01:00:00Z</time>
      </trkpt>
      <trkpt lat="55.569633" lon="13.052417">
        <ele>25.1818</ele>
        <time>1970-01-01T01:00:00Z</time>
      </trkpt>
      <trkpt lat="55.569708" lon="13.052257">
        <ele>25.0909</ele>
        <time>1970-01-01T01:00:00Z</time>
      </trkpt>
      <trkpt lat="55.569757" lon="13.05214">
        <ele>25</ele>
        <time>1970-01-01T01:00:00Z</time>
      </trkpt>
      <trkpt lat="55.569808" lon="13.052027">
        <ele>25</ele>
        <time>1970-01-01T01:00:00Z</time>
      </trkpt>
      <trkpt lat="55.569869" lon="13.051885">
        <ele>25</ele>
        <time>1970-01-01T01:00:00Z</time>
      </trkpt>
      <trkpt lat="55.569921" lon="13.051731">
        <ele>25</ele>
        <time>1970-01-01T01:00:00Z</time>
      </trkpt>
      <trkpt lat="55.569977" lon="13.051584">
        <ele>25</ele>
        <time>1970-01-01T01:00:00Z</time>
      </trkpt>
      <trkpt lat="55.570037" lon="13.051452">
        <ele>25</ele>
        <time>1970-01-01T01:00:00Z</time>
      </trkpt>
      <trkpt lat="55.570078" lon="13.051282">
        <ele>25</ele>
        <time>1970-01-01T01:00:00Z</time>
      </trkpt>
      <trkpt lat="55.570109" lon="13.051094">
        <ele>24.7273</ele>
        <time>1970-01-01T01:00:00Z</time>
      </trkpt>
      <trkpt lat="55.570133" lon="13.050915">
        <ele>24.4545</ele>
        <time>1970-01-01T01:00:00Z</time>
      </trkpt>
      <trkpt lat="55.570191" lon="13.050743">
        <ele>24.1818</ele>
        <time>1970-01-01T01:00:00Z</time>
      </trkpt>
      <trkpt lat="55.570283" lon="13.050667">
        <ele>23.9091</ele>
        <time>1970-01-01T01:00:00Z</time>
      </trkpt>
      <trkpt lat="55.57038" lon="13.050632">
        <ele>23.6364</ele>
        <time>1970-01-01T01:00:00Z</time>
      </trkpt>
      <trkpt lat="55.570475" lon="13.05062">
        <ele>23.3636</ele>
        <time>1970-01-01T01:00:00Z</time>
      </trkpt>
      <trkpt lat="55.570572" lon="13.050618">
        <ele>23.0909</ele>
        <time>1970-01-01T01:00:00Z</time>
      </trkpt>
      <trkpt lat="55.57068" lon="13.050602">
        <ele>22.8182</ele>
        <time>1970-01-01T01:00:00Z</time>
      </trkpt>
      <trkpt lat="55.570797" lon="13.05058">
        <ele>22.5455</ele>
        <time>1970-01-01T01:00:00Z</time>
      </trkpt>
      <trkpt lat="55.570917" lon="13.050566">
        <ele>22.2727</ele>
        <time>1970-01-01T01:00:00Z</time>
      </trkpt>
      <trkpt lat="55.571044" lon="13.050548">
        <ele>22</ele>
        <time>1970-01-01T01:00:00Z</time>
      </trkpt>
      <trkpt lat="55.571188" lon="13.050538">
        <ele>22</ele>
        <time>1970-01-01T01:00:00Z</time>
      </trkpt>
      <trkpt lat="55.571323" lon="13.050518">
        <ele>22</ele>
        <time>1970-01-01T01:00:00Z</time>
      </trkpt>
      <trkpt lat="55.571449" lon="13.050512">
        <ele>22</ele>
        <time>1970-01-01T01:00:00Z</time>
      </trkpt>
      <trkpt lat="55.571572" lon="13.050498">
        <ele>22</ele>
        <time>1970-01-01T01:00:00Z</time>
      </trkpt>
      <trkpt lat="55.571683" lon="13.050494">
        <ele>21.9091</ele>
        <time>1970-01-01T01:00:00Z</time>
      </trkpt>
      <trkpt lat="55.571796" lon="13.05049">
        <ele>21.8182</ele>
        <time>1970-01-01T01:00:00Z</time>
      </trkpt>
      <trkpt lat="55.571898" lon="13.050483">
        <ele>21.7273</ele>
        <time>1970-01-01T01:00:00Z</time>
      </trkpt>
      <trkpt lat="55.571999" lon="13.050476">
        <ele>21.6364</ele>
        <time>1970-01-01T01:00:00Z</time>
      </trkpt>
      <trkpt lat="55.572093" lon="13.050459">
        <ele>21.5455</ele>
        <time>1970-01-01T01:00:00Z</time>
      </trkpt>
      <trkpt lat="55.572177" lon="13.050431">
        <ele>21.4545</ele>
        <time>1970-01-01T01:00:00Z</time>
      </trkpt>
      <trkpt lat="55.572263" lon="13.050348">
        <ele>21.3636</ele>
        <time>1970-01-01T01:00:00Z</time>
      </trkpt>
      <trkpt lat="55.572337" lon="13.050202">
        <ele>21.2727</ele>
        <time>1970-01-01T01:00:00Z</time>
      </trkpt>
      <trkpt lat="55.572409" lon="13.050046">
        <ele>21.1818</ele>
        <time>1970-01-01T01:00:00Z</time>
      </trkpt>
      <trkpt lat="55.572479" lon="13.049909">
        <ele>21.0909</ele>
        <time>1970-01-01T01:00:00Z</time>
      </trkpt>
      <trkpt lat="55.572553" lon="13.049767">
        <ele>21</ele>
        <time>1970-01-01T01:00:00Z</time>
      </trkpt>
      <trkpt lat="55.572614" lon="13.049592">
        <ele>21</ele>
        <time>1970-01-01T01:00:00Z</time>
      </trkpt>
      <trkpt lat="55.57267" lon="13.049417">
        <ele>21</ele>
        <time>1970-01-01T01:00:00Z</time>
      </trkpt>
      <trkpt lat="55.572731" lon="13.049243">
        <ele>21</ele>
        <time>1970-01-01T01:00:00Z</time>
      </trkpt>
      <trkpt lat="55.572793" lon="13.049065">
        <ele>21</ele>
        <time>1970-01-01T01:00:00Z</time>
      </trkpt>
      <trkpt lat="55.572862" lon="13.048889">
        <ele>21.0909</ele>
        <time>1970-01-01T01:00:00Z</time>
      </trkpt>
      <trkpt lat="55.572931" lon="13.048708">
        <ele>21.1818</ele>
        <time>1970-01-01T01:00:00Z</time>
      </trkpt>
      <trkpt lat="55.572984" lon="13.048512">
        <ele>21.2727</ele>
        <time>1970-01-01T01:00:00Z</time>
      </trkpt>
      <trkpt lat="55.573027" lon="13.048333">
        <ele>21.3636</ele>
        <time>1970-01-01T01:00:00Z</time>
      </trkpt>
      <trkpt lat="55.573064" lon="13.048133">
        <ele>21.4545</ele>
        <time>1970-01-01T01:00:00Z</time>
      </trkpt>
      <trkpt lat="55.573121" lon="13.047962">
        <ele>21.5455</ele>
        <time>1970-01-01T01:00:00Z</time>
      </trkpt>
      <trkpt lat="55.57318" lon="13.047793">
        <ele>21.6364</ele>
        <time>1970-01-01T01:00:00Z</time>
      </trkpt>
      <trkpt lat="55.573232" lon="13.047673">
        <ele>21.7273</ele>
        <time>1970-01-01T01:00:00Z</time>
      </trkpt>
      <trkpt lat="55.5733" lon="13.047532">
        <ele>21.8182</ele>
        <time>1970-01-01T01:00:00Z</time>
      </trkpt>
      <trkpt lat="55.573345" lon="13.047389">
        <ele>21.9091</ele>
        <time>1970-01-01T01:00:00Z</time>
      </trkpt>
      <trkpt lat="55.573388" lon="13.047254">
        <ele>22</ele>
        <time>1970-01-01T01:00:00Z</time>
      </trkpt>
      <trkpt lat="55.573429" lon="13.0471">
        <ele>22</ele>
        <time>1970-01-01T01:00:00Z</time>
      </trkpt>
      <trkpt lat="55.57348" lon="13.046985">
        <ele>21.9091</ele>
        <time>1970-01-01T01:00:00Z</time>
      </trkpt>
      <trkpt lat="55.573527" lon="13.046823">
        <ele>21.7273</ele>
        <time>1970-01-01T01:00:00Z</time>
      </trkpt>
      <trkpt lat="55.573548" lon="13.046685">
        <ele>21.5455</ele>
        <time>1970-01-01T01:00:00Z</time>
      </trkpt>
      <trkpt lat="55.573599" lon="13.046541">
        <ele>21.3636</ele>
        <time>1970-01-01T01:00:00Z</time>
      </trkpt>
      <trkpt lat="55.573639" lon="13.046412">
        <ele>21.1818</ele>
        <time>1970-01-01T01:00:00Z</time>
      </trkpt>
      <trkpt lat="55.573703" lon="13.046316">
        <ele>21</ele>
        <time>1970-01-01T01:00:00Z</time>
      </trkpt>
      <trkpt lat="55.573759" lon="13.046211">
        <ele>20.8182</ele>
        <time>1970-01-01T01:00:00Z</time>
      </trkpt>
      <trkpt lat="55.573817" lon="13.046101">
        <ele>20.6364</ele>
        <time>1970-01-01T01:00:00Z</time>
      </trkpt>
      <trkpt lat="55.573867" lon="13.045979">
        <ele>20.4545</ele>
        <time>1970-01-01T01:00:00Z</time>
      </trkpt>
      <trkpt lat="55.573924" lon="13.045874">
        <ele>20.2727</ele>
        <time>1970-01-01T01:00:00Z</time>
      </trkpt>
      <trkpt lat="55.573998" lon="13.04571">
        <ele>20.0909</ele>
        <time>1970-01-01T01:00:00Z</time>
      </trkpt>
      <trkpt lat="55.57407" lon="13.045559">
        <ele>20</ele>
        <time>1970-01-01T01:00:00Z</time>
      </trkpt>
      <trkpt lat="55.574135" lon="13.045418">
        <ele>20.0909</ele>
        <time>1970-01-01T01:00:00Z</time>
      </trkpt>
      <trkpt lat="55.574206" lon="13.045288">
        <ele>20.1818</ele>
        <time>1970-01-01T01:00:00Z</time>
      </trkpt>
      <trkpt lat="55.574254" lon="13.045158">
        <ele>20.2727</ele>
        <time>1970-01-01T01:00:00Z</time>
      </trkpt>
      <trkpt lat="55.574308" lon="13.044976">
        <ele>20.3636</ele>
        <time>1970-01-01T01:00:00Z</time>
      </trkpt>
      <trkpt lat="55.574351" lon="13.04478">
        <ele>20.4545</ele>
        <time>1970-01-01T01:00:00Z</time>
      </trkpt>
      <trkpt lat="55.574399" lon="13.044637">
        <ele>20.4545</ele>
        <time>1970-01-01T01:00:00Z</time>
      </trkpt>
      <trkpt lat="55.574445" lon="13.0445">
        <ele>20.4545</ele>
        <time>1970-01-01T01:00:00Z</time>
      </trkpt>
      <trkpt lat="55.574482" lon="13.044365">
        <ele>20.4545</ele>
        <time>1970-01-01T01:00:00Z</time>
      </trkpt>
      <trkpt lat="55.574538" lon="13.044214">
        <ele>20.4545</ele>
        <time>1970-01-01T01:00:00Z</time>
      </trkpt>
      <trkpt lat="55.574603" lon="13.044073">
        <ele>20.4545</ele>
        <time>1970-01-01T01:00:00Z</time>
      </trkpt>
      <trkpt lat="55.574653" lon="13.043921">
        <ele>20.4545</ele>
        <time>1970-01-01T01:00:00Z</time>
      </trkpt>
      <trkpt lat="55.57471" lon="13.043781">
        <ele>20.3636</ele>
        <time>1970-01-01T01:00:00Z</time>
      </trkpt>
      <trkpt lat="55.57477" lon="13.043638">
        <ele>20.2727</ele>
        <time>1970-01-01T01:00:00Z</time>
      </trkpt>
      <trkpt lat="55.574808" lon="13.043495">
        <ele>20.2727</ele>
        <time>1970-01-01T01:00:00Z</time>
      </trkpt>
      <trkpt lat="55.574852" lon="13.043363">
        <ele>20.2727</ele>
        <time>1970-01-01T01:00:00Z</time>
      </trkpt>
      <trkpt lat="55.574895" lon="13.043237">
        <ele>20.2727</ele>
        <time>1970-01-01T01:00:00Z</time>
      </trkpt>
      <trkpt lat="55.574945" lon="13.043112">
        <ele>20.3636</ele>
        <time>1970-01-01T01:00:00Z</time>
      </trkpt>
      <trkpt lat="55.575008" lon="13.042952">
        <ele>20.4545</ele>
        <time>1970-01-01T01:00:00Z</time>
      </trkpt>
      <trkpt lat="55.575065" lon="13.042796">
        <ele>20.5455</ele>
        <time>1970-01-01T01:00:00Z</time>
      </trkpt>
      <trkpt lat="55.575117" lon="13.042684">
        <ele>20.6364</ele>
        <time>1970-01-01T01:00:00Z</time>
      </trkpt>
      <trkpt lat="55.575193" lon="13.042518">
        <ele>20.7273</ele>
        <time>1970-01-01T01:00:00Z</time>
      </trkpt>
      <trkpt lat="55.575251" lon="13.04236">
        <ele>20.8182</ele>
        <time>1970-01-01T01:00:00Z</time>
      </trkpt>
      <trkpt lat="55.575306" lon="13.042233">
        <ele>20.9091</ele>
        <time>1970-01-01T01:00:00Z</time>
      </trkpt>
      <trkpt lat="55.575384" lon="13.04209">
        <ele>21</ele>
        <time>1970-01-01T01:00:00Z</time>
      </trkpt>
      <trkpt lat="55.575449" lon="13.041979">
        <ele>21.0909</ele>
        <time>1970-01-01T01:00:00Z</time>
      </trkpt>
      <trkpt lat="55.575482" lon="13.041797">
        <ele>21.1818</ele>
        <time>1970-01-01T01:00:00Z</time>
      </trkpt>
      <trkpt lat="55.575498" lon="13.041656">
        <ele>21.2727</ele>
        <time>1970-01-01T01:00:00Z</time>
      </trkpt>
      <trkpt lat="55.575531" lon="13.041508">
        <ele>21.3636</ele>
        <time>1970-01-01T01:00:00Z</time>
      </trkpt>
      <trkpt lat="55.575583" lon="13.041356">
        <ele>21.4545</ele>
        <time>1970-01-01T01:00:00Z</time>
      </trkpt>
      <trkpt lat="55.575641" lon="13.041196">
        <ele>21.5455</ele>
        <time>1970-01-01T01:00:00Z</time>
      </trkpt>
      <trkpt lat="55.575662" lon="13.041032">
        <ele>21.6364</ele>
        <time>1970-01-01T01:00:00Z</time>
      </trkpt>
      <trkpt lat="55.575702" lon="13.040877">
        <ele>21.7273</ele>
        <time>1970-01-01T01:00:00Z</time>
      </trkpt>
      <trkpt lat="55.575763" lon="13.040704">
        <ele>21.8182</ele>
        <time>1970-01-01T01:00:00Z</time>
      </trkpt>
      <trkpt lat="55.575826" lon="13.040539">
        <ele>21.9091</ele>
        <time>1970-01-01T01:00:00Z</time>
      </trkpt>
      <trkpt lat="55.575901" lon="13.040377">
        <ele>21.9091</ele>
        <time>1970-01-01T01:00:00Z</time>
      </trkpt>
      <trkpt lat="55.57598" lon="13.040204">
        <ele>21.8182</ele>
        <time>1970-01-01T01:00:00Z</time>
      </trkpt>
      <trkpt lat="55.57604" lon="13.040054">
        <ele>21.7273</ele>
        <time>1970-01-01T01:00:00Z</time>
      </trkpt>
      <trkpt lat="55.576091" lon="13.039851">
        <ele>21.6364</ele>
        <time>1970-01-01T01:00:00Z</time>
      </trkpt>
      <trkpt lat="55.576159" lon="13.039709">
        <ele>21.5455</ele>
        <time>1970-01-01T01:00:00Z</time>
      </trkpt>
      <trkpt lat="55.576219" lon="13.039573">
        <ele>21.4545</ele>
        <time>1970-01-01T01:00:00Z</time>
      </trkpt>
      <trkpt lat="55.576281" lon="13.039442">
        <ele>21.2727</ele>
        <time>1970-01-01T01:00:00Z</time>
      </trkpt>
      <trkpt lat="55.576343" lon="13.039291">
        <ele>21.0909</ele>
        <time>1970-01-01T01:00:00Z</time>
      </trkpt>
      <trkpt lat="55.576415" lon="13.039145">
        <ele>20.9091</ele>
        <time>1970-01-01T01:00:00Z</time>
      </trkpt>
      <trkpt lat="55.576513" lon="13.039024">
        <ele>20.7273</ele>
        <time>1970-01-01T01:00:00Z</time>
      </trkpt>
      <trkpt lat="55.576575" lon="13.038867">
        <ele>20.5455</ele>
        <time>1970-01-01T01:00:00Z</time>
      </trkpt>
      <trkpt lat="55.576627" lon="13.038723">
        <ele>20.4545</ele>
        <time>1970-01-01T01:00:00Z</time>
      </trkpt>
      <trkpt lat="55.576681" lon="13.038567">
        <ele>20.3636</ele>
        <time>1970-01-01T01:00:00Z</time>
      </trkpt>
      <trkpt lat="55.576742" lon="13.038439">
        <ele>20.2727</ele>
        <time>1970-01-01T01:00:00Z</time>
      </trkpt>
      <trkpt lat="55.576811" lon="13.038298">
        <ele>20.1818</ele>
        <time>1970-01-01T01:00:00Z</time>
      </trkpt>
      <trkpt lat="55.57687" lon="13.038167">
        <ele>20.0909</ele>
        <time>1970-01-01T01:00:00Z</time>
      </trkpt>
      <trkpt lat="55.576922" lon="13.038022">
        <ele>20</ele>
        <time>1970-01-01T01:00:00Z</time>
      </trkpt>
      <trkpt lat="55.57698" lon="13.03788">
        <ele>20</ele>
        <time>1970-01-01T01:00:00Z</time>
      </trkpt>
      <trkpt lat="55.577041" lon="13.037742">
        <ele>20</ele>
        <time>1970-01-01T01:00:00Z</time>
      </trkpt>
      <trkpt lat="55.577095" lon="13.037614">
        <ele>20</ele>
        <time>1970-01-01T01:00:00Z</time>
      </trkpt>
      <trkpt lat="55.577151" lon="13.037487">
        <ele>20</ele>
        <time>1970-01-01T01:00:00Z</time>
      </trkpt>
      <trkpt lat="55.577212" lon="13.037343">
        <ele>20</ele>
        <time>1970-01-01T01:00:00Z</time>
      </trkpt>
      <trkpt lat="55.577251" lon="13.037199">
        <ele>20</ele>
        <time>1970-01-01T01:00:00Z</time>
      </trkpt>
      <trkpt lat="55.577271" lon="13.037059">
        <ele>19.9091</ele>
        <time>1970-01-01T01:00:00Z</time>
      </trkpt>
      <trkpt lat="55.577311" lon="13.036862">
        <ele>19.8182</ele>
        <time>1970-01-01T01:00:00Z</time>
      </trkpt>
      <trkpt lat="55.577372" lon="13.03667">
        <ele>19.7273</ele>
        <time>1970-01-01T01:00:00Z</time>
      </trkpt>
      <trkpt lat="55.577396" lon="13.036522">
        <ele>19.6364</ele>
        <time>1970-01-01T01:00:00Z</time>
      </trkpt>
      <trkpt lat="55.577416" lon="13.036357">
        <ele>19.5455</ele>
        <time>1970-01-01T01:00:00Z</time>
      </trkpt>
      <trkpt lat="55.577401" lon="13.036214">
        <ele>19.4545</ele>
        <time>1970-01-01T01:00:00Z</time>
      </trkpt>
      <trkpt lat="55.577438" lon="13.036081">
        <ele>19.3636</ele>
        <time>1970-01-01T01:00:00Z</time>
      </trkpt>
      <trkpt lat="55.577483" lon="13.035943">
        <ele>19.2727</ele>
        <time>1970-01-01T01:00:00Z</time>
      </trkpt>
      <trkpt lat="55.577498" lon="13.035789">
        <ele>19.1818</ele>
        <time>1970-01-01T01:00:00Z</time>
      </trkpt>
      <trkpt lat="55.577483" lon="13.035611">
        <ele>19.0909</ele>
        <time>1970-01-01T01:00:00Z</time>
      </trkpt>
      <trkpt lat="55.577506" lon="13.035443">
        <ele>19.1818</ele>
        <time>1970-01-01T01:00:00Z</time>
      </trkpt>
      <trkpt lat="55.57754" lon="13.035297">
        <ele>19.3636</ele>
        <time>1970-01-01T01:00:00Z</time>
      </trkpt>
      <trkpt lat="55.577569" lon="13.035106">
        <ele>19.5455</ele>
        <time>1970-01-01T01:00:00Z</time>
      </trkpt>
      <trkpt lat="55.577582" lon="13.034914">
        <ele>19.7273</ele>
        <time>1970-01-01T01:00:00Z</time>
      </trkpt>
      <trkpt lat="55.57759" lon="13.03472">
        <ele>19.9091</ele>
        <time>1970-01-01T01:00:00Z</time>
      </trkpt>
      <trkpt lat="55.577583" lon="13.034525">
        <ele>20.1818</ele>
        <time>1970-01-01T01:00:00Z</time>
      </trkpt>
      <trkpt lat="55.577598" lon="13.034368">
        <ele>20.4545</ele>
        <time>1970-01-01T01:00:00Z</time>
      </trkpt>
      <trkpt lat="55.577636" lon="13.034168">
        <ele>20.7273</ele>
        <time>1970-01-01T01:00:00Z</time>
      </trkpt>
      <trkpt lat="55.577648" lon="13.033977">
        <ele>21</ele>
        <time>1970-01-01T01:00:00Z</time>
      </trkpt>
      <trkpt lat="55.577648" lon="13.033826">
        <ele>21.2727</ele>
        <time>1970-01-01T01:00:00Z</time>
      </trkpt>
      <trkpt lat="55.577651" lon="13.033663">
        <ele>21.4545</ele>
        <time>1970-01-01T01:00:00Z</time>
      </trkpt>
      <trkpt lat="55.577675" lon="13.033523">
        <ele>21.4545</ele>
        <time>1970-01-01T01:00:00Z</time>
      </trkpt>
      <trkpt lat="55.577728" lon="13.033348">
        <ele>21.3636</ele>
        <time>1970-01-01T01:00:00Z</time>
      </trkpt>
      <trkpt lat="55.577787" lon="13.033221">
        <ele>21.2727</ele>
        <time>1970-01-01T01:00:00Z</time>
      </trkpt>
      <trkpt lat="55.577851" lon="13.033055">
        <ele>21.1818</ele>
        <time>1970-01-01T01:00:00Z</time>
      </trkpt>
      <trkpt lat="55.577881" lon="13.032858">
        <ele>21.0909</ele>
        <time>1970-01-01T01:00:00Z</time>
      </trkpt>
      <trkpt lat="55.577922" lon="13.032703">
        <ele>20.9091</ele>
        <time>1970-01-01T01:00:00Z</time>
      </trkpt>
      <trkpt lat="55.577958" lon="13.032558">
        <ele>20.7273</ele>
        <time>1970-01-01T01:00:00Z</time>
      </trkpt>
      <trkpt lat="55.578015" lon="13.03241">
        <ele>20.5455</ele>
        <time>1970-01-01T01:00:00Z</time>
      </trkpt>
      <trkpt lat="55.578066" lon="13.032257">
        <ele>20.3636</ele>
        <time>1970-01-01T01:00:00Z</time>
      </trkpt>
      <trkpt lat="55.578079" lon="13.032037">
        <ele>20.1818</ele>
        <time>1970-01-01T01:00:00Z</time>
      </trkpt>
      <trkpt lat="55.578144" lon="13.031892">
        <ele>20.0909</ele>
        <time>1970-01-01T01:00:00Z</time>
      </trkpt>
      <trkpt lat="55.578215" lon="13.031759">
        <ele>20</ele>
        <time>1970-01-01T01:00:00Z</time>
      </trkpt>
      <trkpt lat="55.578296" lon="13.031641">
        <ele>19.8182</ele>
        <time>1970-01-01T01:00:00Z</time>
      </trkpt>
      <trkpt lat="55.578378" lon="13.031546">
        <ele>19.4545</ele>
        <time>1970-01-01T01:00:00Z</time>
      </trkpt>
      <trkpt lat="55.578459" lon="13.031463">
        <ele>19.0909</ele>
        <time>1970-01-01T01:00:00Z</time>
      </trkpt>
      <trkpt lat="55.578534" lon="13.031399">
        <ele>18.7273</ele>
        <time>1970-01-01T01:00:00Z</time>
      </trkpt>
      <trkpt lat="55.578617" lon="13.03133">
        <ele>18.3636</ele>
        <time>1970-01-01T01:00:00Z</time>
      </trkpt>
      <trkpt lat="55.578693" lon="13.031251">
        <ele>18</ele>
        <time>1970-01-01T01:00:00Z</time>
      </trkpt>
      <trkpt lat="55.578786" lon="13.031163">
        <ele>17.6364</ele>
        <time>1970-01-01T01:00:00Z</time>
      </trkpt>
      <trkpt lat="55.578895" lon="13.031066">
        <ele>17.2727</ele>
        <time>1970-01-01T01:00:00Z</time>
      </trkpt>
      <trkpt lat="55.578989" lon="13.030982">
        <ele>16.9091</ele>
        <time>1970-01-01T01:00:00Z</time>
      </trkpt>
      <trkpt lat="55.579075" lon="13.030917">
        <ele>16.5455</ele>
        <time>1970-01-01T01:00:00Z</time>
      </trkpt>
      <trkpt lat="55.579159" lon="13.030849">
        <ele>16.1818</ele>
        <time>1970-01-01T01:00:00Z</time>
      </trkpt>
      <trkpt lat="55.579242" lon="13.030782">
        <ele>16.0909</ele>
        <time>1970-01-01T01:00:00Z</time>
      </trkpt>
      <trkpt lat="55.579324" lon="13.030723">
        <ele>16.1818</ele>
        <time>1970-01-01T01:00:00Z</time>
      </trkpt>
      <trkpt lat="55.579409" lon="13.030667">
        <ele>16.2727</ele>
        <time>1970-01-01T01:00:00Z</time>
      </trkpt>
      <trkpt lat="55.579513" lon="13.030593">
        <ele>16.3636</ele>
        <time>1970-01-01T01:00:00Z</time>
      </trkpt>
      <trkpt lat="55.579596" lon="13.030527">
        <ele>16.4545</ele>
        <time>1970-01-01T01:00:00Z</time>
      </trkpt>
      <trkpt lat="55.579681" lon="13.030517">
        <ele>16.5455</ele>
        <time>1970-01-01T01:00:00Z</time>
      </trkpt>
      <trkpt lat="55.579765" lon="13.030548">
        <ele>16.6364</ele>
        <time>1970-01-01T01:00:00Z</time>
      </trkpt>
      <trkpt lat="55.579848" lon="13.030507">
        <ele>16.7273</ele>
        <time>1970-01-01T01:00:00Z</time>
      </trkpt>
      <trkpt lat="55.579904" lon="13.030388">
        <ele>16.7273</ele>
        <time>1970-01-01T01:00:00Z</time>
      </trkpt>
      <trkpt lat="55.579956" lon="13.030225">
        <ele>16.7273</ele>
        <time>1970-01-01T01:00:00Z</time>
      </trkpt>
      <trkpt lat="55.580009" lon="13.030101">
        <ele>16.7273</ele>
        <time>1970-01-01T01:00:00Z</time>
      </trkpt>
      <trkpt lat="55.580072" lon="13.029946">
        <ele>16.6364</ele>
        <time>1970-01-01T01:00:00Z</time>
      </trkpt>
      <trkpt lat="55.580142" lon="13.029751">
        <ele>16.5455</ele>
        <time>1970-01-01T01:00:00Z</time>
      </trkpt>
      <trkpt lat="55.580218" lon="13.029601">
        <ele>16.4545</ele>
        <time>1970-01-01T01:00:00Z</time>
      </trkpt>
      <trkpt lat="55.580276" lon="13.029431">
        <ele>16.3636</ele>
        <time>1970-01-01T01:00:00Z</time>
      </trkpt>
      <trkpt lat="55.580315" lon="13.029225">
        <ele>16.2727</ele>
        <time>1970-01-01T01:00:00Z</time>
      </trkpt>
      <trkpt lat="55.580366" lon="13.029051">
        <ele>16.1818</ele>
        <time>1970-01-01T01:00:00Z</time>
      </trkpt>
      <trkpt lat="55.580423" lon="13.0289">
        <ele>16.0909</ele>
        <time>1970-01-01T01:00:00Z</time>
      </trkpt>
      <trkpt lat="55.580466" lon="13.028736">
        <ele>15.9091</ele>
        <time>1970-01-01T01:00:00Z</time>
      </trkpt>
      <trkpt lat="55.58051" lon="13.028573">
        <ele>15.8182</ele>
        <time>1970-01-01T01:00:00Z</time>
      </trkpt>
      <trkpt lat="55.580565" lon="13.028442">
        <ele>15.7273</ele>
        <time>1970-01-01T01:00:00Z</time>
      </trkpt>
      <trkpt lat="55.580614" lon="13.028261">
        <ele>15.6364</ele>
        <time>1970-01-01T01:00:00Z</time>
      </trkpt>
      <trkpt lat="55.580657" lon="13.028095">
        <ele>15.5455</ele>
        <time>1970-01-01T01:00:00Z</time>
      </trkpt>
      <trkpt lat="55.580704" lon="13.027933">
        <ele>15.4545</ele>
        <time>1970-01-01T01:00:00Z</time>
      </trkpt>
      <trkpt lat="55.580733" lon="13.027742">
        <ele>15.3636</ele>
        <time>1970-01-01T01:00:00Z</time>
      </trkpt>
      <trkpt lat="55.580804" lon="13.02758">
        <ele>15.2727</ele>
        <time>1970-01-01T01:00:00Z</time>
      </trkpt>
      <trkpt lat="55.580863" lon="13.027476">
        <ele>15.1818</ele>
        <time>1970-01-01T01:00:00Z</time>
      </trkpt>
      <trkpt lat="55.580932" lon="13.02736">
        <ele>15.0909</ele>
        <time>1970-01-01T01:00:00Z</time>
      </trkpt>
      <trkpt lat="55.580986" lon="13.02721">
        <ele>15</ele>
        <time>1970-01-01T01:00:00Z</time>
      </trkpt>
      <trkpt lat="55.581037" lon="13.027057">
        <ele>15.0909</ele>
        <time>1970-01-01T01:00:00Z</time>
      </trkpt>
      <trkpt lat="55.581089" lon="13.026892">
        <ele>15.1818</ele>
        <time>1970-01-01T01:00:00Z</time>
      </trkpt>
      <trkpt lat="55.581145" lon="13.026734">
        <ele>15.2727</ele>
        <time>1970-01-01T01:00:00Z</time>
      </trkpt>
      <trkpt lat="55.581186" lon="13.026583">
        <ele>15.3636</ele>
        <time>1970-01-01T01:00:00Z</time>
      </trkpt>
      <trkpt lat="55.581213" lon="13.026419">
        <ele>15.4545</ele>
        <time>1970-01-01T01:00:00Z</time>
      </trkpt>
      <trkpt lat="55.581263" lon="13.02625">
        <ele>15.5455</ele>
        <time>1970-01-01T01:00:00Z</time>
      </trkpt>
      <trkpt lat="55.581321" lon="13.026131">
        <ele>15.5455</ele>
        <time>1970-01-01T01:00:00Z</time>
      </trkpt>
      <trkpt lat="55.581399" lon="13.026019">
        <ele>15.5455</ele>
        <time>1970-01-01T01:00:00Z</time>
      </trkpt>
      <trkpt lat="55.581482" lon="13.025847">
        <ele>15.5455</ele>
        <time>1970-01-01T01:00:00Z</time>
      </trkpt>
      <trkpt lat="55.581563" lon="13.025709">
        <ele>15.5455</ele>
        <time>1970-01-01T01:00:00Z</time>
      </trkpt>
      <trkpt lat="55.581634" lon="13.025591">
        <ele>15.5455</ele>
        <time>1970-01-01T01:00:00Z</time>
      </trkpt>
      <trkpt lat="55.581695" lon="13.025456">
        <ele>15.4545</ele>
        <time>1970-01-01T01:00:00Z</time>
      </trkpt>
      <trkpt lat="55.581757" lon="13.025282">
        <ele>15.3636</ele>
        <time>1970-01-01T01:00:00Z</time>
      </trkpt>
      <trkpt lat="55.581802" lon="13.025153">
        <ele>15.2727</ele>
        <time>1970-01-01T01:00:00Z</time>
      </trkpt>
      <trkpt lat="55.581884" lon="13.025018">
        <ele>15.1818</ele>
        <time>1970-01-01T01:00:00Z</time>
      </trkpt>
      <trkpt lat="55.58193" lon="13.024879">
        <ele>15</ele>
        <time>1970-01-01T01:00:00Z</time>
      </trkpt>
      <trkpt lat="55.581954" lon="13.024707">
        <ele>14.8182</ele>
        <time>1970-01-01T01:00:00Z</time>
      </trkpt>
      <trkpt lat="55.582011" lon="13.024522">
        <ele>14.7273</ele>
        <time>1970-01-01T01:00:00Z</time>
      </trkpt>
      <trkpt lat="55.582052" lon="13.024362">
        <ele>14.6364</ele>
        <time>1970-01-01T01:00:00Z</time>
      </trkpt>
      <trkpt lat="55.582093" lon="13.024175">
        <ele>14.5455</ele>
        <time>1970-01-01T01:00:00Z</time>
      </trkpt>
      <trkpt lat="55.582136" lon="13.024012">
        <ele>14.4545</ele>
        <time>1970-01-01T01:00:00Z</time>
      </trkpt>
      <trkpt lat="55.582172" lon="13.023869">
        <ele>14.3636</ele>
        <time>1970-01-01T01:00:00Z</time>
      </trkpt>
      <trkpt lat="55.582228" lon="13.023691">
        <ele>14.1818</ele>
        <time>1970-01-01T01:00:00Z</time>
      </trkpt>
      <trkpt lat="55.582285" lon="13.023518">
        <ele>14</ele>
        <time>1970-01-01T01:00:00Z</time>
      </trkpt>
      <trkpt lat="55.582343" lon="13.023364">
        <ele>13.8182</ele>
        <time>1970-01-01T01:00:00Z</time>
      </trkpt>
      <trkpt lat="55.582416" lon="13.023212">
        <ele>13.6364</ele>
        <time>1970-01-01T01:00:00Z</time>
      </trkpt>
      <trkpt lat="55.582454" lon="13.023012">
        <ele>13.5455</ele>
        <time>1970-01-01T01:00:00Z</time>
      </trkpt>
      <trkpt lat="55.582496" lon="13.022833">
        <ele>13.4545</ele>
        <time>1970-01-01T01:00:00Z</time>
      </trkpt>
      <trkpt lat="55.582548" lon="13.022606">
        <ele>13.3636</ele>
        <time>1970-01-01T01:00:00Z</time>
      </trkpt>
      <trkpt lat="55.582618" lon="13.022451">
        <ele>13.3636</ele>
        <time>1970-01-01T01:00:00Z</time>
      </trkpt>
      <trkpt lat="55.58268" lon="13.022294">
        <ele>13.3636</ele>
        <time>1970-01-01T01:00:00Z</time>
      </trkpt>
      <trkpt lat="55.582746" lon="13.022114">
        <ele>13.3636</ele>
        <time>1970-01-01T01:00:00Z</time>
      </trkpt>
      <trkpt lat="55.582811" lon="13.022001">
        <ele>13.3636</ele>
        <time>1970-01-01T01:00:00Z</time>
      </trkpt>
      <trkpt lat="55.582871" lon="13.021892">
        <ele>13.4545</ele>
        <time>1970-01-01T01:00:00Z</time>
      </trkpt>
      <trkpt lat="55.58295" lon="13.021807">
        <ele>13.5455</ele>
        <time>1970-01-01T01:00:00Z</time>
      </trkpt>
      <trkpt lat="55.583043" lon="13.021724">
        <ele>13.5455</ele>
        <time>1970-01-01T01:00:00Z</time>
      </trkpt>
      <trkpt lat="55.583116" lon="13.021622">
        <ele>13.5455</ele>
        <time>1970-01-01T01:00:00Z</time>
      </trkpt>
      <trkpt lat="55.583181" lon="13.021515">
        <ele>13.5455</ele>
        <time>1970-01-01T01:00:00Z</time>
      </trkpt>
      <trkpt lat="55.583249" lon="13.02142">
        <ele>13.5455</ele>
        <time>1970-01-01T01:00:00Z</time>
      </trkpt>
      <trkpt lat="55.58331" lon="13.021309">
        <ele>13.5455</ele>
        <time>1970-01-01T01:00:00Z</time>
      </trkpt>
      <trkpt lat="55.58336" lon="13.021193">
        <ele>13.4545</ele>
        <time>1970-01-01T01:00:00Z</time>
      </trkpt>
      <trkpt lat="55.583452" lon="13.021047">
        <ele>13.3636</ele>
        <time>1970-01-01T01:00:00Z</time>
      </trkpt>
      <trkpt lat="55.583515" lon="13.020939">
        <ele>13.2727</ele>
        <time>1970-01-01T01:00:00Z</time>
      </trkpt>
      <trkpt lat="55.58357" lon="13.020759">
        <ele>13.1818</ele>
        <time>1970-01-01T01:00:00Z</time>
      </trkpt>
      <trkpt lat="55.583639" lon="13.020621">
        <ele>13.0909</ele>
        <time>1970-01-01T01:00:00Z</time>
      </trkpt>
      <trkpt lat="55.583691" lon="13.020466">
        <ele>13</ele>
        <time>1970-01-01T01:00:00Z</time>
      </trkpt>
      <trkpt lat="55.583751" lon="13.020292">
        <ele>12.9091</ele>
        <time>1970-01-01T01:00:00Z</time>
      </trkpt>
      <trkpt lat="55.583825" lon="13.020143">
        <ele>12.8182</ele>
        <time>1970-01-01T01:00:00Z</time>
      </trkpt>
      <trkpt lat="55.583873" lon="13.020015">
        <ele>12.7273</ele>
        <time>1970-01-01T01:00:00Z</time>
      </trkpt>
      <trkpt lat="55.583895" lon="13.019865">
        <ele>12.6364</ele>
        <time>1970-01-01T01:00:00Z</time>
      </trkpt>
      <trkpt lat="55.583948" lon="13.019697">
        <ele>12.5455</ele>
        <time>1970-01-01T01:00:00Z</time>
      </trkpt>
      <trkpt lat="55.583991" lon="13.019568">
        <ele>12.3636</ele>
        <time>1970-01-01T01:00:00Z</time>
      </trkpt>
      <trkpt lat="55.583996" lon="13.019407">
        <ele>12.1818</ele>
        <time>1970-01-01T01:00:00Z</time>
      </trkpt>
      <trkpt lat="55.584046" lon="13.019255">
        <ele>12</ele>
        <time>1970-01-01T01:00:00Z</time>
      </trkpt>
      <trkpt lat="55.584119" lon="13.019095">
        <ele>11.8182</ele>
        <time>1970-01-01T01:00:00Z</time>
      </trkpt>
      <trkpt lat="55.584154" lon="13.018955">
        <ele>11.6364</ele>
        <time>1970-01-01T01:00:00Z</time>
      </trkpt>
      <trkpt lat="55.584191" lon="13.018801">
        <ele>11.4545</ele>
        <time>1970-01-01T01:00:00Z</time>
      </trkpt>
      <trkpt lat="55.584262" lon="13.018692">
        <ele>11.3636</ele>
        <time>1970-01-01T01:00:00Z</time>
      </trkpt>
      <trkpt lat="55.584275" lon="13.018545">
        <ele>11.2727</ele>
        <time>1970-01-01T01:00:00Z</time>
      </trkpt>
      <trkpt lat="55.584322" lon="13.018415">
        <ele>11.2727</ele>
        <time>1970-01-01T01:00:00Z</time>
      </trkpt>
      <trkpt lat="55.584397" lon="13.018279">
        <ele>11.2727</ele>
        <time>1970-01-01T01:00:00Z</time>
      </trkpt>
      <trkpt lat="55.58447" lon="13.018153">
        <ele>11.2727</ele>
        <time>1970-01-01T01:00:00Z</time>
      </trkpt>
      <trkpt lat="55.584523" lon="13.018043">
        <ele>11.3636</ele>
        <time>1970-01-01T01:00:00Z</time>
      </trkpt>
      <trkpt lat="55.58459" lon="13.01793">
        <ele>11.4545</ele>
        <time>1970-01-01T01:00:00Z</time>
      </trkpt>
      <trkpt lat="55.584649" lon="13.017829">
        <ele>11.5455</ele>
        <time>1970-01-01T01:00:00Z</time>
      </trkpt>
      <trkpt lat="55.584715" lon="13.017728">
        <ele>11.6364</ele>
        <time>1970-01-01T01:00:00Z</time>
      </trkpt>
      <trkpt lat="55.584776" lon="13.017586">
        <ele>11.7273</ele>
        <time>1970-01-01T01:00:00Z</time>
      </trkpt>
      <trkpt lat="55.584839" lon="13.017384">
        <ele>11.8182</ele>
        <time>1970-01-01T01:00:00Z</time>
      </trkpt>
      <trkpt lat="55.584885" lon="13.017172">
        <ele>11.9091</ele>
        <time>1970-01-01T01:00:00Z</time>
      </trkpt>
      <trkpt lat="55.584933" lon="13.016939">
        <ele>12</ele>
        <time>1970-01-01T01:00:00Z</time>
      </trkpt>
      <trkpt lat="55.584965" lon="13.016737">
        <ele>12</ele>
        <time>1970-01-01T01:00:00Z</time>
      </trkpt>
      <trkpt lat="55.58501" lon="13.0166">
        <ele>12</ele>
        <time>1970-01-01T01:00:00Z</time>
      </trkpt>
      <trkpt lat="55.585088" lon="13.016446">
        <ele>12</ele>
        <time>1970-01-01T01:00:00Z</time>
      </trkpt>
      <trkpt lat="55.585153" lon="13.016333">
        <ele>12</ele>
        <time>1970-01-01T01:00:00Z</time>
      </trkpt>
      <trkpt lat="55.585189" lon="13.016128">
        <ele>12</ele>
        <time>1970-01-01T01:00:00Z</time>
      </trkpt>
      <trkpt lat="55.585252" lon="13.015963">
        <ele>12</ele>
        <time>1970-01-01T01:00:00Z</time>
      </trkpt>
      <trkpt lat="55.585321" lon="13.015816">
        <ele>12</ele>
        <time>1970-01-01T01:00:00Z</time>
      </trkpt>
      <trkpt lat="55.585391" lon="13.015644">
        <ele>12</ele>
        <time>1970-01-01T01:00:00Z</time>
      </trkpt>
      <trkpt lat="55.585463" lon="13.015478">
        <ele>11.9091</ele>
        <time>1970-01-01T01:00:00Z</time>
      </trkpt>
      <trkpt lat="55.585533" lon="13.015295">
        <ele>11.8182</ele>
        <time>1970-01-01T01:00:00Z</time>
      </trkpt>
      <trkpt lat="55.585575" lon="13.015109">
        <ele>11.7273</ele>
        <time>1970-01-01T01:00:00Z</time>
      </trkpt>
      <trkpt lat="55.585627" lon="13.014895">
        <ele>11.6364</ele>
        <time>1970-01-01T01:00:00Z</time>
      </trkpt>
      <trkpt lat="55.585693" lon="13.014738">
        <ele>11.5455</ele>
        <time>1970-01-01T01:00:00Z</time>
      </trkpt>
      <trkpt lat="55.585766" lon="13.014582">
        <ele>11.3636</ele>
        <time>1970-01-01T01:00:00Z</time>
      </trkpt>
      <trkpt lat="55.585825" lon="13.01442">
        <ele>11.1818</ele>
        <time>1970-01-01T01:00:00Z</time>
      </trkpt>
      <trkpt lat="55.585881" lon="13.014263">
        <ele>11</ele>
        <time>1970-01-01T01:00:00Z</time>
      </trkpt>
      <trkpt lat="55.585938" lon="13.014089">
        <ele>10.8182</ele>
        <time>1970-01-01T01:00:00Z</time>
      </trkpt>
      <trkpt lat="55.585995" lon="13.013914">
        <ele>10.8182</ele>
        <time>1970-01-01T01:00:00Z</time>
      </trkpt>
      <trkpt lat="55.58605" lon="13.013741">
        <ele>10.8182</ele>
        <time>1970-01-01T01:00:00Z</time>
      </trkpt>
      <trkpt lat="55.586104" lon="13.013575">
        <ele>10.8182</ele>
        <time>1970-01-01T01:00:00Z</time>
      </trkpt>
      <trkpt lat="55.586177" lon="13.01342">
        <ele>10.8182</ele>
        <time>1970-01-01T01:00:00Z</time>
      </trkpt>
      <trkpt lat="55.586243" lon="13.013273">
        <ele>10.8182</ele>
        <time>1970-01-01T01:00:00Z</time>
      </trkpt>
      <trkpt lat="55.586299" lon="13.013129">
        <ele>10.8182</ele>
        <time>1970-01-01T01:00:00Z</time>
      </trkpt>
      <trkpt lat="55.586351" lon="13.012987">
        <ele>10.8182</ele>
        <time>1970-01-01T01:00:00Z</time>
      </trkpt>
      <trkpt lat="55.586407" lon="13.012845">
        <ele>10.9091</ele>
        <time>1970-01-01T01:00:00Z</time>
      </trkpt>
      <trkpt lat="55.586476" lon="13.012708">
        <ele>11</ele>
        <time>1970-01-01T01:00:00Z</time>
      </trkpt>
      <trkpt lat="55.586533" lon="13.012569">
        <ele>11.0909</ele>
        <time>1970-01-01T01:00:00Z</time>
      </trkpt>
      <trkpt lat="55.586586" lon="13.012414">
        <ele>11.1818</ele>
        <time>1970-01-01T01:00:00Z</time>
      </trkpt>
      <trkpt lat="55.586629" lon="13.012257">
        <ele>11.0909</ele>
        <time>1970-01-01T01:00:00Z</time>
      </trkpt>
      <trkpt lat="55.586683" lon="13.012093">
        <ele>11.0909</ele>
        <time>1970-01-01T01:00:00Z</time>
      </trkpt>
      <trkpt lat="55.586718" lon="13.011892">
        <ele>11.1818</ele>
        <time>1970-01-01T01:00:00Z</time>
      </trkpt>
      <trkpt lat="55.586732" lon="13.01169">
        <ele>11.2727</ele>
        <time>1970-01-01T01:00:00Z</time>
      </trkpt>
      <trkpt lat="55.586759" lon="13.011496">
        <ele>11.3636</ele>
        <time>1970-01-01T01:00:00Z</time>
      </trkpt>
      <trkpt lat="55.586802" lon="13.011316">
        <ele>11.5455</ele>
        <time>1970-01-01T01:00:00Z</time>
      </trkpt>
      <trkpt lat="55.586852" lon="13.011146">
        <ele>11.7273</ele>
        <time>1970-01-01T01:00:00Z</time>
      </trkpt>
      <trkpt lat="55.586923" lon="13.01098">
        <ele>11.7273</ele>
        <time>1970-01-01T01:00:00Z</time>
      </trkpt>
      <trkpt lat="55.586993" lon="13.010836">
        <ele>11.7273</ele>
        <time>1970-01-01T01:00:00Z</time>
      </trkpt>
      <trkpt lat="55.587061" lon="13.010742">
        <ele>11.7273</ele>
        <time>1970-01-01T01:00:00Z</time>
      </trkpt>
      <trkpt lat="55.587126" lon="13.010645">
        <ele>11.7273</ele>
        <time>1970-01-01T01:00:00Z</time>
      </trkpt>
      <trkpt lat="55.587237" lon="13.010544">
        <ele>11.7273</ele>
        <time>1970-01-01T01:00:00Z</time>
      </trkpt>
      <trkpt lat="55.587328" lon="13.010379">
        <ele>11.6364</ele>
        <time>1970-01-01T01:00:00Z</time>
      </trkpt>
      <trkpt lat="55.587385" lon="13.010239">
        <ele>11.5455</ele>
        <time>1970-01-01T01:00:00Z</time>
      </trkpt>
      <trkpt lat="55.587454" lon="13.010153">
        <ele>11.4545</ele>
        <time>1970-01-01T01:00:00Z</time>
      </trkpt>
      <trkpt lat="55.587523" lon="13.010047">
        <ele>11.3636</ele>
        <time>1970-01-01T01:00:00Z</time>
      </trkpt>
      <trkpt lat="55.587585" lon="13.009877">
        <ele>11.1818</ele>
        <time>1970-01-01T01:00:00Z</time>
      </trkpt>
      <trkpt lat="55.587621" lon="13.009747">
        <ele>11</ele>
        <time>1970-01-01T01:00:00Z</time>
      </trkpt>
      <trkpt lat="55.587676" lon="13.00956">
        <ele>11</ele>
        <time>1970-01-01T01:00:00Z</time>
      </trkpt>
      <trkpt lat="55.587722" lon="13.009381">
        <ele>11</ele>
        <time>1970-01-01T01:00:00Z</time>
      </trkpt>
      <trkpt lat="55.58777" lon="13.009207">
        <ele>11</ele>
        <time>1970-01-01T01:00:00Z</time>
      </trkpt>
      <trkpt lat="55.587797" lon="13.009035">
        <ele>11.0909</ele>
        <time>1970-01-01T01:00:00Z</time>
      </trkpt>
      <trkpt lat="55.587801" lon="13.008818">
        <ele>11.1818</ele>
        <time>1970-01-01T01:00:00Z</time>
      </trkpt>
      <trkpt lat="55.587858" lon="13.008708">
        <ele>11.2727</ele>
        <time>1970-01-01T01:00:00Z</time>
      </trkpt>
      <trkpt lat="55.587891" lon="13.008541">
        <ele>11.3636</ele>
        <time>1970-01-01T01:00:00Z</time>
      </trkpt>
      <trkpt lat="55.587912" lon="13.008369">
        <ele>11.4545</ele>
        <time>1970-01-01T01:00:00Z</time>
      </trkpt>
      <trkpt lat="55.587966" lon="13.0082">
        <ele>11.5455</ele>
        <time>1970-01-01T01:00:00Z</time>
      </trkpt>
      <trkpt lat="55.588009" lon="13.008067">
        <ele>11.6364</ele>
        <time>1970-01-01T01:00:00Z</time>
      </trkpt>
      <trkpt lat="55.588061" lon="13.007951">
        <ele>11.7273</ele>
        <time>1970-01-01T01:00:00Z</time>
      </trkpt>
      <trkpt lat="55.588114" lon="13.007841">
        <ele>11.8182</ele>
        <time>1970-01-01T01:00:00Z</time>
      </trkpt>
      <trkpt lat="55.588159" lon="13.007706">
        <ele>11.9091</ele>
        <time>1970-01-01T01:00:00Z</time>
      </trkpt>
      <trkpt lat="55.588197" lon="13.007574">
        <ele>12</ele>
        <time>1970-01-01T01:00:00Z</time>
      </trkpt>
      <trkpt lat="55.588267" lon="13.007424">
        <ele>12</ele>
        <time>1970-01-01T01:00:00Z</time>
      </trkpt>
      <trkpt lat="55.588339" lon="13.007262">
        <ele>11.9091</ele>
        <time>1970-01-01T01:00:00Z</time>
      </trkpt>
      <trkpt lat="55.588407" lon="13.007175">
        <ele>11.8182</ele>
        <time>1970-01-01T01:00:00Z</time>
      </trkpt>
      <trkpt lat="55.588496" lon="13.007161">
        <ele>11.7273</ele>
        <time>1970-01-01T01:00:00Z</time>
      </trkpt>
      <trkpt lat="55.58858" lon="13.007144">
        <ele>11.6364</ele>
        <time>1970-01-01T01:00:00Z</time>
      </trkpt>
      <trkpt lat="55.58869" lon="13.007081">
        <ele>11.5455</ele>
        <time>1970-01-01T01:00:00Z</time>
      </trkpt>
      <trkpt lat="55.588783" lon="13.007049">
        <ele>11.4545</ele>
        <time>1970-01-01T01:00:00Z</time>
      </trkpt>
      <trkpt lat="55.588865" lon="13.007039">
        <ele>11.3636</ele>
        <time>1970-01-01T01:00:00Z</time>
      </trkpt>
      <trkpt lat="55.588967" lon="13.006976">
        <ele>11.3636</ele>
        <time>1970-01-01T01:00:00Z</time>
      </trkpt>
      <trkpt lat="55.589029" lon="13.006853">
        <ele>11.3636</ele>
        <time>1970-01-01T01:00:00Z</time>
      </trkpt>
      <trkpt lat="55.589057" lon="13.006697">
        <ele>11.3636</ele>
        <time>1970-01-01T01:00:00Z</time>
      </trkpt>
      <trkpt lat="55.589073" lon="13.006524">
        <ele>11.3636</ele>
        <time>1970-01-01T01:00:00Z</time>
      </trkpt>
      <trkpt lat="55.589117" lon="13.00636">
        <ele>11.5455</ele>
        <time>1970-01-01T01:00:00Z</time>
      </trkpt>
      <trkpt lat="55.589148" lon="13.006217">
        <ele>11.7273</ele>
        <time>1970-01-01T01:00:00Z</time>
      </trkpt>
      <trkpt lat="55.589175" lon="13.006038">
        <ele>11.9091</ele>
        <time>1970-01-01T01:00:00Z</time>
      </trkpt>
      <trkpt lat="55.589181" lon="13.005873">
        <ele>12.0909</ele>
        <time>1970-01-01T01:00:00Z</time>
      </trkpt>
      <trkpt lat="55.589176" lon="13.005701">
        <ele>12.2727</ele>
        <time>1970-01-01T01:00:00Z</time>
      </trkpt>
      <trkpt lat="55.589162" lon="13.005501">
        <ele>12.4545</ele>
        <time>1970-01-01T01:00:00Z</time>
      </trkpt>
      <trkpt lat="55.589169" lon="13.005322">
        <ele>12.5455</ele>
        <time>1970-01-01T01:00:00Z</time>
      </trkpt>
      <trkpt lat="55.58923" lon="13.005175">
        <ele>12.5455</ele>
        <time>1970-01-01T01:00:00Z</time>
      </trkpt>
      <trkpt lat="55.589278" lon="13.005054">
        <ele>12.5455</ele>
        <time>1970-01-01T01:00:00Z</time>
      </trkpt>
      <trkpt lat="55.589337" lon="13.004913">
        <ele>12.5455</ele>
        <time>1970-01-01T01:00:00Z</time>
      </trkpt>
      <trkpt lat="55.589406" lon="13.004803">
        <ele>12.5455</ele>
        <time>1970-01-01T01:00:00Z</time>
      </trkpt>
      <trkpt lat="55.589484" lon="13.004645">
        <ele>12.4545</ele>
        <time>1970-01-01T01:00:00Z</time>
      </trkpt>
      <trkpt lat="55.589557" lon="13.004537">
        <ele>12.3636</ele>
        <time>1970-01-01T01:00:00Z</time>
      </trkpt>
      <trkpt lat="55.58966" lon="13.004384">
        <ele>12.2727</ele>
        <time>1970-01-01T01:00:00Z</time>
      </trkpt>
      <trkpt lat="55.589745" lon="13.004266">
        <ele>12.0909</ele>
        <time>1970-01-01T01:00:00Z</time>
      </trkpt>
      <trkpt lat="55.589857" lon="13.004229">
        <ele>11.9091</ele>
        <time>1970-01-01T01:00:00Z</time>
      </trkpt>
      <trkpt lat="55.590001" lon="13.004193">
        <ele>11.7273</ele>
        <time>1970-01-01T01:00:00Z</time>
      </trkpt>
      <trkpt lat="55.590003" lon="13.004009">
        <ele>11.6364</ele>
        <time>1970-01-01T01:00:00Z</time>
      </trkpt>
      <trkpt lat="55.590049" lon="13.00386">
        <ele>11.7273</ele>
        <time>1970-01-01T01:00:00Z</time>
      </trkpt>
      <trkpt lat="55.590087" lon="13.003607">
        <ele>11.8182</ele>
        <time>1970-01-01T01:00:00Z</time>
      </trkpt>
      <trkpt lat="55.590143" lon="13.003357">
        <ele>11.9091</ele>
        <time>1970-01-01T01:00:00Z</time>
      </trkpt>
      <trkpt lat="55.590219" lon="13.003122">
        <ele>11.8182</ele>
        <time>1970-01-01T01:00:00Z</time>
      </trkpt>
      <trkpt lat="55.590267" lon="13.002972">
        <ele>11.7273</ele>
        <time>1970-01-01T01:00:00Z</time>
      </trkpt>
      <trkpt lat="55.590328" lon="13.002829">
        <ele>11.6364</ele>
        <time>1970-01-01T01:00:00Z</time>
      </trkpt>
      <trkpt lat="55.59039" lon="13.002691">
        <ele>11.5455</ele>
        <time>1970-01-01T01:00:00Z</time>
      </trkpt>
      <trkpt lat="55.590446" lon="13.002502">
        <ele>11.5455</ele>
        <time>1970-01-01T01:00:00Z</time>
      </trkpt>
      <trkpt lat="55.590518" lon="13.002259">
        <ele>11.5455</ele>
        <time>1970-01-01T01:00:00Z</time>
      </trkpt>
      <trkpt lat="55.590549" lon="13.002011">
        <ele>11.5455</ele>
        <time>1970-01-01T01:00:00Z</time>
      </trkpt>
      <trkpt lat="55.59064" lon="13.001794">
        <ele>11.5455</ele>
        <time>1970-01-01T01:00:00Z</time>
      </trkpt>
      <trkpt lat="55.590738" lon="13.001586">
        <ele>11.3636</ele>
        <time>1970-01-01T01:00:00Z</time>
      </trkpt>
      <trkpt lat="55.590827" lon="13.001391">
        <ele>11.1818</ele>
        <time>1970-01-01T01:00:00Z</time>
      </trkpt>
      <trkpt lat="55.590904" lon="13.001192">
        <ele>11</ele>
        <time>1970-01-01T01:00:00Z</time>
      </trkpt>
      <trkpt lat="55.59097" lon="13.000958">
        <ele>10.8182</ele>
        <time>1970-01-01T01:00:00Z</time>
      </trkpt>
      <trkpt lat="55.591034" lon="13.000733">
        <ele>10.6364</ele>
        <time>1970-01-01T01:00:00Z</time>
      </trkpt>
      <trkpt lat="55.591073" lon="13.000561">
        <ele>10.4545</ele>
        <time>1970-01-01T01:00:00Z</time>
      </trkpt>
      <trkpt lat="55.591121" lon="13.000398">
        <ele>10.2727</ele>
        <time>1970-01-01T01:00:00Z</time>
      </trkpt>
      <trkpt lat="55.591202" lon="13.000264">
        <ele>10.1818</ele>
        <time>1970-01-01T01:00:00Z</time>
      </trkpt>
      <trkpt lat="55.591291" lon="13.000081">
        <ele>10.0909</ele>
        <time>1970-01-01T01:00:00Z</time>
      </trkpt>
      <trkpt lat="55.591385" lon="12.999969">
        <ele>10</ele>
        <time>1970-01-01T01:00:00Z</time>
      </trkpt>
      <trkpt lat="55.591444" lon="12.999851">
        <ele>9.90909</ele>
        <time>1970-01-01T01:00:00Z</time>
      </trkpt>
      <trkpt lat="55.591517" lon="12.999734">
        <ele>9.81818</ele>
        <time>1970-01-01T01:00:00Z</time>
      </trkpt>
      <trkpt lat="55.591583" lon="12.99961">
        <ele>9.72727</ele>
        <time>1970-01-01T01:00:00Z</time>
      </trkpt>
      <trkpt lat="55.591639" lon="12.999478">
        <ele>9.63636</ele>
        <time>1970-01-01T01:00:00Z</time>
      </trkpt>
      <trkpt lat="55.591705" lon="12.999362">
        <ele>9.72727</ele>
        <time>1970-01-01T01:00:00Z</time>
      </trkpt>
      <trkpt lat="55.591764" lon="12.99924">
        <ele>9.81818</ele>
        <time>1970-01-01T01:00:00Z</time>
      </trkpt>
      <trkpt lat="55.591788" lon="12.999082">
        <ele>9.90909</ele>
        <time>1970-01-01T01:00:00Z</time>
      </trkpt>
      <trkpt lat="55.591815" lon="12.998935">
        <ele>9.72727</ele>
        <time>1970-01-01T01:00:00Z</time>
      </trkpt>
      <trkpt lat="55.591878" lon="12.998812">
        <ele>9.45455</ele>
        <time>1970-01-01T01:00:00Z</time>
      </trkpt>
      <trkpt lat="55.591953" lon="12.998718">
        <ele>9.18182</ele>
        <time>1970-01-01T01:00:00Z</time>
      </trkpt>
      <trkpt lat="55.592044" lon="12.998578">
        <ele>9.09091</ele>
        <time>1970-01-01T01:00:00Z</time>
      </trkpt>
      <trkpt lat="55.592102" lon="12.998424">
        <ele>9</ele>
        <time>1970-01-01T01:00:00Z</time>
      </trkpt>
      <trkpt lat="55.592165" lon="12.998284">
        <ele>8.90909</ele>
        <time>1970-01-01T01:00:00Z</time>
      </trkpt>
      <trkpt lat="55.592242" lon="12.99818">
        <ele>8.81818</ele>
        <time>1970-01-01T01:00:00Z</time>
      </trkpt>
      <trkpt lat="55.592299" lon="12.998012">
        <ele>8.72727</ele>
        <time>1970-01-01T01:00:00Z</time>
      </trkpt>
      <trkpt lat="55.592306" lon="12.997857">
        <ele>8.72727</ele>
        <time>1970-01-01T01:00:00Z</time>
      </trkpt>
      <trkpt lat="55.592299" lon="12.997705">
        <ele>8.72727</ele>
        <time>1970-01-01T01:00:00Z</time>
      </trkpt>
      <trkpt lat="55.592312" lon="12.997526">
        <ele>8.72727</ele>
        <time>1970-01-01T01:00:00Z</time>
      </trkpt>
      <trkpt lat="55.592357" lon="12.997404">
        <ele>9</ele>
        <time>1970-01-01T01:00:00Z</time>
      </trkpt>
      <trkpt lat="55.592394" lon="12.997243">
        <ele>9.27273</ele>
        <time>1970-01-01T01:00:00Z</time>
      </trkpt>
      <trkpt lat="55.592441" lon="12.997066">
        <ele>9.54545</ele>
        <time>1970-01-01T01:00:00Z</time>
      </trkpt>
      <trkpt lat="55.592489" lon="12.996943">
        <ele>9.72727</ele>
        <time>1970-01-01T01:00:00Z</time>
      </trkpt>
      <trkpt lat="55.592555" lon="12.996813">
        <ele>9.90909</ele>
        <time>1970-01-01T01:00:00Z</time>
      </trkpt>
      <trkpt lat="55.592629" lon="12.996705">
        <ele>9.90909</ele>
        <time>1970-01-01T01:00:00Z</time>
      </trkpt>
      <trkpt lat="55.592699" lon="12.996613">
        <ele>9.90909</ele>
        <time>1970-01-01T01:00:00Z</time>
      </trkpt>
      <trkpt lat="55.592782" lon="12.996456">
        <ele>9.90909</ele>
        <time>1970-01-01T01:00:00Z</time>
      </trkpt>
      <trkpt lat="55.592856" lon="12.996329">
        <ele>9.81818</ele>
        <time>1970-01-01T01:00:00Z</time>
      </trkpt>
      <trkpt lat="55.592909" lon="12.996156">
        <ele>9.81818</ele>
        <time>1970-01-01T01:00:00Z</time>
      </trkpt>
      <trkpt lat="55.592993" lon="12.996017">
        <ele>9.81818</ele>
        <time>1970-01-01T01:00:00Z</time>
      </trkpt>
      <trkpt lat="55.593059" lon="12.995851">
        <ele>9.81818</ele>
        <time>1970-01-01T01:00:00Z</time>
      </trkpt>
      <trkpt lat="55.593111" lon="12.995717">
        <ele>9.81818</ele>
        <time>1970-01-01T01:00:00Z</time>
      </trkpt>
      <trkpt lat="55.593173" lon="12.995585">
        <ele>9.81818</ele>
        <time>1970-01-01T01:00:00Z</time>
      </trkpt>
      <trkpt lat="55.593237" lon="12.995473">
        <ele>9.72727</ele>
        <time>1970-01-01T01:00:00Z</time>
      </trkpt>
      <trkpt lat="55.593305" lon="12.995368">
        <ele>9.63636</ele>
        <time>1970-01-01T01:00:00Z</time>
      </trkpt>
      <trkpt lat="55.593377" lon="12.995244">
        <ele>9.72727</ele>
        <time>1970-01-01T01:00:00Z</time>
      </trkpt>
      <trkpt lat="55.593446" lon="12.995139">
        <ele>9.63636</ele>
        <time>1970-01-01T01:00:00Z</time>
      </trkpt>
      <trkpt lat="55.593514" lon="12.995026">
        <ele>9.54545</ele>
        <time>1970-01-01T01:00:00Z</time>
      </trkpt>
      <trkpt lat="55.593577" lon="12.994934">
        <ele>9.45455</ele>
        <time>1970-01-01T01:00:00Z</time>
      </trkpt>
      <trkpt lat="55.593638" lon="12.994833">
        <ele>9.27273</ele>
        <time>1970-01-01T01:00:00Z</time>
      </trkpt>
      <trkpt lat="55.593704" lon="12.99472">
        <ele>9.09091</ele>
        <time>1970-01-01T01:00:00Z</time>
      </trkpt>
      <trkpt lat="55.593775" lon="12.994596">
        <ele>8.90909</ele>
        <time>1970-01-01T01:00:00Z</time>
      </trkpt>
      <trkpt lat="55.593848" lon="12.994479">
        <ele>8.72727</ele>
        <time>1970-01-01T01:00:00Z</time>
      </trkpt>
      <trkpt lat="55.59394" lon="12.994352">
        <ele>8.54545</ele>
        <time>1970-01-01T01:00:00Z</time>
      </trkpt>
      <trkpt lat="55.59401" lon="12.994232">
        <ele>8.45455</ele>
        <time>1970-01-01T01:00:00Z</time>
      </trkpt>
      <trkpt lat="55.594075" lon="12.994114">
        <ele>8.36364</ele>
        <time>1970-01-01T01:00:00Z</time>
      </trkpt>
      <trkpt lat="55.594133" lon="12.993998">
        <ele>8.27273</ele>
        <time>1970-01-01T01:00:00Z</time>
      </trkpt>
      <trkpt lat="55.594195" lon="12.99388">
        <ele>8.36364</ele>
        <time>1970-01-01T01:00:00Z</time>
      </trkpt>
      <trkpt lat="55.594259" lon="12.993769">
        <ele>8.45455</ele>
        <time>1970-01-01T01:00:00Z</time>
      </trkpt>
      <trkpt lat="55.594319" lon="12.993667">
        <ele>8.54545</ele>
        <time>1970-01-01T01:00:00Z</time>
      </trkpt>
      <trkpt lat="55.59438" lon="12.993556">
        <ele>9.18182</ele>
        <time>1970-01-01T01:00:00Z</time>
      </trkpt>
      <trkpt lat="55.594446" lon="12.99345">
        <ele>9.54545</ele>
        <time>1970-01-01T01:00:00Z</time>
      </trkpt>
      <trkpt lat="55.594506" lon="12.993353">
        <ele>9.90909</ele>
        <time>1970-01-01T01:00:00Z</time>
      </trkpt>
      <trkpt lat="55.594567" lon="12.993254">
        <ele>10.2727</ele>
        <time>1970-01-01T01:00:00Z</time>
      </trkpt>
      <trkpt lat="55.594625" lon="12.99315">
        <ele>10.6364</ele>
        <time>1970-01-01T01:00:00Z</time>
      </trkpt>
      <trkpt lat="55.594694" lon="12.992986">
        <ele>10.9091</ele>
        <time>1970-01-01T01:00:00Z</time>
      </trkpt>
      <trkpt lat="55.594763" lon="12.992854">
        <ele>11.1818</ele>
        <time>1970-01-01T01:00:00Z</time>
      </trkpt>
      <trkpt lat="55.594849" lon="12.992746">
        <ele>11.4545</ele>
        <time>1970-01-01T01:00:00Z</time>
      </trkpt>
      <trkpt lat="55.594919" lon="12.992667">
        <ele>11.7273</ele>
        <time>1970-01-01T01:00:00Z</time>
      </trkpt>
      <trkpt lat="55.595001" lon="12.992527">
        <ele>11.8182</ele>
        <time>1970-01-01T01:00:00Z</time>
      </trkpt>
      <trkpt lat="55.595084" lon="12.992417">
        <ele>11.8182</ele>
        <time>1970-01-01T01:00:00Z</time>
      </trkpt>
      <trkpt lat="55.59515" lon="12.992311">
        <ele>11.2727</ele>
        <time>1970-01-01T01:00:00Z</time>
      </trkpt>
      <trkpt lat="55.595228" lon="12.992225">
        <ele>11</ele>
        <time>1970-01-01T01:00:00Z</time>
      </trkpt>
      <trkpt lat="55.595306" lon="12.992113">
        <ele>10.7273</ele>
        <time>1970-01-01T01:00:00Z</time>
      </trkpt>
      <trkpt lat="55.595387" lon="12.992007">
        <ele>10.4545</ele>
        <time>1970-01-01T01:00:00Z</time>
      </trkpt>
      <trkpt lat="55.595473" lon="12.991928">
        <ele>10.1818</ele>
        <time>1970-01-01T01:00:00Z</time>
      </trkpt>
      <trkpt lat="55.595553" lon="12.991802">
        <ele>9.81818</ele>
        <time>1970-01-01T01:00:00Z</time>
      </trkpt>
      <trkpt lat="55.59562" lon="12.991685">
        <ele>9.45455</ele>
        <time>1970-01-01T01:00:00Z</time>
      </trkpt>
      <trkpt lat="55.5957" lon="12.991605">
        <ele>9.09091</ele>
        <time>1970-01-01T01:00:00Z</time>
      </trkpt>
      <trkpt lat="55.595778" lon="12.991512">
        <ele>8.72727</ele>
        <time>1970-01-01T01:00:00Z</time>
      </trkpt>
      <trkpt lat="55.595851" lon="12.991363">
        <ele>8.54545</ele>
        <time>1970-01-01T01:00:00Z</time>
      </trkpt>
      <trkpt lat="55.595942" lon="12.991216">
        <ele>8.18182</ele>
        <time>1970-01-01T01:00:00Z</time>
      </trkpt>
      <trkpt lat="55.596043" lon="12.991063">
        <ele>7.72727</ele>
        <time>1970-01-01T01:00:00Z</time>
      </trkpt>
      <trkpt lat="55.596107" lon="12.990946">
        <ele>7.27273</ele>
        <time>1970-01-01T01:00:00Z</time>
      </trkpt>
      <trkpt lat="55.596171" lon="12.990828">
        <ele>6.81818</ele>
        <time>1970-01-01T01:00:00Z</time>
      </trkpt>
      <trkpt lat="55.596234" lon="12.990715">
        <ele>6.36364</ele>
        <time>1970-01-01T01:00:00Z</time>
      </trkpt>
      <trkpt lat="55.596328" lon="12.990531">
        <ele>5.90909</ele>
        <time>1970-01-01T01:00:00Z</time>
      </trkpt>
      <trkpt lat="55.596403" lon="12.990393">
        <ele>5.54545</ele>
        <time>1970-01-01T01:00:00Z</time>
      </trkpt>
      <trkpt lat="55.596489" lon="12.990268">
        <ele>5.18182</ele>
        <time>1970-01-01T01:00:00Z</time>
      </trkpt>
      <trkpt lat="55.596573" lon="12.990137">
        <ele>4.81818</ele>
        <time>1970-01-01T01:00:00Z</time>
      </trkpt>
      <trkpt lat="55.596638" lon="12.990008">
        <ele>4.45455</ele>
        <time>1970-01-01T01:00:00Z</time>
      </trkpt>
      <trkpt lat="55.596711" lon="12.989896">
        <ele>4.09091</ele>
        <time>1970-01-01T01:00:00Z</time>
      </trkpt>
      <trkpt lat="55.596772" lon="12.989788">
        <ele>4</ele>
        <time>1970-01-01T01:00:00Z</time>
      </trkpt>
      <trkpt lat="55.596833" lon="12.98963">
        <ele>4</ele>
        <time>1970-01-01T01:00:00Z</time>
      </trkpt>
      <trkpt lat="55.596901" lon="12.989489">
        <ele>4</ele>
        <time>1970-01-01T01:00:00Z</time>
      </trkpt>
      <trkpt lat="55.59697" lon="12.9894">
        <ele>4</ele>
        <time>1970-01-01T01:00:00Z</time>
      </trkpt>
      <trkpt lat="55.597063" lon="12.989404">
        <ele>4</ele>
        <time>1970-01-01T01:00:00Z</time>
      </trkpt>
      <trkpt lat="55.597144" lon="12.989369">
        <ele>4</ele>
        <time>1970-01-01T01:00:00Z</time>
      </trkpt>
      <trkpt lat="55.597226" lon="12.989312">
        <ele>4</ele>
        <time>1970-01-01T01:00:00Z</time>
      </trkpt>
      <trkpt lat="55.59733" lon="12.989243">
        <ele>4</ele>
        <time>1970-01-01T01:00:00Z</time>
      </trkpt>
      <trkpt lat="55.597442" lon="12.989188">
        <ele>4</ele>
        <time>1970-01-01T01:00:00Z</time>
      </trkpt>
      <trkpt lat="55.59754" lon="12.989142">
        <ele>4.18182</ele>
        <time>1970-01-01T01:00:00Z</time>
      </trkpt>
      <trkpt lat="55.597642" lon="12.989091">
        <ele>4.36364</ele>
        <time>1970-01-01T01:00:00Z</time>
      </trkpt>
      <trkpt lat="55.597726" lon="12.989064">
        <ele>4.54545</ele>
        <time>1970-01-01T01:00:00Z</time>
      </trkpt>
      <trkpt lat="55.597815" lon="12.98904">
        <ele>4.63636</ele>
        <time>1970-01-01T01:00:00Z</time>
      </trkpt>
      <trkpt lat="55.597908" lon="12.98901">
        <ele>4.72727</ele>
        <time>1970-01-01T01:00:00Z</time>
      </trkpt>
      <trkpt lat="55.597992" lon="12.988965">
        <ele>4.81818</ele>
        <time>1970-01-01T01:00:00Z</time>
      </trkpt>
      <trkpt lat="55.598089" lon="12.988905">
        <ele>4.90909</ele>
        <time>1970-01-01T01:00:00Z</time>
      </trkpt>
      <trkpt lat="55.598186" lon="12.988852">
        <ele>5</ele>
        <time>1970-01-01T01:00:00Z</time>
      </trkpt>
      <trkpt lat="55.598287" lon="12.988794">
        <ele>5.36364</ele>
        <time>1970-01-01T01:00:00Z</time>
      </trkpt>
      <trkpt lat="55.598378" lon="12.988726">
        <ele>5.72727</ele>
        <time>1970-01-01T01:00:00Z</time>
      </trkpt>
      <trkpt lat="55.598455" lon="12.988657">
        <ele>6.09091</ele>
        <time>1970-01-01T01:00:00Z</time>
      </trkpt>
      <trkpt lat="55.598549" lon="12.988586">
        <ele>6.27273</ele>
        <time>1970-01-01T01:00:00Z</time>
      </trkpt>
      <trkpt lat="55.598685" lon="12.988528">
        <ele>6.45455</ele>
        <time>1970-01-01T01:00:00Z</time>
      </trkpt>
      <trkpt lat="55.598764" lon="12.988487">
        <ele>6.63636</ele>
        <time>1970-01-01T01:00:00Z</time>
      </trkpt>
      <trkpt lat="55.598843" lon="12.988424">
        <ele>6.90909</ele>
        <time>1970-01-01T01:00:00Z</time>
      </trkpt>
      <trkpt lat="55.598936" lon="12.988369">
        <ele>7.18182</ele>
        <time>1970-01-01T01:00:00Z</time>
      </trkpt>
      <trkpt lat="55.59904" lon="12.988353">
        <ele>7.45455</ele>
        <time>1970-01-01T01:00:00Z</time>
      </trkpt>
      <trkpt lat="55.599129" lon="12.988291">
        <ele>7.72727</ele>
        <time>1970-01-01T01:00:00Z</time>
      </trkpt>
      <trkpt lat="55.599215" lon="12.988268">
        <ele>8.18182</ele>
        <time>1970-01-01T01:00:00Z</time>
      </trkpt>
      <trkpt lat="55.599275" lon="12.98817">
        <ele>8.36364</ele>
        <time>1970-01-01T01:00:00Z</time>
      </trkpt>
      <trkpt lat="55.599358" lon="12.988217">
        <ele>8.54545</ele>
        <time>1970-01-01T01:00:00Z</time>
      </trkpt>
      <trkpt lat="55.599457" lon="12.988234">
        <ele>8.72727</ele>
        <time>1970-01-01T01:00:00Z</time>
      </trkpt>
      <trkpt lat="55.599576" lon="12.988196">
        <ele>8.90909</ele>
        <time>1970-01-01T01:00:00Z</time>
      </trkpt>
      <trkpt lat="55.599672" lon="12.988192">
        <ele>9.09091</ele>
        <time>1970-01-01T01:00:00Z</time>
      </trkpt>
      <trkpt lat="55.599761" lon="12.988198">
        <ele>9.27273</ele>
        <time>1970-01-01T01:00:00Z</time>
      </trkpt>
      <trkpt lat="55.599838" lon="12.988126">
        <ele>9.45455</ele>
        <time>1970-01-01T01:00:00Z</time>
      </trkpt>
      <trkpt lat="55.599932" lon="12.988169">
        <ele>9.63636</ele>
        <time>1970-01-01T01:00:00Z</time>
      </trkpt>
      <trkpt lat="55.600024" lon="12.98812">
        <ele>9.90909</ele>
        <time>1970-01-01T01:00:00Z</time>
      </trkpt>
      <trkpt lat="55.600119" lon="12.988099">
        <ele>10.1818</ele>
        <time>1970-01-01T01:00:00Z</time>
      </trkpt>
      <trkpt lat="55.600193" lon="12.988005">
        <ele>10.2727</ele>
        <time>1970-01-01T01:00:00Z</time>
      </trkpt>
      <trkpt lat="55.600115" lon="12.988044">
        <ele>10.3636</ele>
        <time>1970-01-01T01:00:00Z</time>
      </trkpt>
      <trkpt lat="55.600018" lon="12.988116">
        <ele>10.4545</ele>
        <time>1970-01-01T01:00:00Z</time>
      </trkpt>
      <trkpt lat="55.599995" lon="12.987978">
        <ele>10.6364</ele>
        <time>1970-01-01T01:00:00Z</time>
      </trkpt>
      <trkpt lat="55.600002" lon="12.987826">
        <ele>10.8182</ele>
        <time>1970-01-01T01:00:00Z</time>
      </trkpt>
      <trkpt lat="55.600002" lon="12.987675">
        <ele>11</ele>
        <time>1970-01-01T01:00:00Z</time>
      </trkpt>
      <trkpt lat="55.6" lon="12.987458">
        <ele>11.1818</ele>
        <time>1970-01-01T01:00:00Z</time>
      </trkpt>
      <trkpt lat="55.599989" lon="12.987295">
        <ele>11.3636</ele>
        <time>1970-01-01T01:00:00Z</time>
      </trkpt>
      <trkpt lat="55.60002" lon="12.987153">
        <ele>11.3636</ele>
        <time>1970-01-01T01:00:00Z</time>
      </trkpt>
      <trkpt lat="55.600074" lon="12.986952">
        <ele>11.2727</ele>
        <time>1970-01-01T01:00:00Z</time>
      </trkpt>
      <trkpt lat="55.600126" lon="12.986751">
        <ele>11.1818</ele>
        <time>1970-01-01T01:00:00Z</time>
      </trkpt>
      <trkpt lat="55.600148" lon="12.986575">
        <ele>10.9091</ele>
        <time>1970-01-01T01:00:00Z</time>
      </trkpt>
      <trkpt lat="55.600186" lon="12.986394">
        <ele>10.6364</ele>
        <time>1970-01-01T01:00:00Z</time>
      </trkpt>
      <trkpt lat="55.600242" lon="12.986188">
        <ele>10.5455</ele>
        <time>1970-01-01T01:00:00Z</time>
      </trkpt>
      <trkpt lat="55.600281" lon="12.985856">
        <ele>10.3636</ele>
        <time>1970-01-01T01:00:00Z</time>
      </trkpt>
      <trkpt lat="55.600329" lon="12.985631">
        <ele>10.1818</ele>
        <time>1970-01-01T01:00:00Z</time>
      </trkpt>
      <trkpt lat="55.60037" lon="12.985417">
        <ele>9.72727</ele>
        <time>1970-01-01T01:00:00Z</time>
      </trkpt>
      <trkpt lat="55.600445" lon="12.985181">
        <ele>9.27273</ele>
        <time>1970-01-01T01:00:00Z</time>
      </trkpt>
      <trkpt lat="55.600515" lon="12.984999">
        <ele>8.81818</ele>
        <time>1970-01-01T01:00:00Z</time>
      </trkpt>
      <trkpt lat="55.600607" lon="12.984866">
        <ele>8.54545</ele>
        <time>1970-01-01T01:00:00Z</time>
      </trkpt>
      <trkpt lat="55.600685" lon="12.984759">
        <ele>8.27273</ele>
        <time>1970-01-01T01:00:00Z</time>
      </trkpt>
      <trkpt lat="55.600782" lon="12.984668">
        <ele>7.81818</ele>
        <time>1970-01-01T01:00:00Z</time>
      </trkpt>
      <trkpt lat="55.600859" lon="12.984604">
        <ele>7.54545</ele>
        <time>1970-01-01T01:00:00Z</time>
      </trkpt>
      <trkpt lat="55.600993" lon="12.98448">
        <ele>7.27273</ele>
        <time>1970-01-01T01:00:00Z</time>
      </trkpt>
      <trkpt lat="55.601108" lon="12.98438">
        <ele>6.81818</ele>
        <time>1970-01-01T01:00:00Z</time>
      </trkpt>
      <trkpt lat="55.601238" lon="12.98429">
        <ele>6.36364</ele>
        <time>1970-01-01T01:00:00Z</time>
      </trkpt>
      <trkpt lat="55.60137" lon="12.984218">
        <ele>5.90909</ele>
        <time>1970-01-01T01:00:00Z</time>
      </trkpt>
      <trkpt lat="55.601487" lon="12.984174">
        <ele>5.72727</ele>
        <time>1970-01-01T01:00:00Z</time>
      </trkpt>
      <trkpt lat="55.601608" lon="12.984156">
        <ele>5.63636</ele>
        <time>1970-01-01T01:00:00Z</time>
      </trkpt>
      <trkpt lat="55.601717" lon="12.984143">
        <ele>5.54545</ele>
        <time>1970-01-01T01:00:00Z</time>
      </trkpt>
      <trkpt lat="55.601817" lon="12.98413">
        <ele>5.45455</ele>
        <time>1970-01-01T01:00:00Z</time>
      </trkpt>
      <trkpt lat="55.601924" lon="12.984122">
        <ele>5.36364</ele>
        <time>1970-01-01T01:00:00Z</time>
      </trkpt>
      <trkpt lat="55.602015" lon="12.984106">
        <ele>5.45455</ele>
        <time>1970-01-01T01:00:00Z</time>
      </trkpt>
      <trkpt lat="55.60212" lon="12.984101">
        <ele>5.54545</ele>
        <time>1970-01-01T01:00:00Z</time>
      </trkpt>
      <trkpt lat="55.602241" lon="12.984076">
        <ele>5.63636</ele>
        <time>1970-01-01T01:00:00Z</time>
      </trkpt>
      <trkpt lat="55.602361" lon="12.98404">
        <ele>5.54545</ele>
        <time>1970-01-01T01:00:00Z</time>
      </trkpt>
      <trkpt lat="55.602473" lon="12.983987">
        <ele>5.45455</ele>
        <time>1970-01-01T01:00:00Z</time>
      </trkpt>
      <trkpt lat="55.602593" lon="12.983937">
        <ele>5.36364</ele>
        <time>1970-01-01T01:00:00Z</time>
      </trkpt>
      <trkpt lat="55.60271" lon="12.983869">
        <ele>5.27273</ele>
        <time>1970-01-01T01:00:00Z</time>
      </trkpt>
      <trkpt lat="55.602852" lon="12.983767">
        <ele>5.09091</ele>
        <time>1970-01-01T01:00:00Z</time>
      </trkpt>
      <trkpt lat="55.602955" lon="12.98367">
        <ele>4.81818</ele>
        <time>1970-01-01T01:00:00Z</time>
      </trkpt>
      <trkpt lat="55.603012" lon="12.983529">
        <ele>4.54545</ele>
        <time>1970-01-01T01:00:00Z</time>
      </trkpt>
      <trkpt lat="55.603071" lon="12.983397">
        <ele>4.27273</ele>
        <time>1970-01-01T01:00:00Z</time>
      </trkpt>
      <trkpt lat="55.603122" lon="12.983216">
        <ele>4</ele>
        <time>1970-01-01T01:00:00Z</time>
      </trkpt>
      <trkpt lat="55.603185" lon="12.98305">
        <ele>3.72727</ele>
        <time>1970-01-01T01:00:00Z</time>
      </trkpt>
      <trkpt lat="55.603249" lon="12.982886">
        <ele>3.45455</ele>
        <time>1970-01-01T01:00:00Z</time>
      </trkpt>
      <trkpt lat="55.603289" lon="12.98273">
        <ele>3.36364</ele>
        <time>1970-01-01T01:00:00Z</time>
      </trkpt>
      <trkpt lat="55.603318" lon="12.982557">
        <ele>3.27273</ele>
        <time>1970-01-01T01:00:00Z</time>
      </trkpt>
      <trkpt lat="55.603344" lon="12.982395">
        <ele>3.18182</ele>
        <time>1970-01-01T01:00:00Z</time>
      </trkpt>
      <trkpt lat="55.603369" lon="12.982245">
        <ele>3.09091</ele>
        <time>1970-01-01T01:00:00Z</time>
      </trkpt>
      <trkpt lat="55.603389" lon="12.982054">
        <ele>3</ele>
        <time>1970-01-01T01:00:00Z</time>
      </trkpt>
      <trkpt lat="55.603363" lon="12.9819">
        <ele>3.27273</ele>
        <time>1970-01-01T01:00:00Z</time>
      </trkpt>
      <trkpt lat="55.603305" lon="12.981762">
        <ele>3.54545</ele>
        <time>1970-01-01T01:00:00Z</time>
      </trkpt>
      <trkpt lat="55.603189" lon="12.981817">
        <ele>3.81818</ele>
        <time>1970-01-01T01:00:00Z</time>
      </trkpt>
      <trkpt lat="55.603092" lon="12.981859">
        <ele>4.09091</ele>
        <time>1970-01-01T01:00:00Z</time>
      </trkpt>
      <trkpt lat="55.603002" lon="12.981907">
        <ele>4.36364</ele>
        <time>1970-01-01T01:00:00Z</time>
      </trkpt>
      <trkpt lat="55.602901" lon="12.98194">
        <ele>4.63636</ele>
        <time>1970-01-01T01:00:00Z</time>
      </trkpt>
      <trkpt lat="55.6028" lon="12.981981">
        <ele>4.90909</ele>
        <time>1970-01-01T01:00:00Z</time>
      </trkpt>
      <trkpt lat="55.602686" lon="12.982022">
        <ele>5.18182</ele>
        <time>1970-01-01T01:00:00Z</time>
      </trkpt>
      <trkpt lat="55.602569" lon="12.982048">
        <ele>5.45455</ele>
        <time>1970-01-01T01:00:00Z</time>
      </trkpt>
      <trkpt lat="55.602471" lon="12.981994">
        <ele>5.72727</ele>
        <time>1970-01-01T01:00:00Z</time>
      </trkpt>
      <trkpt lat="55.602404" lon="12.98188">
        <ele>6.09091</ele>
        <time>1970-01-01T01:00:00Z</time>
      </trkpt>
      <trkpt lat="55.602351" lon="12.981768">
        <ele>6</ele>
        <time>1970-01-01T01:00:00Z</time>
      </trkpt>
      <trkpt lat="55.602289" lon="12.981648">
        <ele>5.90909</ele>
        <time>1970-01-01T01:00:00Z</time>
      </trkpt>
      <trkpt lat="55.602234" lon="12.981531">
        <ele>5.81818</ele>
        <time>1970-01-01T01:00:00Z</time>
      </trkpt>
      <trkpt lat="55.602184" lon="12.981413">
        <ele>5.72727</ele>
        <time>1970-01-01T01:00:00Z</time>
      </trkpt>
      <trkpt lat="55.602156" lon="12.981238">
        <ele>5.63636</ele>
        <time>1970-01-01T01:00:00Z</time>
      </trkpt>
      <trkpt lat="55.6021" lon="12.981117">
        <ele>5.54545</ele>
        <time>1970-01-01T01:00:00Z</time>
      </trkpt>
      <trkpt lat="55.602013" lon="12.981037">
        <ele>5.45455</ele>
        <time>1970-01-01T01:00:00Z</time>
      </trkpt>
      <trkpt lat="55.601926" lon="12.980924">
        <ele>5.36364</ele>
        <time>1970-01-01T01:00:00Z</time>
      </trkpt>
      <trkpt lat="55.601848" lon="12.980769">
        <ele>5.27273</ele>
        <time>1970-01-01T01:00:00Z</time>
      </trkpt>
      <trkpt lat="55.601791" lon="12.980639">
        <ele>5.18182</ele>
        <time>1970-01-01T01:00:00Z</time>
      </trkpt>
      <trkpt lat="55.601732" lon="12.980523">
        <ele>5</ele>
        <time>1970-01-01T01:00:00Z</time>
      </trkpt>
      <trkpt lat="55.601668" lon="12.980344">
        <ele>5</ele>
        <time>1970-01-01T01:00:00Z</time>
      </trkpt>
      <trkpt lat="55.6016" lon="12.980207">
        <ele>5</ele>
        <time>1970-01-01T01:00:00Z</time>
      </trkpt>
      <trkpt lat="55.601526" lon="12.98006">
        <ele>5</ele>
        <time>1970-01-01T01:00:00Z</time>
      </trkpt>
      <trkpt lat="55.60147" lon="12.979927">
        <ele>5</ele>
        <time>1970-01-01T01:00:00Z</time>
      </trkpt>
      <trkpt lat="55.601411" lon="12.97982">
        <ele>5</ele>
        <time>1970-01-01T01:00:00Z</time>
      </trkpt>
    </trkseg>
  </trk>
</gpx>